<?xml version="1.0" encoding="UTF-8" standalone="no" ?>
<gpx xmlns="http://www.topografix.com/GPX/1/1" xmlns:xsi="http://www.w3.org/2001/XMLSchema-instance" xsi:schemaLocation="http://www.topografix.com/GPX/1/1 http://www.topografix.com/GPX/1/1/gpx.xsd" version="1.1" creator="VisuGPX - https://www.visugpx.com">
  <metadata>
    <name>Champagnat Cyclisme sur route</name>
  </metadata>
  <trk>
    <name><![CDATA[Champagnat Cyclisme sur route_1]]></name>
    <trkseg>
      <trkpt lat="46.48263" lon="5.36826">
        <ele>264.6</ele>
        <time>2022-01-10T13:10:13Z</time>
      </trkpt>
      <trkpt lat="46.48254" lon="5.36815">
        <ele>263.8</ele>
        <time>2022-01-10T13:10:14Z</time>
      </trkpt>
      <trkpt lat="46.48243" lon="5.36806">
        <ele>262.4</ele>
        <time>2022-01-10T13:10:15Z</time>
      </trkpt>
      <trkpt lat="46.48224" lon="5.3679">
        <ele>260.8</ele>
        <time>2022-01-10T13:10:17Z</time>
      </trkpt>
      <trkpt lat="46.482" lon="5.36771">
        <ele>259.2</ele>
        <time>2022-01-10T13:10:19Z</time>
      </trkpt>
      <trkpt lat="46.48179" lon="5.36753">
        <ele>257.8</ele>
        <time>2022-01-10T13:10:21Z</time>
      </trkpt>
      <trkpt lat="46.48159" lon="5.36736">
        <ele>256.4</ele>
        <time>2022-01-10T13:10:23Z</time>
      </trkpt>
      <trkpt lat="46.4815" lon="5.36729">
        <ele>255.6</ele>
        <time>2022-01-10T13:10:24Z</time>
      </trkpt>
      <trkpt lat="46.48139" lon="5.3672">
        <ele>255.2</ele>
        <time>2022-01-10T13:10:25Z</time>
      </trkpt>
      <trkpt lat="46.48132" lon="5.36715">
        <ele>253.8</ele>
        <time>2022-01-10T13:10:26Z</time>
      </trkpt>
      <trkpt lat="46.48116" lon="5.36703">
        <ele>252.4</ele>
        <time>2022-01-10T13:10:28Z</time>
      </trkpt>
      <trkpt lat="46.4811" lon="5.36696">
        <ele>251.6</ele>
        <time>2022-01-10T13:10:29Z</time>
      </trkpt>
      <trkpt lat="46.48108" lon="5.36689">
        <ele>251.2</ele>
        <time>2022-01-10T13:10:30Z</time>
      </trkpt>
      <trkpt lat="46.48109" lon="5.36681">
        <ele>250.2</ele>
        <time>2022-01-10T13:10:31Z</time>
      </trkpt>
      <trkpt lat="46.48118" lon="5.36669">
        <ele>248.8</ele>
        <time>2022-01-10T13:10:33Z</time>
      </trkpt>
      <trkpt lat="46.48129" lon="5.36657">
        <ele>247.6</ele>
        <time>2022-01-10T13:10:35Z</time>
      </trkpt>
      <trkpt lat="46.48147" lon="5.36635">
        <ele>246.4</ele>
        <time>2022-01-10T13:10:38Z</time>
      </trkpt>
      <trkpt lat="46.48177" lon="5.36612">
        <ele>245.8</ele>
        <time>2022-01-10T13:10:42Z</time>
      </trkpt>
      <trkpt lat="46.48185" lon="5.36609">
        <ele>245.8</ele>
        <time>2022-01-10T13:10:43Z</time>
      </trkpt>
      <trkpt lat="46.48192" lon="5.36605">
        <ele>245.6</ele>
        <time>2022-01-10T13:10:44Z</time>
      </trkpt>
      <trkpt lat="46.482" lon="5.36602">
        <ele>245.4</ele>
        <time>2022-01-10T13:10:45Z</time>
      </trkpt>
      <trkpt lat="46.48215" lon="5.36595">
        <ele>245.2</ele>
        <time>2022-01-10T13:10:47Z</time>
      </trkpt>
      <trkpt lat="46.48222" lon="5.36582">
        <ele>245</ele>
        <time>2022-01-10T13:10:49Z</time>
      </trkpt>
      <trkpt lat="46.48229" lon="5.36561">
        <ele>244.8</ele>
        <time>2022-01-10T13:10:51Z</time>
      </trkpt>
      <trkpt lat="46.48233" lon="5.36553">
        <ele>244.6</ele>
        <time>2022-01-10T13:10:52Z</time>
      </trkpt>
      <trkpt lat="46.48257" lon="5.36528">
        <ele>244.4</ele>
        <time>2022-01-10T13:10:56Z</time>
      </trkpt>
      <trkpt lat="46.48272" lon="5.36511">
        <ele>244</ele>
        <time>2022-01-10T13:10:59Z</time>
      </trkpt>
      <trkpt lat="46.48291" lon="5.36491">
        <ele>243.6</ele>
        <time>2022-01-10T13:11:02Z</time>
      </trkpt>
      <trkpt lat="46.48308" lon="5.36472">
        <ele>243.2</ele>
        <time>2022-01-10T13:11:05Z</time>
      </trkpt>
      <trkpt lat="46.48338" lon="5.36439">
        <ele>242</ele>
        <time>2022-01-10T13:11:10Z</time>
      </trkpt>
      <trkpt lat="46.48361" lon="5.36415">
        <ele>240.8</ele>
        <time>2022-01-10T13:11:14Z</time>
      </trkpt>
      <trkpt lat="46.48384" lon="5.36388">
        <ele>240</ele>
        <time>2022-01-10T13:11:18Z</time>
      </trkpt>
      <trkpt lat="46.48391" lon="5.36381">
        <ele>239.6</ele>
        <time>2022-01-10T13:11:19Z</time>
      </trkpt>
      <trkpt lat="46.48403" lon="5.36369">
        <ele>239.2</ele>
        <time>2022-01-10T13:11:21Z</time>
      </trkpt>
      <trkpt lat="46.48422" lon="5.36356">
        <ele>238.8</ele>
        <time>2022-01-10T13:11:24Z</time>
      </trkpt>
      <trkpt lat="46.48434" lon="5.36352">
        <ele>238.6</ele>
        <time>2022-01-10T13:11:26Z</time>
      </trkpt>
      <trkpt lat="46.48454" lon="5.36347">
        <ele>238</ele>
        <time>2022-01-10T13:11:29Z</time>
      </trkpt>
      <trkpt lat="46.48492" lon="5.36341">
        <ele>237.6</ele>
        <time>2022-01-10T13:11:35Z</time>
      </trkpt>
      <trkpt lat="46.4851" lon="5.36338">
        <ele>237.6</ele>
        <time>2022-01-10T13:11:38Z</time>
      </trkpt>
      <trkpt lat="46.48517" lon="5.36337">
        <ele>237.6</ele>
        <time>2022-01-10T13:11:39Z</time>
      </trkpt>
      <trkpt lat="46.48564" lon="5.36329">
        <ele>237.6</ele>
        <time>2022-01-10T13:11:47Z</time>
      </trkpt>
      <trkpt lat="46.48617" lon="5.36318">
        <ele>236.4</ele>
        <time>2022-01-10T13:11:55Z</time>
      </trkpt>
      <trkpt lat="46.48629" lon="5.36304">
        <ele>235.4</ele>
        <time>2022-01-10T13:11:57Z</time>
      </trkpt>
      <trkpt lat="46.48633" lon="5.36295">
        <ele>234.8</ele>
        <time>2022-01-10T13:11:58Z</time>
      </trkpt>
      <trkpt lat="46.48635" lon="5.36284">
        <ele>234.6</ele>
        <time>2022-01-10T13:11:59Z</time>
      </trkpt>
      <trkpt lat="46.48639" lon="5.36261">
        <ele>233.6</ele>
        <time>2022-01-10T13:12:01Z</time>
      </trkpt>
      <trkpt lat="46.4864" lon="5.36249">
        <ele>233.2</ele>
        <time>2022-01-10T13:12:02Z</time>
      </trkpt>
      <trkpt lat="46.48643" lon="5.36213">
        <ele>232.2</ele>
        <time>2022-01-10T13:12:05Z</time>
      </trkpt>
      <trkpt lat="46.48647" lon="5.36166">
        <ele>231</ele>
        <time>2022-01-10T13:12:09Z</time>
      </trkpt>
      <trkpt lat="46.48648" lon="5.36155">
        <ele>230.8</ele>
        <time>2022-01-10T13:12:10Z</time>
      </trkpt>
      <trkpt lat="46.48655" lon="5.3611">
        <ele>229.8</ele>
        <time>2022-01-10T13:12:14Z</time>
      </trkpt>
      <trkpt lat="46.48658" lon="5.36099">
        <ele>229.6</ele>
        <time>2022-01-10T13:12:15Z</time>
      </trkpt>
      <trkpt lat="46.48662" lon="5.36079">
        <ele>229.4</ele>
        <time>2022-01-10T13:12:17Z</time>
      </trkpt>
      <trkpt lat="46.48671" lon="5.36043">
        <ele>229.4</ele>
        <time>2022-01-10T13:12:21Z</time>
      </trkpt>
      <trkpt lat="46.48676" lon="5.36018">
        <ele>229.4</ele>
        <time>2022-01-10T13:12:24Z</time>
      </trkpt>
      <trkpt lat="46.48679" lon="5.35996">
        <ele>229.6</ele>
        <time>2022-01-10T13:12:27Z</time>
      </trkpt>
      <trkpt lat="46.4868" lon="5.35989">
        <ele>229.8</ele>
        <time>2022-01-10T13:12:28Z</time>
      </trkpt>
      <trkpt lat="46.48684" lon="5.35963">
        <ele>230</ele>
        <time>2022-01-10T13:12:31Z</time>
      </trkpt>
      <trkpt lat="46.48692" lon="5.35913">
        <ele>230.4</ele>
        <time>2022-01-10T13:12:36Z</time>
      </trkpt>
      <trkpt lat="46.48698" lon="5.35894">
        <ele>230.2</ele>
        <time>2022-01-10T13:12:38Z</time>
      </trkpt>
      <trkpt lat="46.48709" lon="5.35865">
        <ele>230</ele>
        <time>2022-01-10T13:12:41Z</time>
      </trkpt>
      <trkpt lat="46.48741" lon="5.3579">
        <ele>228.6</ele>
        <time>2022-01-10T13:12:49Z</time>
      </trkpt>
      <trkpt lat="46.48745" lon="5.35781">
        <ele>228.6</ele>
        <time>2022-01-10T13:12:50Z</time>
      </trkpt>
      <trkpt lat="46.48776" lon="5.35709">
        <ele>227.6</ele>
        <time>2022-01-10T13:12:58Z</time>
      </trkpt>
      <trkpt lat="46.48788" lon="5.35683">
        <ele>227.2</ele>
        <time>2022-01-10T13:13:01Z</time>
      </trkpt>
      <trkpt lat="46.48807" lon="5.3564">
        <ele>227</ele>
        <time>2022-01-10T13:13:06Z</time>
      </trkpt>
      <trkpt lat="46.48826" lon="5.35598">
        <ele>227</ele>
        <time>2022-01-10T13:13:11Z</time>
      </trkpt>
      <trkpt lat="46.48836" lon="5.35574">
        <ele>227.2</ele>
        <time>2022-01-10T13:13:14Z</time>
      </trkpt>
      <trkpt lat="46.48847" lon="5.35563">
        <ele>227.2</ele>
        <time>2022-01-10T13:13:16Z</time>
      </trkpt>
      <trkpt lat="46.4886" lon="5.35559">
        <ele>227</ele>
        <time>2022-01-10T13:13:18Z</time>
      </trkpt>
      <trkpt lat="46.48869" lon="5.35558">
        <ele>227</ele>
        <time>2022-01-10T13:13:19Z</time>
      </trkpt>
      <trkpt lat="46.48921" lon="5.35557">
        <ele>226.4</ele>
        <time>2022-01-10T13:13:26Z</time>
      </trkpt>
      <trkpt lat="46.48929" lon="5.35557">
        <ele>226.4</ele>
        <time>2022-01-10T13:13:27Z</time>
      </trkpt>
      <trkpt lat="46.48985" lon="5.35555">
        <ele>225</ele>
        <time>2022-01-10T13:13:34Z</time>
      </trkpt>
      <trkpt lat="46.49045" lon="5.35552">
        <ele>224.2</ele>
        <time>2022-01-10T13:13:42Z</time>
      </trkpt>
      <trkpt lat="46.49059" lon="5.35551">
        <ele>224</ele>
        <time>2022-01-10T13:13:44Z</time>
      </trkpt>
      <trkpt lat="46.49101" lon="5.3555">
        <ele>224.4</ele>
        <time>2022-01-10T13:13:51Z</time>
      </trkpt>
      <trkpt lat="46.4914" lon="5.35549">
        <ele>225.2</ele>
        <time>2022-01-10T13:13:57Z</time>
      </trkpt>
      <trkpt lat="46.49152" lon="5.35548">
        <ele>225.6</ele>
        <time>2022-01-10T13:13:59Z</time>
      </trkpt>
      <trkpt lat="46.49162" lon="5.35547">
        <ele>226</ele>
        <time>2022-01-10T13:14:01Z</time>
      </trkpt>
      <trkpt lat="46.49167" lon="5.35547">
        <ele>226.2</ele>
        <time>2022-01-10T13:14:02Z</time>
      </trkpt>
      <trkpt lat="46.49195" lon="5.35544">
        <ele>226.8</ele>
        <time>2022-01-10T13:14:07Z</time>
      </trkpt>
      <trkpt lat="46.49201" lon="5.35544">
        <ele>227</ele>
        <time>2022-01-10T13:14:08Z</time>
      </trkpt>
      <trkpt lat="46.49228" lon="5.35542">
        <ele>227.8</ele>
        <time>2022-01-10T13:14:12Z</time>
      </trkpt>
      <trkpt lat="46.49235" lon="5.35541">
        <ele>228</ele>
        <time>2022-01-10T13:14:13Z</time>
      </trkpt>
      <trkpt lat="46.49272" lon="5.35539">
        <ele>228.4</ele>
        <time>2022-01-10T13:14:19Z</time>
      </trkpt>
      <trkpt lat="46.49329" lon="5.35533">
        <ele>228</ele>
        <time>2022-01-10T13:14:28Z</time>
      </trkpt>
      <trkpt lat="46.49336" lon="5.35533">
        <ele>228</ele>
        <time>2022-01-10T13:14:29Z</time>
      </trkpt>
      <trkpt lat="46.49386" lon="5.35534">
        <ele>227.6</ele>
        <time>2022-01-10T13:14:36Z</time>
      </trkpt>
      <trkpt lat="46.4942" lon="5.35544">
        <ele>226.8</ele>
        <time>2022-01-10T13:14:41Z</time>
      </trkpt>
      <trkpt lat="46.49426" lon="5.35547">
        <ele>226.6</ele>
        <time>2022-01-10T13:14:42Z</time>
      </trkpt>
      <trkpt lat="46.49471" lon="5.35566">
        <ele>226</ele>
        <time>2022-01-10T13:14:49Z</time>
      </trkpt>
      <trkpt lat="46.49524" lon="5.3559">
        <ele>226</ele>
        <time>2022-01-10T13:14:58Z</time>
      </trkpt>
      <trkpt lat="46.4953" lon="5.35593">
        <ele>226</ele>
        <time>2022-01-10T13:14:59Z</time>
      </trkpt>
      <trkpt lat="46.49537" lon="5.35595">
        <ele>225.6</ele>
        <time>2022-01-10T13:15:00Z</time>
      </trkpt>
      <trkpt lat="46.49568" lon="5.35607">
        <ele>225</ele>
        <time>2022-01-10T13:15:05Z</time>
      </trkpt>
      <trkpt lat="46.49581" lon="5.35611">
        <ele>224.6</ele>
        <time>2022-01-10T13:15:07Z</time>
      </trkpt>
      <trkpt lat="46.49587" lon="5.35613">
        <ele>224.4</ele>
        <time>2022-01-10T13:15:08Z</time>
      </trkpt>
      <trkpt lat="46.49644" lon="5.35632">
        <ele>223.8</ele>
        <time>2022-01-10T13:15:17Z</time>
      </trkpt>
      <trkpt lat="46.49649" lon="5.35633">
        <ele>223.6</ele>
        <time>2022-01-10T13:15:18Z</time>
      </trkpt>
      <trkpt lat="46.49655" lon="5.35635">
        <ele>223.4</ele>
        <time>2022-01-10T13:15:19Z</time>
      </trkpt>
      <trkpt lat="46.49695" lon="5.35647">
        <ele>222.4</ele>
        <time>2022-01-10T13:15:26Z</time>
      </trkpt>
      <trkpt lat="46.49704" lon="5.35642">
        <ele>221.4</ele>
        <time>2022-01-10T13:15:29Z</time>
      </trkpt>
      <trkpt lat="46.49706" lon="5.35637">
        <ele>221</ele>
        <time>2022-01-10T13:15:30Z</time>
      </trkpt>
      <trkpt lat="46.49707" lon="5.3563">
        <ele>220.8</ele>
        <time>2022-01-10T13:15:31Z</time>
      </trkpt>
      <trkpt lat="46.49708" lon="5.35622">
        <ele>220.8</ele>
        <time>2022-01-10T13:15:32Z</time>
      </trkpt>
      <trkpt lat="46.49713" lon="5.35597">
        <ele>220</ele>
        <time>2022-01-10T13:15:35Z</time>
      </trkpt>
      <trkpt lat="46.49714" lon="5.35587">
        <ele>220</ele>
        <time>2022-01-10T13:15:36Z</time>
      </trkpt>
      <trkpt lat="46.4972" lon="5.35529">
        <ele>219.8</ele>
        <time>2022-01-10T13:15:42Z</time>
      </trkpt>
      <trkpt lat="46.49722" lon="5.3551">
        <ele>219.8</ele>
        <time>2022-01-10T13:15:44Z</time>
      </trkpt>
      <trkpt lat="46.49732" lon="5.35428">
        <ele>219.4</ele>
        <time>2022-01-10T13:15:52Z</time>
      </trkpt>
      <trkpt lat="46.49733" lon="5.35417">
        <ele>219.2</ele>
        <time>2022-01-10T13:15:53Z</time>
      </trkpt>
      <trkpt lat="46.49735" lon="5.35396">
        <ele>219</ele>
        <time>2022-01-10T13:15:55Z</time>
      </trkpt>
      <trkpt lat="46.49737" lon="5.3534">
        <ele>218.2</ele>
        <time>2022-01-10T13:16:00Z</time>
      </trkpt>
      <trkpt lat="46.49735" lon="5.35319">
        <ele>218</ele>
        <time>2022-01-10T13:16:02Z</time>
      </trkpt>
      <trkpt lat="46.4973" lon="5.3529">
        <ele>217.6</ele>
        <time>2022-01-10T13:16:05Z</time>
      </trkpt>
      <trkpt lat="46.49717" lon="5.35229">
        <ele>218.2</ele>
        <time>2022-01-10T13:16:12Z</time>
      </trkpt>
      <trkpt lat="46.49701" lon="5.35154">
        <ele>218.8</ele>
        <time>2022-01-10T13:16:20Z</time>
      </trkpt>
      <trkpt lat="46.49699" lon="5.35144">
        <ele>218.8</ele>
        <time>2022-01-10T13:16:21Z</time>
      </trkpt>
      <trkpt lat="46.49688" lon="5.35093">
        <ele>218.6</ele>
        <time>2022-01-10T13:16:26Z</time>
      </trkpt>
      <trkpt lat="46.49674" lon="5.35029">
        <ele>218.4</ele>
        <time>2022-01-10T13:16:33Z</time>
      </trkpt>
      <trkpt lat="46.49669" lon="5.35004">
        <ele>218.8</ele>
        <time>2022-01-10T13:16:36Z</time>
      </trkpt>
      <trkpt lat="46.49663" lon="5.34971">
        <ele>219.6</ele>
        <time>2022-01-10T13:16:40Z</time>
      </trkpt>
      <trkpt lat="46.49659" lon="5.34948">
        <ele>219.8</ele>
        <time>2022-01-10T13:16:43Z</time>
      </trkpt>
      <trkpt lat="46.49649" lon="5.349">
        <ele>220.6</ele>
        <time>2022-01-10T13:16:49Z</time>
      </trkpt>
      <trkpt lat="46.49634" lon="5.3482">
        <ele>220.6</ele>
        <time>2022-01-10T13:16:58Z</time>
      </trkpt>
      <trkpt lat="46.49629" lon="5.34766">
        <ele>220</ele>
        <time>2022-01-10T13:17:03Z</time>
      </trkpt>
      <trkpt lat="46.4963" lon="5.34703">
        <ele>218.6</ele>
        <time>2022-01-10T13:17:08Z</time>
      </trkpt>
      <trkpt lat="46.49632" lon="5.3469">
        <ele>218.4</ele>
        <time>2022-01-10T13:17:09Z</time>
      </trkpt>
      <trkpt lat="46.49635" lon="5.34651">
        <ele>217.4</ele>
        <time>2022-01-10T13:17:12Z</time>
      </trkpt>
      <trkpt lat="46.49638" lon="5.34623">
        <ele>216.6</ele>
        <time>2022-01-10T13:17:14Z</time>
      </trkpt>
      <trkpt lat="46.4964" lon="5.3461">
        <ele>216</ele>
        <time>2022-01-10T13:17:15Z</time>
      </trkpt>
      <trkpt lat="46.49646" lon="5.34568">
        <ele>215</ele>
        <time>2022-01-10T13:17:18Z</time>
      </trkpt>
      <trkpt lat="46.49651" lon="5.34543">
        <ele>213.8</ele>
        <time>2022-01-10T13:17:20Z</time>
      </trkpt>
      <trkpt lat="46.49653" lon="5.34531">
        <ele>213.2</ele>
        <time>2022-01-10T13:17:21Z</time>
      </trkpt>
      <trkpt lat="46.49668" lon="5.3447">
        <ele>212.8</ele>
        <time>2022-01-10T13:17:27Z</time>
      </trkpt>
      <trkpt lat="46.49683" lon="5.34421">
        <ele>213.6</ele>
        <time>2022-01-10T13:17:33Z</time>
      </trkpt>
      <trkpt lat="46.49696" lon="5.34376">
        <ele>214.2</ele>
        <time>2022-01-10T13:17:39Z</time>
      </trkpt>
      <trkpt lat="46.49704" lon="5.34348">
        <ele>214.8</ele>
        <time>2022-01-10T13:17:43Z</time>
      </trkpt>
      <trkpt lat="46.49708" lon="5.34335">
        <ele>215.4</ele>
        <time>2022-01-10T13:17:45Z</time>
      </trkpt>
      <trkpt lat="46.4971" lon="5.34328">
        <ele>215.6</ele>
        <time>2022-01-10T13:17:46Z</time>
      </trkpt>
      <trkpt lat="46.49713" lon="5.34322">
        <ele>216</ele>
        <time>2022-01-10T13:17:47Z</time>
      </trkpt>
      <trkpt lat="46.49725" lon="5.34294">
        <ele>216.6</ele>
        <time>2022-01-10T13:17:51Z</time>
      </trkpt>
      <trkpt lat="46.4974" lon="5.34265">
        <ele>217</ele>
        <time>2022-01-10T13:17:55Z</time>
      </trkpt>
      <trkpt lat="46.49754" lon="5.34244">
        <ele>217.2</ele>
        <time>2022-01-10T13:17:58Z</time>
      </trkpt>
      <trkpt lat="46.49775" lon="5.3421">
        <ele>217.2</ele>
        <time>2022-01-10T13:18:03Z</time>
      </trkpt>
      <trkpt lat="46.49779" lon="5.34203">
        <ele>217.2</ele>
        <time>2022-01-10T13:18:04Z</time>
      </trkpt>
      <trkpt lat="46.49803" lon="5.34163">
        <ele>217.4</ele>
        <time>2022-01-10T13:18:10Z</time>
      </trkpt>
      <trkpt lat="46.4984" lon="5.34105">
        <ele>217.6</ele>
        <time>2022-01-10T13:18:19Z</time>
      </trkpt>
      <trkpt lat="46.49844" lon="5.34098">
        <ele>217.6</ele>
        <time>2022-01-10T13:18:20Z</time>
      </trkpt>
      <trkpt lat="46.49883" lon="5.34045">
        <ele>217.6</ele>
        <time>2022-01-10T13:18:28Z</time>
      </trkpt>
      <trkpt lat="46.49912" lon="5.34012">
        <ele>217.4</ele>
        <time>2022-01-10T13:18:34Z</time>
      </trkpt>
      <trkpt lat="46.49942" lon="5.33979">
        <ele>217.8</ele>
        <time>2022-01-10T13:18:41Z</time>
      </trkpt>
      <trkpt lat="46.49962" lon="5.33958">
        <ele>219</ele>
        <time>2022-01-10T13:18:46Z</time>
      </trkpt>
      <trkpt lat="46.49971" lon="5.33949">
        <ele>219.2</ele>
        <time>2022-01-10T13:18:48Z</time>
      </trkpt>
      <trkpt lat="46.50001" lon="5.33918">
        <ele>220.2</ele>
        <time>2022-01-10T13:18:54Z</time>
      </trkpt>
      <trkpt lat="46.50044" lon="5.33871">
        <ele>220.2</ele>
        <time>2022-01-10T13:19:02Z</time>
      </trkpt>
      <trkpt lat="46.50084" lon="5.33826">
        <ele>219.8</ele>
        <time>2022-01-10T13:19:09Z</time>
      </trkpt>
      <trkpt lat="46.50109" lon="5.33801">
        <ele>218.8</ele>
        <time>2022-01-10T13:19:13Z</time>
      </trkpt>
      <trkpt lat="46.50133" lon="5.33774">
        <ele>218.2</ele>
        <time>2022-01-10T13:19:17Z</time>
      </trkpt>
      <trkpt lat="46.50165" lon="5.33738">
        <ele>217.8</ele>
        <time>2022-01-10T13:19:23Z</time>
      </trkpt>
      <trkpt lat="46.5019" lon="5.3371">
        <ele>217.8</ele>
        <time>2022-01-10T13:19:28Z</time>
      </trkpt>
      <trkpt lat="46.50221" lon="5.33678">
        <ele>218</ele>
        <time>2022-01-10T13:19:34Z</time>
      </trkpt>
      <trkpt lat="46.50258" lon="5.33639">
        <ele>218</ele>
        <time>2022-01-10T13:19:41Z</time>
      </trkpt>
      <trkpt lat="46.50291" lon="5.33604">
        <ele>217.6</ele>
        <time>2022-01-10T13:19:47Z</time>
      </trkpt>
      <trkpt lat="46.50301" lon="5.33591">
        <ele>217.4</ele>
        <time>2022-01-10T13:19:49Z</time>
      </trkpt>
      <trkpt lat="46.50347" lon="5.33545">
        <ele>216.8</ele>
        <time>2022-01-10T13:19:57Z</time>
      </trkpt>
      <trkpt lat="46.50352" lon="5.33539">
        <ele>216.6</ele>
        <time>2022-01-10T13:19:58Z</time>
      </trkpt>
      <trkpt lat="46.50364" lon="5.33527">
        <ele>216.6</ele>
        <time>2022-01-10T13:20:00Z</time>
      </trkpt>
      <trkpt lat="46.50398" lon="5.3349">
        <ele>216</ele>
        <time>2022-01-10T13:20:06Z</time>
      </trkpt>
      <trkpt lat="46.50432" lon="5.33451">
        <ele>215.2</ele>
        <time>2022-01-10T13:20:12Z</time>
      </trkpt>
      <trkpt lat="46.50443" lon="5.33437">
        <ele>215</ele>
        <time>2022-01-10T13:20:14Z</time>
      </trkpt>
      <trkpt lat="46.50448" lon="5.3343">
        <ele>215</ele>
        <time>2022-01-10T13:20:15Z</time>
      </trkpt>
      <trkpt lat="46.50456" lon="5.33413">
        <ele>214.6</ele>
        <time>2022-01-10T13:20:17Z</time>
      </trkpt>
      <trkpt lat="46.50462" lon="5.33393">
        <ele>214</ele>
        <time>2022-01-10T13:20:19Z</time>
      </trkpt>
      <trkpt lat="46.50466" lon="5.33372">
        <ele>213.8</ele>
        <time>2022-01-10T13:20:21Z</time>
      </trkpt>
      <trkpt lat="46.50469" lon="5.33342">
        <ele>213.6</ele>
        <time>2022-01-10T13:20:24Z</time>
      </trkpt>
      <trkpt lat="46.5047" lon="5.33313">
        <ele>213.6</ele>
        <time>2022-01-10T13:20:27Z</time>
      </trkpt>
      <trkpt lat="46.50471" lon="5.33305">
        <ele>213.6</ele>
        <time>2022-01-10T13:20:28Z</time>
      </trkpt>
      <trkpt lat="46.50472" lon="5.33299">
        <ele>213.6</ele>
        <time>2022-01-10T13:20:29Z</time>
      </trkpt>
      <trkpt lat="46.50471" lon="5.3329">
        <ele>213.6</ele>
        <time>2022-01-10T13:20:30Z</time>
      </trkpt>
      <trkpt lat="46.50471" lon="5.33279">
        <ele>213.4</ele>
        <time>2022-01-10T13:20:31Z</time>
      </trkpt>
      <trkpt lat="46.5047" lon="5.3327">
        <ele>213.4</ele>
        <time>2022-01-10T13:20:32Z</time>
      </trkpt>
      <trkpt lat="46.50469" lon="5.33252">
        <ele>213.6</ele>
        <time>2022-01-10T13:20:34Z</time>
      </trkpt>
      <trkpt lat="46.50469" lon="5.33232">
        <ele>213.6</ele>
        <time>2022-01-10T13:20:36Z</time>
      </trkpt>
      <trkpt lat="46.50469" lon="5.33204">
        <ele>213.6</ele>
        <time>2022-01-10T13:20:39Z</time>
      </trkpt>
      <trkpt lat="46.50469" lon="5.33195">
        <ele>213.6</ele>
        <time>2022-01-10T13:20:40Z</time>
      </trkpt>
      <trkpt lat="46.5047" lon="5.33176">
        <ele>213.6</ele>
        <time>2022-01-10T13:20:42Z</time>
      </trkpt>
      <trkpt lat="46.50471" lon="5.3311">
        <ele>213.2</ele>
        <time>2022-01-10T13:20:48Z</time>
      </trkpt>
      <trkpt lat="46.50471" lon="5.33073">
        <ele>212.6</ele>
        <time>2022-01-10T13:20:51Z</time>
      </trkpt>
      <trkpt lat="46.50471" lon="5.33034">
        <ele>211.6</ele>
        <time>2022-01-10T13:20:54Z</time>
      </trkpt>
      <trkpt lat="46.50472" lon="5.3302">
        <ele>211.2</ele>
        <time>2022-01-10T13:20:55Z</time>
      </trkpt>
      <trkpt lat="46.50473" lon="5.32978">
        <ele>210</ele>
        <time>2022-01-10T13:20:58Z</time>
      </trkpt>
      <trkpt lat="46.50473" lon="5.3295">
        <ele>209</ele>
        <time>2022-01-10T13:21:00Z</time>
      </trkpt>
      <trkpt lat="46.50474" lon="5.32922">
        <ele>208</ele>
        <time>2022-01-10T13:21:02Z</time>
      </trkpt>
      <trkpt lat="46.50474" lon="5.32908">
        <ele>207.8</ele>
        <time>2022-01-10T13:21:03Z</time>
      </trkpt>
      <trkpt lat="46.50475" lon="5.3288">
        <ele>206.4</ele>
        <time>2022-01-10T13:21:05Z</time>
      </trkpt>
      <trkpt lat="46.50476" lon="5.32837">
        <ele>205.4</ele>
        <time>2022-01-10T13:21:08Z</time>
      </trkpt>
      <trkpt lat="46.50476" lon="5.32795">
        <ele>203.8</ele>
        <time>2022-01-10T13:21:11Z</time>
      </trkpt>
      <trkpt lat="46.50477" lon="5.32781">
        <ele>203.4</ele>
        <time>2022-01-10T13:21:12Z</time>
      </trkpt>
      <trkpt lat="46.50477" lon="5.32755">
        <ele>202.8</ele>
        <time>2022-01-10T13:21:14Z</time>
      </trkpt>
      <trkpt lat="46.50478" lon="5.32717">
        <ele>201.6</ele>
        <time>2022-01-10T13:21:17Z</time>
      </trkpt>
      <trkpt lat="46.50478" lon="5.32705">
        <ele>201.4</ele>
        <time>2022-01-10T13:21:18Z</time>
      </trkpt>
      <trkpt lat="46.50479" lon="5.32629">
        <ele>200.4</ele>
        <time>2022-01-10T13:21:24Z</time>
      </trkpt>
      <trkpt lat="46.50478" lon="5.32592">
        <ele>199.8</ele>
        <time>2022-01-10T13:21:27Z</time>
      </trkpt>
      <trkpt lat="46.50475" lon="5.32519">
        <ele>199.2</ele>
        <time>2022-01-10T13:21:33Z</time>
      </trkpt>
      <trkpt lat="46.50473" lon="5.32484">
        <ele>198.4</ele>
        <time>2022-01-10T13:21:36Z</time>
      </trkpt>
      <trkpt lat="46.5047" lon="5.3246">
        <ele>198</ele>
        <time>2022-01-10T13:21:38Z</time>
      </trkpt>
      <trkpt lat="46.50461" lon="5.32402">
        <ele>197</ele>
        <time>2022-01-10T13:21:43Z</time>
      </trkpt>
      <trkpt lat="46.50444" lon="5.32324">
        <ele>196.6</ele>
        <time>2022-01-10T13:21:50Z</time>
      </trkpt>
      <trkpt lat="46.50442" lon="5.32314">
        <ele>196.6</ele>
        <time>2022-01-10T13:21:51Z</time>
      </trkpt>
      <trkpt lat="46.50435" lon="5.32263">
        <ele>196.8</ele>
        <time>2022-01-10T13:21:56Z</time>
      </trkpt>
      <trkpt lat="46.50435" lon="5.32252">
        <ele>196.8</ele>
        <time>2022-01-10T13:21:57Z</time>
      </trkpt>
      <trkpt lat="46.50435" lon="5.32209">
        <ele>196.6</ele>
        <time>2022-01-10T13:22:01Z</time>
      </trkpt>
      <trkpt lat="46.50438" lon="5.322">
        <ele>196.4</ele>
        <time>2022-01-10T13:22:02Z</time>
      </trkpt>
      <trkpt lat="46.50443" lon="5.32192">
        <ele>196.4</ele>
        <time>2022-01-10T13:22:03Z</time>
      </trkpt>
      <trkpt lat="46.50454" lon="5.32181">
        <ele>196.4</ele>
        <time>2022-01-10T13:22:05Z</time>
      </trkpt>
      <trkpt lat="46.50464" lon="5.32167">
        <ele>196.2</ele>
        <time>2022-01-10T13:22:07Z</time>
      </trkpt>
      <trkpt lat="46.50468" lon="5.32158">
        <ele>196.2</ele>
        <time>2022-01-10T13:22:08Z</time>
      </trkpt>
      <trkpt lat="46.50489" lon="5.32096">
        <ele>196.2</ele>
        <time>2022-01-10T13:22:15Z</time>
      </trkpt>
      <trkpt lat="46.50521" lon="5.32036">
        <ele>196.4</ele>
        <time>2022-01-10T13:22:23Z</time>
      </trkpt>
      <trkpt lat="46.5055" lon="5.31994">
        <ele>196.6</ele>
        <time>2022-01-10T13:22:30Z</time>
      </trkpt>
      <trkpt lat="46.50557" lon="5.31981">
        <ele>196.4</ele>
        <time>2022-01-10T13:22:32Z</time>
      </trkpt>
      <trkpt lat="46.50563" lon="5.31962">
        <ele>196.8</ele>
        <time>2022-01-10T13:22:35Z</time>
      </trkpt>
      <trkpt lat="46.50571" lon="5.31937">
        <ele>197.8</ele>
        <time>2022-01-10T13:22:39Z</time>
      </trkpt>
      <trkpt lat="46.50577" lon="5.3192">
        <ele>198.4</ele>
        <time>2022-01-10T13:22:42Z</time>
      </trkpt>
      <trkpt lat="46.50582" lon="5.3191">
        <ele>199.2</ele>
        <time>2022-01-10T13:22:44Z</time>
      </trkpt>
      <trkpt lat="46.50591" lon="5.31888">
        <ele>200.6</ele>
        <time>2022-01-10T13:22:48Z</time>
      </trkpt>
      <trkpt lat="46.50593" lon="5.31882">
        <ele>200.6</ele>
        <time>2022-01-10T13:22:49Z</time>
      </trkpt>
      <trkpt lat="46.50601" lon="5.3186">
        <ele>202</ele>
        <time>2022-01-10T13:22:53Z</time>
      </trkpt>
      <trkpt lat="46.50606" lon="5.31845">
        <ele>202.4</ele>
        <time>2022-01-10T13:22:56Z</time>
      </trkpt>
      <trkpt lat="46.50615" lon="5.31823">
        <ele>203.2</ele>
        <time>2022-01-10T13:23:00Z</time>
      </trkpt>
      <trkpt lat="46.50618" lon="5.31811">
        <ele>203.6</ele>
        <time>2022-01-10T13:23:02Z</time>
      </trkpt>
      <trkpt lat="46.5062" lon="5.31805">
        <ele>203.6</ele>
        <time>2022-01-10T13:23:03Z</time>
      </trkpt>
      <trkpt lat="46.50625" lon="5.31793">
        <ele>204.2</ele>
        <time>2022-01-10T13:23:05Z</time>
      </trkpt>
      <trkpt lat="46.50627" lon="5.31786">
        <ele>204.6</ele>
        <time>2022-01-10T13:23:06Z</time>
      </trkpt>
      <trkpt lat="46.50635" lon="5.31765">
        <ele>205</ele>
        <time>2022-01-10T13:23:09Z</time>
      </trkpt>
      <trkpt lat="46.5064" lon="5.31752">
        <ele>205.2</ele>
        <time>2022-01-10T13:23:11Z</time>
      </trkpt>
      <trkpt lat="46.50654" lon="5.31727">
        <ele>205.6</ele>
        <time>2022-01-10T13:23:15Z</time>
      </trkpt>
      <trkpt lat="46.50663" lon="5.31719">
        <ele>205.6</ele>
        <time>2022-01-10T13:23:17Z</time>
      </trkpt>
      <trkpt lat="46.50673" lon="5.31715">
        <ele>205.6</ele>
        <time>2022-01-10T13:23:19Z</time>
      </trkpt>
      <trkpt lat="46.50712" lon="5.3171">
        <ele>205.8</ele>
        <time>2022-01-10T13:23:26Z</time>
      </trkpt>
      <trkpt lat="46.50765" lon="5.31705">
        <ele>205.8</ele>
        <time>2022-01-10T13:23:35Z</time>
      </trkpt>
      <trkpt lat="46.50776" lon="5.31708">
        <ele>205.8</ele>
        <time>2022-01-10T13:23:37Z</time>
      </trkpt>
      <trkpt lat="46.50792" lon="5.31717">
        <ele>205.8</ele>
        <time>2022-01-10T13:23:40Z</time>
      </trkpt>
      <trkpt lat="46.50824" lon="5.31743">
        <ele>206</ele>
        <time>2022-01-10T13:23:47Z</time>
      </trkpt>
      <trkpt lat="46.5083" lon="5.31746">
        <ele>206</ele>
        <time>2022-01-10T13:23:48Z</time>
      </trkpt>
      <trkpt lat="46.5084" lon="5.31747">
        <ele>206.2</ele>
        <time>2022-01-10T13:23:50Z</time>
      </trkpt>
      <trkpt lat="46.50846" lon="5.31746">
        <ele>206.2</ele>
        <time>2022-01-10T13:23:51Z</time>
      </trkpt>
      <trkpt lat="46.5085" lon="5.31745">
        <ele>206.4</ele>
        <time>2022-01-10T13:23:52Z</time>
      </trkpt>
      <trkpt lat="46.50855" lon="5.31742">
        <ele>206.4</ele>
        <time>2022-01-10T13:23:53Z</time>
      </trkpt>
      <trkpt lat="46.50863" lon="5.31735">
        <ele>206.8</ele>
        <time>2022-01-10T13:23:55Z</time>
      </trkpt>
      <trkpt lat="46.50906" lon="5.31686">
        <ele>207</ele>
        <time>2022-01-10T13:24:05Z</time>
      </trkpt>
      <trkpt lat="46.50938" lon="5.31653">
        <ele>206.6</ele>
        <time>2022-01-10T13:24:11Z</time>
      </trkpt>
      <trkpt lat="46.50984" lon="5.31605">
        <ele>205.4</ele>
        <time>2022-01-10T13:24:19Z</time>
      </trkpt>
      <trkpt lat="46.51019" lon="5.31569">
        <ele>205.4</ele>
        <time>2022-01-10T13:24:26Z</time>
      </trkpt>
      <trkpt lat="46.51031" lon="5.31552">
        <ele>205.6</ele>
        <time>2022-01-10T13:24:29Z</time>
      </trkpt>
      <trkpt lat="46.51041" lon="5.31528">
        <ele>205.6</ele>
        <time>2022-01-10T13:24:32Z</time>
      </trkpt>
      <trkpt lat="46.51053" lon="5.3148">
        <ele>205.2</ele>
        <time>2022-01-10T13:24:37Z</time>
      </trkpt>
      <trkpt lat="46.51058" lon="5.31459">
        <ele>204.8</ele>
        <time>2022-01-10T13:24:39Z</time>
      </trkpt>
      <trkpt lat="46.51064" lon="5.31425">
        <ele>203.6</ele>
        <time>2022-01-10T13:24:42Z</time>
      </trkpt>
      <trkpt lat="46.51071" lon="5.31367">
        <ele>202.6</ele>
        <time>2022-01-10T13:24:47Z</time>
      </trkpt>
      <trkpt lat="46.51069" lon="5.31332">
        <ele>201.6</ele>
        <time>2022-01-10T13:24:50Z</time>
      </trkpt>
      <trkpt lat="46.5107" lon="5.31321">
        <ele>201.2</ele>
        <time>2022-01-10T13:24:51Z</time>
      </trkpt>
      <trkpt lat="46.51073" lon="5.3131">
        <ele>201</ele>
        <time>2022-01-10T13:24:52Z</time>
      </trkpt>
      <trkpt lat="46.51081" lon="5.31288">
        <ele>200.8</ele>
        <time>2022-01-10T13:24:54Z</time>
      </trkpt>
      <trkpt lat="46.511" lon="5.31264">
        <ele>199.6</ele>
        <time>2022-01-10T13:24:57Z</time>
      </trkpt>
      <trkpt lat="46.51124" lon="5.31236">
        <ele>198.2</ele>
        <time>2022-01-10T13:25:00Z</time>
      </trkpt>
      <trkpt lat="46.51145" lon="5.3121">
        <ele>197.2</ele>
        <time>2022-01-10T13:25:03Z</time>
      </trkpt>
      <trkpt lat="46.51151" lon="5.31202">
        <ele>196.8</ele>
        <time>2022-01-10T13:25:04Z</time>
      </trkpt>
      <trkpt lat="46.51172" lon="5.31179">
        <ele>196.2</ele>
        <time>2022-01-10T13:25:07Z</time>
      </trkpt>
      <trkpt lat="46.51189" lon="5.31157">
        <ele>195.8</ele>
        <time>2022-01-10T13:25:10Z</time>
      </trkpt>
      <trkpt lat="46.51218" lon="5.31121">
        <ele>195</ele>
        <time>2022-01-10T13:25:15Z</time>
      </trkpt>
      <trkpt lat="46.51241" lon="5.31094">
        <ele>194.4</ele>
        <time>2022-01-10T13:25:18Z</time>
      </trkpt>
      <trkpt lat="46.51248" lon="5.3109">
        <ele>194.2</ele>
        <time>2022-01-10T13:25:19Z</time>
      </trkpt>
      <trkpt lat="46.51255" lon="5.31085">
        <ele>194</ele>
        <time>2022-01-10T13:25:20Z</time>
      </trkpt>
      <trkpt lat="46.51265" lon="5.3108">
        <ele>194</ele>
        <time>2022-01-10T13:25:21Z</time>
      </trkpt>
      <trkpt lat="46.51288" lon="5.31076">
        <ele>193.2</ele>
        <time>2022-01-10T13:25:24Z</time>
      </trkpt>
      <trkpt lat="46.51306" lon="5.31076">
        <ele>193</ele>
        <time>2022-01-10T13:25:26Z</time>
      </trkpt>
      <trkpt lat="46.51352" lon="5.31073">
        <ele>193</ele>
        <time>2022-01-10T13:25:33Z</time>
      </trkpt>
      <trkpt lat="46.51396" lon="5.31072">
        <ele>193.6</ele>
        <time>2022-01-10T13:25:40Z</time>
      </trkpt>
      <trkpt lat="46.51455" lon="5.3107">
        <ele>193.4</ele>
        <time>2022-01-10T13:25:50Z</time>
      </trkpt>
      <trkpt lat="46.51508" lon="5.31073">
        <ele>193</ele>
        <time>2022-01-10T13:25:59Z</time>
      </trkpt>
      <trkpt lat="46.51566" lon="5.31076">
        <ele>192.6</ele>
        <time>2022-01-10T13:26:09Z</time>
      </trkpt>
      <trkpt lat="46.5157" lon="5.31077">
        <ele>192.6</ele>
        <time>2022-01-10T13:26:10Z</time>
      </trkpt>
      <trkpt lat="46.51615" lon="5.31092">
        <ele>193</ele>
        <time>2022-01-10T13:26:18Z</time>
      </trkpt>
      <trkpt lat="46.5163" lon="5.31099">
        <ele>193.2</ele>
        <time>2022-01-10T13:26:21Z</time>
      </trkpt>
      <trkpt lat="46.51643" lon="5.31102">
        <ele>193.4</ele>
        <time>2022-01-10T13:26:24Z</time>
      </trkpt>
      <trkpt lat="46.51648" lon="5.31103">
        <ele>193.4</ele>
        <time>2022-01-10T13:26:25Z</time>
      </trkpt>
      <trkpt lat="46.51657" lon="5.31102">
        <ele>193.8</ele>
        <time>2022-01-10T13:26:27Z</time>
      </trkpt>
      <trkpt lat="46.51666" lon="5.31102">
        <ele>194.2</ele>
        <time>2022-01-10T13:26:29Z</time>
      </trkpt>
      <trkpt lat="46.51674" lon="5.31108">
        <ele>194.4</ele>
        <time>2022-01-10T13:26:31Z</time>
      </trkpt>
      <trkpt lat="46.51676" lon="5.31112">
        <ele>194.6</ele>
        <time>2022-01-10T13:26:32Z</time>
      </trkpt>
      <trkpt lat="46.51687" lon="5.31134">
        <ele>195</ele>
        <time>2022-01-10T13:26:35Z</time>
      </trkpt>
      <trkpt lat="46.51691" lon="5.3114">
        <ele>195</ele>
        <time>2022-01-10T13:26:36Z</time>
      </trkpt>
      <trkpt lat="46.51695" lon="5.31146">
        <ele>195</ele>
        <time>2022-01-10T13:26:37Z</time>
      </trkpt>
      <trkpt lat="46.51721" lon="5.31171">
        <ele>194.8</ele>
        <time>2022-01-10T13:26:42Z</time>
      </trkpt>
      <trkpt lat="46.51736" lon="5.31178">
        <ele>194.8</ele>
        <time>2022-01-10T13:26:44Z</time>
      </trkpt>
      <trkpt lat="46.51751" lon="5.3118">
        <ele>194.6</ele>
        <time>2022-01-10T13:26:46Z</time>
      </trkpt>
      <trkpt lat="46.51782" lon="5.31182">
        <ele>193.4</ele>
        <time>2022-01-10T13:26:50Z</time>
      </trkpt>
      <trkpt lat="46.51808" lon="5.31182">
        <ele>192</ele>
        <time>2022-01-10T13:26:53Z</time>
      </trkpt>
      <trkpt lat="46.51825" lon="5.31184">
        <ele>191.6</ele>
        <time>2022-01-10T13:26:55Z</time>
      </trkpt>
      <trkpt lat="46.51842" lon="5.3119">
        <ele>190.6</ele>
        <time>2022-01-10T13:26:57Z</time>
      </trkpt>
      <trkpt lat="46.51858" lon="5.312">
        <ele>189.6</ele>
        <time>2022-01-10T13:26:59Z</time>
      </trkpt>
      <trkpt lat="46.5187" lon="5.31212">
        <ele>188.6</ele>
        <time>2022-01-10T13:27:01Z</time>
      </trkpt>
      <trkpt lat="46.51878" lon="5.31222">
        <ele>188.2</ele>
        <time>2022-01-10T13:27:02Z</time>
      </trkpt>
      <trkpt lat="46.51899" lon="5.31253">
        <ele>187.8</ele>
        <time>2022-01-10T13:27:06Z</time>
      </trkpt>
      <trkpt lat="46.51932" lon="5.31302">
        <ele>187.4</ele>
        <time>2022-01-10T13:27:13Z</time>
      </trkpt>
      <trkpt lat="46.51967" lon="5.31354">
        <ele>187.4</ele>
        <time>2022-01-10T13:27:21Z</time>
      </trkpt>
      <trkpt lat="46.52003" lon="5.31407">
        <ele>187.8</ele>
        <time>2022-01-10T13:27:30Z</time>
      </trkpt>
      <trkpt lat="46.52025" lon="5.31441">
        <ele>188.2</ele>
        <time>2022-01-10T13:27:36Z</time>
      </trkpt>
      <trkpt lat="46.52028" lon="5.31447">
        <ele>188.2</ele>
        <time>2022-01-10T13:27:37Z</time>
      </trkpt>
      <trkpt lat="46.52043" lon="5.3147">
        <ele>188.6</ele>
        <time>2022-01-10T13:27:41Z</time>
      </trkpt>
      <trkpt lat="46.52067" lon="5.31505">
        <ele>189.2</ele>
        <time>2022-01-10T13:27:47Z</time>
      </trkpt>
      <trkpt lat="46.52074" lon="5.31515">
        <ele>189.6</ele>
        <time>2022-01-10T13:27:49Z</time>
      </trkpt>
      <trkpt lat="46.52088" lon="5.31532">
        <ele>190.2</ele>
        <time>2022-01-10T13:27:53Z</time>
      </trkpt>
      <trkpt lat="46.52091" lon="5.31538">
        <ele>190.4</ele>
        <time>2022-01-10T13:27:54Z</time>
      </trkpt>
      <trkpt lat="46.52109" lon="5.31565">
        <ele>190.8</ele>
        <time>2022-01-10T13:27:59Z</time>
      </trkpt>
      <trkpt lat="46.52112" lon="5.3157">
        <ele>191</ele>
        <time>2022-01-10T13:28:00Z</time>
      </trkpt>
      <trkpt lat="46.52116" lon="5.31575">
        <ele>191.2</ele>
        <time>2022-01-10T13:28:01Z</time>
      </trkpt>
      <trkpt lat="46.52127" lon="5.3159">
        <ele>191.8</ele>
        <time>2022-01-10T13:28:04Z</time>
      </trkpt>
      <trkpt lat="46.52134" lon="5.316">
        <ele>192.4</ele>
        <time>2022-01-10T13:28:06Z</time>
      </trkpt>
      <trkpt lat="46.52148" lon="5.31619">
        <ele>193.6</ele>
        <time>2022-01-10T13:28:10Z</time>
      </trkpt>
      <trkpt lat="46.52156" lon="5.31629">
        <ele>194</ele>
        <time>2022-01-10T13:28:12Z</time>
      </trkpt>
      <trkpt lat="46.52169" lon="5.31647">
        <ele>194.6</ele>
        <time>2022-01-10T13:28:16Z</time>
      </trkpt>
      <trkpt lat="46.52182" lon="5.31666">
        <ele>195.2</ele>
        <time>2022-01-10T13:28:20Z</time>
      </trkpt>
      <trkpt lat="46.52191" lon="5.31678">
        <ele>195.6</ele>
        <time>2022-01-10T13:28:23Z</time>
      </trkpt>
      <trkpt lat="46.52214" lon="5.3171">
        <ele>196.6</ele>
        <time>2022-01-10T13:28:30Z</time>
      </trkpt>
      <trkpt lat="46.5224" lon="5.31746">
        <ele>197.6</ele>
        <time>2022-01-10T13:28:38Z</time>
      </trkpt>
      <trkpt lat="46.52251" lon="5.31761">
        <ele>197.8</ele>
        <time>2022-01-10T13:28:41Z</time>
      </trkpt>
      <trkpt lat="46.52269" lon="5.31789">
        <ele>198.6</ele>
        <time>2022-01-10T13:28:47Z</time>
      </trkpt>
      <trkpt lat="46.52273" lon="5.31795">
        <ele>199</ele>
        <time>2022-01-10T13:28:48Z</time>
      </trkpt>
      <trkpt lat="46.52299" lon="5.31831">
        <ele>200</ele>
        <time>2022-01-10T13:28:56Z</time>
      </trkpt>
      <trkpt lat="46.52303" lon="5.31836">
        <ele>200.2</ele>
        <time>2022-01-10T13:28:57Z</time>
      </trkpt>
      <trkpt lat="46.52322" lon="5.31864">
        <ele>200.8</ele>
        <time>2022-01-10T13:29:03Z</time>
      </trkpt>
      <trkpt lat="46.52326" lon="5.31869">
        <ele>201.2</ele>
        <time>2022-01-10T13:29:04Z</time>
      </trkpt>
      <trkpt lat="46.52342" lon="5.31892">
        <ele>202.2</ele>
        <time>2022-01-10T13:29:09Z</time>
      </trkpt>
      <trkpt lat="46.52345" lon="5.31895">
        <ele>202.4</ele>
        <time>2022-01-10T13:29:10Z</time>
      </trkpt>
      <trkpt lat="46.52349" lon="5.31901">
        <ele>202.4</ele>
        <time>2022-01-10T13:29:11Z</time>
      </trkpt>
      <trkpt lat="46.52368" lon="5.31929">
        <ele>203.2</ele>
        <time>2022-01-10T13:29:16Z</time>
      </trkpt>
      <trkpt lat="46.52372" lon="5.31935">
        <ele>203.2</ele>
        <time>2022-01-10T13:29:17Z</time>
      </trkpt>
      <trkpt lat="46.524" lon="5.31974">
        <ele>203</ele>
        <time>2022-01-10T13:29:23Z</time>
      </trkpt>
      <trkpt lat="46.52415" lon="5.31998">
        <ele>202.2</ele>
        <time>2022-01-10T13:29:26Z</time>
      </trkpt>
      <trkpt lat="46.52425" lon="5.32012">
        <ele>202</ele>
        <time>2022-01-10T13:29:28Z</time>
      </trkpt>
      <trkpt lat="46.52451" lon="5.32049">
        <ele>200.6</ele>
        <time>2022-01-10T13:29:33Z</time>
      </trkpt>
      <trkpt lat="46.52458" lon="5.32058">
        <ele>200.2</ele>
        <time>2022-01-10T13:29:34Z</time>
      </trkpt>
      <trkpt lat="46.52468" lon="5.32073">
        <ele>199.4</ele>
        <time>2022-01-10T13:29:36Z</time>
      </trkpt>
      <trkpt lat="46.52495" lon="5.32109">
        <ele>198.4</ele>
        <time>2022-01-10T13:29:41Z</time>
      </trkpt>
      <trkpt lat="46.5251" lon="5.32128">
        <ele>197.6</ele>
        <time>2022-01-10T13:29:44Z</time>
      </trkpt>
      <trkpt lat="46.52516" lon="5.32137">
        <ele>197.2</ele>
        <time>2022-01-10T13:29:45Z</time>
      </trkpt>
      <trkpt lat="46.52537" lon="5.32164">
        <ele>196</ele>
        <time>2022-01-10T13:29:49Z</time>
      </trkpt>
      <trkpt lat="46.52542" lon="5.3217">
        <ele>196</ele>
        <time>2022-01-10T13:29:50Z</time>
      </trkpt>
      <trkpt lat="46.52561" lon="5.32186">
        <ele>195</ele>
        <time>2022-01-10T13:29:53Z</time>
      </trkpt>
      <trkpt lat="46.52566" lon="5.32188">
        <ele>194.4</ele>
        <time>2022-01-10T13:29:54Z</time>
      </trkpt>
      <trkpt lat="46.52571" lon="5.32187">
        <ele>194.2</ele>
        <time>2022-01-10T13:29:55Z</time>
      </trkpt>
      <trkpt lat="46.52575" lon="5.32184">
        <ele>193.8</ele>
        <time>2022-01-10T13:29:56Z</time>
      </trkpt>
      <trkpt lat="46.52581" lon="5.32179">
        <ele>193.6</ele>
        <time>2022-01-10T13:29:57Z</time>
      </trkpt>
      <trkpt lat="46.52593" lon="5.32155">
        <ele>192.6</ele>
        <time>2022-01-10T13:30:01Z</time>
      </trkpt>
      <trkpt lat="46.52596" lon="5.32148">
        <ele>192.6</ele>
        <time>2022-01-10T13:30:02Z</time>
      </trkpt>
      <trkpt lat="46.52614" lon="5.32109">
        <ele>193.2</ele>
        <time>2022-01-10T13:30:09Z</time>
      </trkpt>
      <trkpt lat="46.52616" lon="5.32103">
        <ele>193.4</ele>
        <time>2022-01-10T13:30:10Z</time>
      </trkpt>
      <trkpt lat="46.52621" lon="5.3209">
        <ele>193.8</ele>
        <time>2022-01-10T13:30:12Z</time>
      </trkpt>
      <trkpt lat="46.52627" lon="5.32072">
        <ele>194.2</ele>
        <time>2022-01-10T13:30:15Z</time>
      </trkpt>
      <trkpt lat="46.52638" lon="5.32042">
        <ele>195</ele>
        <time>2022-01-10T13:30:20Z</time>
      </trkpt>
      <trkpt lat="46.52642" lon="5.32031">
        <ele>195.4</ele>
        <time>2022-01-10T13:30:22Z</time>
      </trkpt>
      <trkpt lat="46.52645" lon="5.3202">
        <ele>196.2</ele>
        <time>2022-01-10T13:30:24Z</time>
      </trkpt>
      <trkpt lat="46.52651" lon="5.31999">
        <ele>197</ele>
        <time>2022-01-10T13:30:28Z</time>
      </trkpt>
      <trkpt lat="46.52653" lon="5.31988">
        <ele>197.4</ele>
        <time>2022-01-10T13:30:30Z</time>
      </trkpt>
      <trkpt lat="46.52659" lon="5.31968">
        <ele>198.4</ele>
        <time>2022-01-10T13:30:34Z</time>
      </trkpt>
      <trkpt lat="46.52663" lon="5.31953">
        <ele>199.2</ele>
        <time>2022-01-10T13:30:37Z</time>
      </trkpt>
      <trkpt lat="46.52664" lon="5.31948">
        <ele>199.4</ele>
        <time>2022-01-10T13:30:38Z</time>
      </trkpt>
      <trkpt lat="46.52669" lon="5.31928">
        <ele>200.6</ele>
        <time>2022-01-10T13:30:42Z</time>
      </trkpt>
      <trkpt lat="46.52672" lon="5.31915">
        <ele>201.2</ele>
        <time>2022-01-10T13:30:45Z</time>
      </trkpt>
      <trkpt lat="46.52676" lon="5.31901">
        <ele>201.8</ele>
        <time>2022-01-10T13:30:48Z</time>
      </trkpt>
      <trkpt lat="46.5268" lon="5.31887">
        <ele>202.8</ele>
        <time>2022-01-10T13:30:51Z</time>
      </trkpt>
      <trkpt lat="46.52687" lon="5.31864">
        <ele>203.8</ele>
        <time>2022-01-10T13:30:56Z</time>
      </trkpt>
      <trkpt lat="46.52692" lon="5.31849">
        <ele>204.6</ele>
        <time>2022-01-10T13:30:59Z</time>
      </trkpt>
      <trkpt lat="46.52695" lon="5.31839">
        <ele>204.8</ele>
        <time>2022-01-10T13:31:01Z</time>
      </trkpt>
      <trkpt lat="46.52707" lon="5.3182">
        <ele>205.4</ele>
        <time>2022-01-10T13:31:05Z</time>
      </trkpt>
      <trkpt lat="46.52713" lon="5.31811">
        <ele>205.6</ele>
        <time>2022-01-10T13:31:07Z</time>
      </trkpt>
      <trkpt lat="46.52717" lon="5.31807">
        <ele>206</ele>
        <time>2022-01-10T13:31:08Z</time>
      </trkpt>
      <trkpt lat="46.52724" lon="5.31801">
        <ele>206.2</ele>
        <time>2022-01-10T13:31:10Z</time>
      </trkpt>
      <trkpt lat="46.5277" lon="5.31778">
        <ele>206.6</ele>
        <time>2022-01-10T13:31:20Z</time>
      </trkpt>
      <trkpt lat="46.52787" lon="5.3177">
        <ele>207</ele>
        <time>2022-01-10T13:31:24Z</time>
      </trkpt>
      <trkpt lat="46.52796" lon="5.31766">
        <ele>207.2</ele>
        <time>2022-01-10T13:31:26Z</time>
      </trkpt>
      <trkpt lat="46.528" lon="5.31765">
        <ele>207.2</ele>
        <time>2022-01-10T13:31:27Z</time>
      </trkpt>
      <trkpt lat="46.52835" lon="5.31749">
        <ele>207.2</ele>
        <time>2022-01-10T13:31:34Z</time>
      </trkpt>
      <trkpt lat="46.52869" lon="5.31733">
        <ele>206.8</ele>
        <time>2022-01-10T13:31:40Z</time>
      </trkpt>
      <trkpt lat="46.52901" lon="5.31725">
        <ele>206.2</ele>
        <time>2022-01-10T13:31:45Z</time>
      </trkpt>
      <trkpt lat="46.52919" lon="5.31734">
        <ele>206</ele>
        <time>2022-01-10T13:31:48Z</time>
      </trkpt>
      <trkpt lat="46.52924" lon="5.31738">
        <ele>205.8</ele>
        <time>2022-01-10T13:31:49Z</time>
      </trkpt>
      <trkpt lat="46.52934" lon="5.31747">
        <ele>205.8</ele>
        <time>2022-01-10T13:31:51Z</time>
      </trkpt>
      <trkpt lat="46.52945" lon="5.31756">
        <ele>205.8</ele>
        <time>2022-01-10T13:31:53Z</time>
      </trkpt>
      <trkpt lat="46.52954" lon="5.31764">
        <ele>205.8</ele>
        <time>2022-01-10T13:31:55Z</time>
      </trkpt>
      <trkpt lat="46.52972" lon="5.31776">
        <ele>205.8</ele>
        <time>2022-01-10T13:31:58Z</time>
      </trkpt>
      <trkpt lat="46.52979" lon="5.31779">
        <ele>205.8</ele>
        <time>2022-01-10T13:31:59Z</time>
      </trkpt>
      <trkpt lat="46.52985" lon="5.3178">
        <ele>205.8</ele>
        <time>2022-01-10T13:32:00Z</time>
      </trkpt>
      <trkpt lat="46.52991" lon="5.3178">
        <ele>205.8</ele>
        <time>2022-01-10T13:32:01Z</time>
      </trkpt>
      <trkpt lat="46.52997" lon="5.31777">
        <ele>205.6</ele>
        <time>2022-01-10T13:32:02Z</time>
      </trkpt>
      <trkpt lat="46.5301" lon="5.31766">
        <ele>205.6</ele>
        <time>2022-01-10T13:32:04Z</time>
      </trkpt>
      <trkpt lat="46.5302" lon="5.31751">
        <ele>205.4</ele>
        <time>2022-01-10T13:32:06Z</time>
      </trkpt>
      <trkpt lat="46.53027" lon="5.31736">
        <ele>205</ele>
        <time>2022-01-10T13:32:08Z</time>
      </trkpt>
      <trkpt lat="46.53033" lon="5.31719">
        <ele>204.8</ele>
        <time>2022-01-10T13:32:10Z</time>
      </trkpt>
      <trkpt lat="46.53042" lon="5.31693">
        <ele>204.6</ele>
        <time>2022-01-10T13:32:13Z</time>
      </trkpt>
      <trkpt lat="46.53058" lon="5.31658">
        <ele>203.8</ele>
        <time>2022-01-10T13:32:17Z</time>
      </trkpt>
      <trkpt lat="46.53063" lon="5.3165">
        <ele>203.8</ele>
        <time>2022-01-10T13:32:18Z</time>
      </trkpt>
      <trkpt lat="46.5307" lon="5.31644">
        <ele>203.4</ele>
        <time>2022-01-10T13:32:19Z</time>
      </trkpt>
      <trkpt lat="46.53086" lon="5.31635">
        <ele>202.8</ele>
        <time>2022-01-10T13:32:21Z</time>
      </trkpt>
      <trkpt lat="46.53103" lon="5.31628">
        <ele>202</ele>
        <time>2022-01-10T13:32:23Z</time>
      </trkpt>
      <trkpt lat="46.5312" lon="5.31622">
        <ele>200.8</ele>
        <time>2022-01-10T13:32:25Z</time>
      </trkpt>
      <trkpt lat="46.53137" lon="5.31615">
        <ele>199.8</ele>
        <time>2022-01-10T13:32:27Z</time>
      </trkpt>
      <trkpt lat="46.53145" lon="5.31612">
        <ele>199.2</ele>
        <time>2022-01-10T13:32:28Z</time>
      </trkpt>
      <trkpt lat="46.53179" lon="5.31597">
        <ele>198</ele>
        <time>2022-01-10T13:32:32Z</time>
      </trkpt>
      <trkpt lat="46.53204" lon="5.31585">
        <ele>196.6</ele>
        <time>2022-01-10T13:32:35Z</time>
      </trkpt>
      <trkpt lat="46.5322" lon="5.31577">
        <ele>196</ele>
        <time>2022-01-10T13:32:37Z</time>
      </trkpt>
      <trkpt lat="46.53228" lon="5.31573">
        <ele>195.6</ele>
        <time>2022-01-10T13:32:38Z</time>
      </trkpt>
      <trkpt lat="46.53254" lon="5.31559">
        <ele>194.6</ele>
        <time>2022-01-10T13:32:41Z</time>
      </trkpt>
      <trkpt lat="46.53271" lon="5.31546">
        <ele>193.6</ele>
        <time>2022-01-10T13:32:43Z</time>
      </trkpt>
      <trkpt lat="46.53279" lon="5.3154">
        <ele>192.2</ele>
        <time>2022-01-10T13:32:44Z</time>
      </trkpt>
      <trkpt lat="46.53296" lon="5.31525">
        <ele>190.8</ele>
        <time>2022-01-10T13:32:46Z</time>
      </trkpt>
      <trkpt lat="46.5332" lon="5.31505">
        <ele>189.8</ele>
        <time>2022-01-10T13:32:49Z</time>
      </trkpt>
      <trkpt lat="46.53327" lon="5.31498">
        <ele>189.2</ele>
        <time>2022-01-10T13:32:50Z</time>
      </trkpt>
      <trkpt lat="46.53335" lon="5.31492">
        <ele>188.8</ele>
        <time>2022-01-10T13:32:51Z</time>
      </trkpt>
      <trkpt lat="46.53361" lon="5.31468">
        <ele>188</ele>
        <time>2022-01-10T13:32:55Z</time>
      </trkpt>
      <trkpt lat="46.53381" lon="5.31441">
        <ele>187.8</ele>
        <time>2022-01-10T13:32:59Z</time>
      </trkpt>
      <trkpt lat="46.53401" lon="5.31399">
        <ele>187.8</ele>
        <time>2022-01-10T13:33:04Z</time>
      </trkpt>
      <trkpt lat="46.53433" lon="5.3133">
        <ele>187.6</ele>
        <time>2022-01-10T13:33:12Z</time>
      </trkpt>
      <trkpt lat="46.53437" lon="5.3132">
        <ele>187.6</ele>
        <time>2022-01-10T13:33:13Z</time>
      </trkpt>
      <trkpt lat="46.53471" lon="5.31248">
        <ele>186.6</ele>
        <time>2022-01-10T13:33:21Z</time>
      </trkpt>
      <trkpt lat="46.53486" lon="5.31207">
        <ele>186.6</ele>
        <time>2022-01-10T13:33:26Z</time>
      </trkpt>
      <trkpt lat="46.53488" lon="5.31199">
        <ele>186.6</ele>
        <time>2022-01-10T13:33:27Z</time>
      </trkpt>
      <trkpt lat="46.53491" lon="5.31166">
        <ele>187.2</ele>
        <time>2022-01-10T13:33:31Z</time>
      </trkpt>
      <trkpt lat="46.53493" lon="5.31144">
        <ele>187.8</ele>
        <time>2022-01-10T13:33:34Z</time>
      </trkpt>
      <trkpt lat="46.53497" lon="5.3113">
        <ele>188.2</ele>
        <time>2022-01-10T13:33:36Z</time>
      </trkpt>
      <trkpt lat="46.535" lon="5.31124">
        <ele>188.4</ele>
        <time>2022-01-10T13:33:37Z</time>
      </trkpt>
      <trkpt lat="46.53503" lon="5.31119">
        <ele>188.6</ele>
        <time>2022-01-10T13:33:38Z</time>
      </trkpt>
      <trkpt lat="46.53509" lon="5.3111">
        <ele>189.2</ele>
        <time>2022-01-10T13:33:40Z</time>
      </trkpt>
      <trkpt lat="46.53517" lon="5.31101">
        <ele>189.6</ele>
        <time>2022-01-10T13:33:42Z</time>
      </trkpt>
      <trkpt lat="46.53521" lon="5.31098">
        <ele>189.8</ele>
        <time>2022-01-10T13:33:43Z</time>
      </trkpt>
      <trkpt lat="46.53534" lon="5.31089">
        <ele>190.8</ele>
        <time>2022-01-10T13:33:46Z</time>
      </trkpt>
      <trkpt lat="46.53539" lon="5.31087">
        <ele>191.2</ele>
        <time>2022-01-10T13:33:47Z</time>
      </trkpt>
      <trkpt lat="46.53559" lon="5.31077">
        <ele>192</ele>
        <time>2022-01-10T13:33:51Z</time>
      </trkpt>
      <trkpt lat="46.5358" lon="5.31065">
        <ele>192.6</ele>
        <time>2022-01-10T13:33:55Z</time>
      </trkpt>
      <trkpt lat="46.53622" lon="5.31041">
        <ele>192.6</ele>
        <time>2022-01-10T13:34:02Z</time>
      </trkpt>
      <trkpt lat="46.53657" lon="5.31023">
        <ele>192.2</ele>
        <time>2022-01-10T13:34:08Z</time>
      </trkpt>
      <trkpt lat="46.53663" lon="5.31022">
        <ele>192.2</ele>
        <time>2022-01-10T13:34:09Z</time>
      </trkpt>
      <trkpt lat="46.537" lon="5.31028">
        <ele>192.2</ele>
        <time>2022-01-10T13:34:15Z</time>
      </trkpt>
      <trkpt lat="46.53741" lon="5.31029">
        <ele>192.2</ele>
        <time>2022-01-10T13:34:22Z</time>
      </trkpt>
      <trkpt lat="46.53794" lon="5.31012">
        <ele>192</ele>
        <time>2022-01-10T13:34:30Z</time>
      </trkpt>
      <trkpt lat="46.53806" lon="5.30999">
        <ele>191.8</ele>
        <time>2022-01-10T13:34:32Z</time>
      </trkpt>
      <trkpt lat="46.53811" lon="5.3099">
        <ele>191.6</ele>
        <time>2022-01-10T13:34:33Z</time>
      </trkpt>
      <trkpt lat="46.53815" lon="5.3098">
        <ele>190.8</ele>
        <time>2022-01-10T13:34:34Z</time>
      </trkpt>
      <trkpt lat="46.53834" lon="5.30934">
        <ele>189.8</ele>
        <time>2022-01-10T13:34:39Z</time>
      </trkpt>
      <trkpt lat="46.53838" lon="5.30925">
        <ele>189.6</ele>
        <time>2022-01-10T13:34:40Z</time>
      </trkpt>
      <trkpt lat="46.53858" lon="5.30876">
        <ele>189.2</ele>
        <time>2022-01-10T13:34:46Z</time>
      </trkpt>
      <trkpt lat="46.53874" lon="5.30834">
        <ele>189.6</ele>
        <time>2022-01-10T13:34:52Z</time>
      </trkpt>
      <trkpt lat="46.53889" lon="5.30784">
        <ele>190.6</ele>
        <time>2022-01-10T13:35:00Z</time>
      </trkpt>
      <trkpt lat="46.53891" lon="5.30773">
        <ele>191</ele>
        <time>2022-01-10T13:35:02Z</time>
      </trkpt>
      <trkpt lat="46.53894" lon="5.30749">
        <ele>192</ele>
        <time>2022-01-10T13:35:06Z</time>
      </trkpt>
      <trkpt lat="46.53895" lon="5.30737">
        <ele>192.6</ele>
        <time>2022-01-10T13:35:08Z</time>
      </trkpt>
      <trkpt lat="46.53895" lon="5.30725">
        <ele>193.2</ele>
        <time>2022-01-10T13:35:10Z</time>
      </trkpt>
      <trkpt lat="46.53895" lon="5.30708">
        <ele>194</ele>
        <time>2022-01-10T13:35:13Z</time>
      </trkpt>
      <trkpt lat="46.53896" lon="5.30696">
        <ele>194.6</ele>
        <time>2022-01-10T13:35:15Z</time>
      </trkpt>
      <trkpt lat="46.53904" lon="5.30651">
        <ele>195.6</ele>
        <time>2022-01-10T13:35:22Z</time>
      </trkpt>
      <trkpt lat="46.53922" lon="5.30596">
        <ele>196.6</ele>
        <time>2022-01-10T13:35:31Z</time>
      </trkpt>
      <trkpt lat="46.53925" lon="5.3059">
        <ele>196.8</ele>
        <time>2022-01-10T13:35:32Z</time>
      </trkpt>
      <trkpt lat="46.53937" lon="5.30565">
        <ele>197.4</ele>
        <time>2022-01-10T13:35:37Z</time>
      </trkpt>
      <trkpt lat="46.5394" lon="5.30561">
        <ele>197.8</ele>
        <time>2022-01-10T13:35:38Z</time>
      </trkpt>
      <trkpt lat="46.53943" lon="5.30556">
        <ele>197.8</ele>
        <time>2022-01-10T13:35:39Z</time>
      </trkpt>
      <trkpt lat="46.53951" lon="5.30551">
        <ele>198</ele>
        <time>2022-01-10T13:35:41Z</time>
      </trkpt>
      <trkpt lat="46.53954" lon="5.30548">
        <ele>198.2</ele>
        <time>2022-01-10T13:35:42Z</time>
      </trkpt>
      <trkpt lat="46.5397" lon="5.3054">
        <ele>198.8</ele>
        <time>2022-01-10T13:35:46Z</time>
      </trkpt>
      <trkpt lat="46.53985" lon="5.30533">
        <ele>199.8</ele>
        <time>2022-01-10T13:35:50Z</time>
      </trkpt>
      <trkpt lat="46.53989" lon="5.30531">
        <ele>200</ele>
        <time>2022-01-10T13:35:51Z</time>
      </trkpt>
      <trkpt lat="46.54008" lon="5.30518">
        <ele>201.4</ele>
        <time>2022-01-10T13:35:56Z</time>
      </trkpt>
      <trkpt lat="46.54016" lon="5.30511">
        <ele>201.8</ele>
        <time>2022-01-10T13:35:58Z</time>
      </trkpt>
      <trkpt lat="46.54031" lon="5.30493">
        <ele>202.4</ele>
        <time>2022-01-10T13:36:02Z</time>
      </trkpt>
      <trkpt lat="46.54034" lon="5.30487">
        <ele>202.6</ele>
        <time>2022-01-10T13:36:03Z</time>
      </trkpt>
      <trkpt lat="46.54043" lon="5.30468">
        <ele>203</ele>
        <time>2022-01-10T13:36:06Z</time>
      </trkpt>
      <trkpt lat="46.54051" lon="5.30447">
        <ele>203.4</ele>
        <time>2022-01-10T13:36:09Z</time>
      </trkpt>
      <trkpt lat="46.54055" lon="5.30433">
        <ele>203.8</ele>
        <time>2022-01-10T13:36:11Z</time>
      </trkpt>
      <trkpt lat="46.54062" lon="5.30404">
        <ele>203.8</ele>
        <time>2022-01-10T13:36:15Z</time>
      </trkpt>
      <trkpt lat="46.54076" lon="5.30347">
        <ele>204</ele>
        <time>2022-01-10T13:36:23Z</time>
      </trkpt>
      <trkpt lat="46.54088" lon="5.30306">
        <ele>204.4</ele>
        <time>2022-01-10T13:36:29Z</time>
      </trkpt>
      <trkpt lat="46.541" lon="5.30272">
        <ele>204.6</ele>
        <time>2022-01-10T13:36:34Z</time>
      </trkpt>
      <trkpt lat="46.54104" lon="5.30258">
        <ele>204.6</ele>
        <time>2022-01-10T13:36:36Z</time>
      </trkpt>
      <trkpt lat="46.54114" lon="5.3023">
        <ele>204.6</ele>
        <time>2022-01-10T13:36:40Z</time>
      </trkpt>
      <trkpt lat="46.54137" lon="5.30158">
        <ele>204.4</ele>
        <time>2022-01-10T13:36:50Z</time>
      </trkpt>
      <trkpt lat="46.54139" lon="5.3015">
        <ele>204.4</ele>
        <time>2022-01-10T13:36:51Z</time>
      </trkpt>
      <trkpt lat="46.54148" lon="5.30121">
        <ele>204.4</ele>
        <time>2022-01-10T13:36:55Z</time>
      </trkpt>
      <trkpt lat="46.54156" lon="5.3011">
        <ele>204.4</ele>
        <time>2022-01-10T13:36:57Z</time>
      </trkpt>
      <trkpt lat="46.54161" lon="5.30106">
        <ele>204.4</ele>
        <time>2022-01-10T13:36:58Z</time>
      </trkpt>
      <trkpt lat="46.54177" lon="5.301">
        <ele>204.2</ele>
        <time>2022-01-10T13:37:01Z</time>
      </trkpt>
      <trkpt lat="46.54182" lon="5.30098">
        <ele>204.2</ele>
        <time>2022-01-10T13:37:02Z</time>
      </trkpt>
      <trkpt lat="46.54211" lon="5.30093">
        <ele>204.2</ele>
        <time>2022-01-10T13:37:07Z</time>
      </trkpt>
      <trkpt lat="46.54267" lon="5.30101">
        <ele>204</ele>
        <time>2022-01-10T13:37:16Z</time>
      </trkpt>
      <trkpt lat="46.54273" lon="5.30102">
        <ele>204</ele>
        <time>2022-01-10T13:37:17Z</time>
      </trkpt>
      <trkpt lat="46.54311" lon="5.30105">
        <ele>203.4</ele>
        <time>2022-01-10T13:37:23Z</time>
      </trkpt>
      <trkpt lat="46.54317" lon="5.30107">
        <ele>203.2</ele>
        <time>2022-01-10T13:37:24Z</time>
      </trkpt>
      <trkpt lat="46.54359" lon="5.30121">
        <ele>202.2</ele>
        <time>2022-01-10T13:37:30Z</time>
      </trkpt>
      <trkpt lat="46.54397" lon="5.30138">
        <ele>201</ele>
        <time>2022-01-10T13:37:35Z</time>
      </trkpt>
      <trkpt lat="46.54419" lon="5.30144">
        <ele>200</ele>
        <time>2022-01-10T13:37:38Z</time>
      </trkpt>
      <trkpt lat="46.54425" lon="5.30145">
        <ele>199.6</ele>
        <time>2022-01-10T13:37:39Z</time>
      </trkpt>
      <trkpt lat="46.54448" lon="5.30146">
        <ele>198.6</ele>
        <time>2022-01-10T13:37:42Z</time>
      </trkpt>
      <trkpt lat="46.54464" lon="5.30144">
        <ele>198</ele>
        <time>2022-01-10T13:37:44Z</time>
      </trkpt>
      <trkpt lat="46.54479" lon="5.30139">
        <ele>197.4</ele>
        <time>2022-01-10T13:37:46Z</time>
      </trkpt>
      <trkpt lat="46.54509" lon="5.30125">
        <ele>196.6</ele>
        <time>2022-01-10T13:37:50Z</time>
      </trkpt>
      <trkpt lat="46.54516" lon="5.30122">
        <ele>195.8</ele>
        <time>2022-01-10T13:37:51Z</time>
      </trkpt>
      <trkpt lat="46.5454" lon="5.30107">
        <ele>194.8</ele>
        <time>2022-01-10T13:37:54Z</time>
      </trkpt>
      <trkpt lat="46.54555" lon="5.30099">
        <ele>193.8</ele>
        <time>2022-01-10T13:37:56Z</time>
      </trkpt>
      <trkpt lat="46.54572" lon="5.30089">
        <ele>192.8</ele>
        <time>2022-01-10T13:37:58Z</time>
      </trkpt>
      <trkpt lat="46.5458" lon="5.30084">
        <ele>192.6</ele>
        <time>2022-01-10T13:37:59Z</time>
      </trkpt>
      <trkpt lat="46.54603" lon="5.30069">
        <ele>191.2</ele>
        <time>2022-01-10T13:38:02Z</time>
      </trkpt>
      <trkpt lat="46.54625" lon="5.30056">
        <ele>190.2</ele>
        <time>2022-01-10T13:38:05Z</time>
      </trkpt>
      <trkpt lat="46.54641" lon="5.30046">
        <ele>188.6</ele>
        <time>2022-01-10T13:38:07Z</time>
      </trkpt>
      <trkpt lat="46.54657" lon="5.30037">
        <ele>187.6</ele>
        <time>2022-01-10T13:38:09Z</time>
      </trkpt>
      <trkpt lat="46.54665" lon="5.30032">
        <ele>187.4</ele>
        <time>2022-01-10T13:38:10Z</time>
      </trkpt>
      <trkpt lat="46.54683" lon="5.30021">
        <ele>186.6</ele>
        <time>2022-01-10T13:38:12Z</time>
      </trkpt>
      <trkpt lat="46.54697" lon="5.30012">
        <ele>185.2</ele>
        <time>2022-01-10T13:38:14Z</time>
      </trkpt>
      <trkpt lat="46.54714" lon="5.3">
        <ele>184.2</ele>
        <time>2022-01-10T13:38:16Z</time>
      </trkpt>
      <trkpt lat="46.54734" lon="5.29984">
        <ele>183.2</ele>
        <time>2022-01-10T13:38:19Z</time>
      </trkpt>
      <trkpt lat="46.54742" lon="5.29976">
        <ele>182.8</ele>
        <time>2022-01-10T13:38:20Z</time>
      </trkpt>
      <trkpt lat="46.54776" lon="5.29947">
        <ele>181.6</ele>
        <time>2022-01-10T13:38:25Z</time>
      </trkpt>
      <trkpt lat="46.54787" lon="5.29935">
        <ele>181.2</ele>
        <time>2022-01-10T13:38:27Z</time>
      </trkpt>
      <trkpt lat="46.54817" lon="5.299">
        <ele>180.4</ele>
        <time>2022-01-10T13:38:32Z</time>
      </trkpt>
      <trkpt lat="46.54846" lon="5.29864">
        <ele>180</ele>
        <time>2022-01-10T13:38:37Z</time>
      </trkpt>
      <trkpt lat="46.54876" lon="5.29824">
        <ele>185.6</ele>
        <time>2022-01-10T13:38:43Z</time>
      </trkpt>
      <trkpt lat="46.54909" lon="5.29777">
        <ele>180</ele>
        <time>2022-01-10T13:38:50Z</time>
      </trkpt>
      <trkpt lat="46.54942" lon="5.29712">
        <ele>179.4</ele>
        <time>2022-01-10T13:38:58Z</time>
      </trkpt>
      <trkpt lat="46.5495" lon="5.29687">
        <ele>179.2</ele>
        <time>2022-01-10T13:39:01Z</time>
      </trkpt>
      <trkpt lat="46.54956" lon="5.29661">
        <ele>179.2</ele>
        <time>2022-01-10T13:39:04Z</time>
      </trkpt>
      <trkpt lat="46.54962" lon="5.29631">
        <ele>179.4</ele>
        <time>2022-01-10T13:39:08Z</time>
      </trkpt>
      <trkpt lat="46.54964" lon="5.29624">
        <ele>179.4</ele>
        <time>2022-01-10T13:39:09Z</time>
      </trkpt>
      <trkpt lat="46.54978" lon="5.29584">
        <ele>180.6</ele>
        <time>2022-01-10T13:39:15Z</time>
      </trkpt>
      <trkpt lat="46.54981" lon="5.29579">
        <ele>180.6</ele>
        <time>2022-01-10T13:39:16Z</time>
      </trkpt>
      <trkpt lat="46.54994" lon="5.29559">
        <ele>181.6</ele>
        <time>2022-01-10T13:39:20Z</time>
      </trkpt>
      <trkpt lat="46.55003" lon="5.29544">
        <ele>182.2</ele>
        <time>2022-01-10T13:39:23Z</time>
      </trkpt>
      <trkpt lat="46.55006" lon="5.29539">
        <ele>182.4</ele>
        <time>2022-01-10T13:39:24Z</time>
      </trkpt>
      <trkpt lat="46.55013" lon="5.29531">
        <ele>182.6</ele>
        <time>2022-01-10T13:39:26Z</time>
      </trkpt>
      <trkpt lat="46.55031" lon="5.29511">
        <ele>183.2</ele>
        <time>2022-01-10T13:39:31Z</time>
      </trkpt>
      <trkpt lat="46.55034" lon="5.29508">
        <ele>183.6</ele>
        <time>2022-01-10T13:39:32Z</time>
      </trkpt>
      <trkpt lat="46.55038" lon="5.29506">
        <ele>184</ele>
        <time>2022-01-10T13:39:33Z</time>
      </trkpt>
      <trkpt lat="46.55042" lon="5.29503">
        <ele>184</ele>
        <time>2022-01-10T13:39:34Z</time>
      </trkpt>
      <trkpt lat="46.5505" lon="5.295">
        <ele>184.6</ele>
        <time>2022-01-10T13:39:36Z</time>
      </trkpt>
      <trkpt lat="46.55056" lon="5.29501">
        <ele>185</ele>
        <time>2022-01-10T13:39:38Z</time>
      </trkpt>
      <trkpt lat="46.55067" lon="5.29501">
        <ele>186.2</ele>
        <time>2022-01-10T13:39:41Z</time>
      </trkpt>
      <trkpt lat="46.55087" lon="5.29505">
        <ele>187.2</ele>
        <time>2022-01-10T13:39:46Z</time>
      </trkpt>
      <trkpt lat="46.55099" lon="5.29509">
        <ele>188.2</ele>
        <time>2022-01-10T13:39:49Z</time>
      </trkpt>
      <trkpt lat="46.55103" lon="5.29511">
        <ele>188.2</ele>
        <time>2022-01-10T13:39:50Z</time>
      </trkpt>
      <trkpt lat="46.55136" lon="5.29525">
        <ele>189.4</ele>
        <time>2022-01-10T13:39:58Z</time>
      </trkpt>
      <trkpt lat="46.55171" lon="5.29538">
        <ele>190</ele>
        <time>2022-01-10T13:40:06Z</time>
      </trkpt>
      <trkpt lat="46.55183" lon="5.29541">
        <ele>190.4</ele>
        <time>2022-01-10T13:40:09Z</time>
      </trkpt>
      <trkpt lat="46.55196" lon="5.2954">
        <ele>190.8</ele>
        <time>2022-01-10T13:40:12Z</time>
      </trkpt>
      <trkpt lat="46.55208" lon="5.29537">
        <ele>191.2</ele>
        <time>2022-01-10T13:40:15Z</time>
      </trkpt>
      <trkpt lat="46.55215" lon="5.29533">
        <ele>191.4</ele>
        <time>2022-01-10T13:40:17Z</time>
      </trkpt>
      <trkpt lat="46.55219" lon="5.29531">
        <ele>191.8</ele>
        <time>2022-01-10T13:40:18Z</time>
      </trkpt>
      <trkpt lat="46.55233" lon="5.29523">
        <ele>192.6</ele>
        <time>2022-01-10T13:40:22Z</time>
      </trkpt>
      <trkpt lat="46.55246" lon="5.29515">
        <ele>193.2</ele>
        <time>2022-01-10T13:40:26Z</time>
      </trkpt>
      <trkpt lat="46.55257" lon="5.29506">
        <ele>193.8</ele>
        <time>2022-01-10T13:40:29Z</time>
      </trkpt>
      <trkpt lat="46.55278" lon="5.29495">
        <ele>194.2</ele>
        <time>2022-01-10T13:40:34Z</time>
      </trkpt>
      <trkpt lat="46.55283" lon="5.29495">
        <ele>194.2</ele>
        <time>2022-01-10T13:40:35Z</time>
      </trkpt>
      <trkpt lat="46.55293" lon="5.29498">
        <ele>194.2</ele>
        <time>2022-01-10T13:40:37Z</time>
      </trkpt>
      <trkpt lat="46.55299" lon="5.29501">
        <ele>194.2</ele>
        <time>2022-01-10T13:40:38Z</time>
      </trkpt>
      <trkpt lat="46.55304" lon="5.29504">
        <ele>194</ele>
        <time>2022-01-10T13:40:39Z</time>
      </trkpt>
      <trkpt lat="46.5533" lon="5.29511">
        <ele>193.6</ele>
        <time>2022-01-10T13:40:43Z</time>
      </trkpt>
      <trkpt lat="46.55377" lon="5.29519">
        <ele>192.4</ele>
        <time>2022-01-10T13:40:50Z</time>
      </trkpt>
      <trkpt lat="46.55419" lon="5.29537">
        <ele>192.4</ele>
        <time>2022-01-10T13:40:57Z</time>
      </trkpt>
      <trkpt lat="46.55468" lon="5.29571">
        <ele>192.4</ele>
        <time>2022-01-10T13:41:06Z</time>
      </trkpt>
      <trkpt lat="46.55515" lon="5.29606">
        <ele>192</ele>
        <time>2022-01-10T13:41:15Z</time>
      </trkpt>
      <trkpt lat="46.55565" lon="5.29641">
        <ele>192.4</ele>
        <time>2022-01-10T13:41:25Z</time>
      </trkpt>
      <trkpt lat="46.5557" lon="5.29644">
        <ele>192.4</ele>
        <time>2022-01-10T13:41:26Z</time>
      </trkpt>
      <trkpt lat="46.55612" lon="5.29669">
        <ele>193.4</ele>
        <time>2022-01-10T13:41:35Z</time>
      </trkpt>
      <trkpt lat="46.5566" lon="5.29691">
        <ele>194</ele>
        <time>2022-01-10T13:41:45Z</time>
      </trkpt>
      <trkpt lat="46.55694" lon="5.29693">
        <ele>194</ele>
        <time>2022-01-10T13:41:52Z</time>
      </trkpt>
      <trkpt lat="46.55716" lon="5.29695">
        <ele>194.4</ele>
        <time>2022-01-10T13:41:57Z</time>
      </trkpt>
      <trkpt lat="46.55732" lon="5.29699">
        <ele>195.4</ele>
        <time>2022-01-10T13:42:01Z</time>
      </trkpt>
      <trkpt lat="46.55748" lon="5.29707">
        <ele>196.4</ele>
        <time>2022-01-10T13:42:05Z</time>
      </trkpt>
      <trkpt lat="46.55751" lon="5.29709">
        <ele>196.4</ele>
        <time>2022-01-10T13:42:06Z</time>
      </trkpt>
      <trkpt lat="46.55768" lon="5.29724">
        <ele>197.8</ele>
        <time>2022-01-10T13:42:11Z</time>
      </trkpt>
      <trkpt lat="46.55781" lon="5.2974">
        <ele>198.6</ele>
        <time>2022-01-10T13:42:15Z</time>
      </trkpt>
      <trkpt lat="46.55788" lon="5.29749">
        <ele>199</ele>
        <time>2022-01-10T13:42:17Z</time>
      </trkpt>
      <trkpt lat="46.55805" lon="5.29773">
        <ele>199.6</ele>
        <time>2022-01-10T13:42:22Z</time>
      </trkpt>
      <trkpt lat="46.55836" lon="5.29816">
        <ele>199.8</ele>
        <time>2022-01-10T13:42:31Z</time>
      </trkpt>
      <trkpt lat="46.55839" lon="5.2982">
        <ele>199.8</ele>
        <time>2022-01-10T13:42:32Z</time>
      </trkpt>
      <trkpt lat="46.55866" lon="5.29856">
        <ele>200</ele>
        <time>2022-01-10T13:42:39Z</time>
      </trkpt>
      <trkpt lat="46.559" lon="5.29901">
        <ele>199.4</ele>
        <time>2022-01-10T13:42:46Z</time>
      </trkpt>
      <trkpt lat="46.55911" lon="5.29915">
        <ele>198.6</ele>
        <time>2022-01-10T13:42:48Z</time>
      </trkpt>
      <trkpt lat="46.55932" lon="5.29944">
        <ele>197.6</ele>
        <time>2022-01-10T13:42:52Z</time>
      </trkpt>
      <trkpt lat="46.55938" lon="5.29951">
        <ele>197.4</ele>
        <time>2022-01-10T13:42:53Z</time>
      </trkpt>
      <trkpt lat="46.55954" lon="5.29973">
        <ele>196.6</ele>
        <time>2022-01-10T13:42:56Z</time>
      </trkpt>
      <trkpt lat="46.55984" lon="5.30014">
        <ele>195.6</ele>
        <time>2022-01-10T13:43:02Z</time>
      </trkpt>
      <trkpt lat="46.55992" lon="5.30025">
        <ele>195.6</ele>
        <time>2022-01-10T13:43:04Z</time>
      </trkpt>
      <trkpt lat="46.56004" lon="5.3004">
        <ele>195.8</ele>
        <time>2022-01-10T13:43:07Z</time>
      </trkpt>
      <trkpt lat="46.56027" lon="5.30068">
        <ele>196.6</ele>
        <time>2022-01-10T13:43:13Z</time>
      </trkpt>
      <trkpt lat="46.56052" lon="5.30106">
        <ele>198</ele>
        <time>2022-01-10T13:43:21Z</time>
      </trkpt>
      <trkpt lat="46.56055" lon="5.30111">
        <ele>198.4</ele>
        <time>2022-01-10T13:43:22Z</time>
      </trkpt>
      <trkpt lat="46.56071" lon="5.30133">
        <ele>199</ele>
        <time>2022-01-10T13:43:27Z</time>
      </trkpt>
      <trkpt lat="46.56089" lon="5.30158">
        <ele>200</ele>
        <time>2022-01-10T13:43:32Z</time>
      </trkpt>
      <trkpt lat="46.56093" lon="5.30163">
        <ele>200.2</ele>
        <time>2022-01-10T13:43:33Z</time>
      </trkpt>
      <trkpt lat="46.56116" lon="5.30194">
        <ele>201</ele>
        <time>2022-01-10T13:43:39Z</time>
      </trkpt>
      <trkpt lat="46.5612" lon="5.30199">
        <ele>201.2</ele>
        <time>2022-01-10T13:43:40Z</time>
      </trkpt>
      <trkpt lat="46.56145" lon="5.30235">
        <ele>201.4</ele>
        <time>2022-01-10T13:43:47Z</time>
      </trkpt>
      <trkpt lat="46.56185" lon="5.30287">
        <ele>201.2</ele>
        <time>2022-01-10T13:43:57Z</time>
      </trkpt>
      <trkpt lat="46.56211" lon="5.30327">
        <ele>200.6</ele>
        <time>2022-01-10T13:44:04Z</time>
      </trkpt>
      <trkpt lat="46.56246" lon="5.30388">
        <ele>201</ele>
        <time>2022-01-10T13:44:14Z</time>
      </trkpt>
      <trkpt lat="46.56282" lon="5.30437">
        <ele>201.2</ele>
        <time>2022-01-10T13:44:23Z</time>
      </trkpt>
      <trkpt lat="46.56319" lon="5.30486">
        <ele>201.4</ele>
        <time>2022-01-10T13:44:32Z</time>
      </trkpt>
      <trkpt lat="46.5635" lon="5.3053">
        <ele>201.6</ele>
        <time>2022-01-10T13:44:40Z</time>
      </trkpt>
      <trkpt lat="46.56385" lon="5.30577">
        <ele>201.4</ele>
        <time>2022-01-10T13:44:48Z</time>
      </trkpt>
      <trkpt lat="46.56405" lon="5.30605">
        <ele>201</ele>
        <time>2022-01-10T13:44:53Z</time>
      </trkpt>
      <trkpt lat="46.56408" lon="5.30612">
        <ele>200.8</ele>
        <time>2022-01-10T13:44:54Z</time>
      </trkpt>
      <trkpt lat="46.56409" lon="5.30616">
        <ele>200.6</ele>
        <time>2022-01-10T13:44:55Z</time>
      </trkpt>
      <trkpt lat="46.5641" lon="5.30625">
        <ele>200.4</ele>
        <time>2022-01-10T13:44:57Z</time>
      </trkpt>
      <trkpt lat="46.56411" lon="5.30628">
        <ele>200.2</ele>
        <time>2022-01-10T13:44:58Z</time>
      </trkpt>
      <trkpt lat="46.56417" lon="5.3063">
        <ele>200.2</ele>
        <time>2022-01-10T13:45:00Z</time>
      </trkpt>
      <trkpt lat="46.56426" lon="5.30628">
        <ele>200</ele>
        <time>2022-01-10T13:45:02Z</time>
      </trkpt>
      <trkpt lat="46.56437" lon="5.30629">
        <ele>200</ele>
        <time>2022-01-10T13:45:04Z</time>
      </trkpt>
      <trkpt lat="46.56449" lon="5.30627">
        <ele>200</ele>
        <time>2022-01-10T13:45:06Z</time>
      </trkpt>
      <trkpt lat="46.56462" lon="5.30622">
        <ele>200</ele>
        <time>2022-01-10T13:45:08Z</time>
      </trkpt>
      <trkpt lat="46.56507" lon="5.3061">
        <ele>200.4</ele>
        <time>2022-01-10T13:45:15Z</time>
      </trkpt>
      <trkpt lat="46.56563" lon="5.30601">
        <ele>199.8</ele>
        <time>2022-01-10T13:45:24Z</time>
      </trkpt>
      <trkpt lat="46.56569" lon="5.30601">
        <ele>199.6</ele>
        <time>2022-01-10T13:45:25Z</time>
      </trkpt>
      <trkpt lat="46.56612" lon="5.30603">
        <ele>199.4</ele>
        <time>2022-01-10T13:45:32Z</time>
      </trkpt>
      <trkpt lat="46.56655" lon="5.30615">
        <ele>199.6</ele>
        <time>2022-01-10T13:45:39Z</time>
      </trkpt>
      <trkpt lat="46.56689" lon="5.30637">
        <ele>199.4</ele>
        <time>2022-01-10T13:45:45Z</time>
      </trkpt>
      <trkpt lat="46.56731" lon="5.30684">
        <ele>199</ele>
        <time>2022-01-10T13:45:53Z</time>
      </trkpt>
      <trkpt lat="46.56743" lon="5.30706">
        <ele>198.6</ele>
        <time>2022-01-10T13:45:56Z</time>
      </trkpt>
      <trkpt lat="46.56763" lon="5.30746">
        <ele>198</ele>
        <time>2022-01-10T13:46:01Z</time>
      </trkpt>
      <trkpt lat="46.56775" lon="5.30771">
        <ele>197.6</ele>
        <time>2022-01-10T13:46:04Z</time>
      </trkpt>
      <trkpt lat="46.56789" lon="5.30807">
        <ele>196.8</ele>
        <time>2022-01-10T13:46:08Z</time>
      </trkpt>
      <trkpt lat="46.56797" lon="5.30836">
        <ele>196.4</ele>
        <time>2022-01-10T13:46:11Z</time>
      </trkpt>
      <trkpt lat="46.56805" lon="5.30875">
        <ele>195.8</ele>
        <time>2022-01-10T13:46:15Z</time>
      </trkpt>
      <trkpt lat="46.56811" lon="5.30935">
        <ele>195.4</ele>
        <time>2022-01-10T13:46:21Z</time>
      </trkpt>
      <trkpt lat="46.56811" lon="5.30954">
        <ele>195.2</ele>
        <time>2022-01-10T13:46:23Z</time>
      </trkpt>
      <trkpt lat="46.56807" lon="5.31025">
        <ele>194.6</ele>
        <time>2022-01-10T13:46:31Z</time>
      </trkpt>
      <trkpt lat="46.56807" lon="5.31033">
        <ele>194.6</ele>
        <time>2022-01-10T13:46:32Z</time>
      </trkpt>
      <trkpt lat="46.56811" lon="5.31067">
        <ele>194.8</ele>
        <time>2022-01-10T13:46:36Z</time>
      </trkpt>
      <trkpt lat="46.56824" lon="5.31105">
        <ele>195.2</ele>
        <time>2022-01-10T13:46:41Z</time>
      </trkpt>
      <trkpt lat="46.56839" lon="5.3113">
        <ele>195.4</ele>
        <time>2022-01-10T13:46:45Z</time>
      </trkpt>
      <trkpt lat="46.56849" lon="5.31139">
        <ele>195.4</ele>
        <time>2022-01-10T13:46:47Z</time>
      </trkpt>
      <trkpt lat="46.56869" lon="5.31154">
        <ele>195.4</ele>
        <time>2022-01-10T13:46:51Z</time>
      </trkpt>
      <trkpt lat="46.5688" lon="5.31157">
        <ele>195.6</ele>
        <time>2022-01-10T13:46:53Z</time>
      </trkpt>
      <trkpt lat="46.56922" lon="5.31163">
        <ele>196.2</ele>
        <time>2022-01-10T13:47:01Z</time>
      </trkpt>
      <trkpt lat="46.56927" lon="5.31164">
        <ele>196.2</ele>
        <time>2022-01-10T13:47:02Z</time>
      </trkpt>
      <trkpt lat="46.56937" lon="5.31169">
        <ele>196.4</ele>
        <time>2022-01-10T13:47:04Z</time>
      </trkpt>
      <trkpt lat="46.56947" lon="5.31176">
        <ele>196.4</ele>
        <time>2022-01-10T13:47:06Z</time>
      </trkpt>
      <trkpt lat="46.56986" lon="5.3121">
        <ele>197.2</ele>
        <time>2022-01-10T13:47:15Z</time>
      </trkpt>
      <trkpt lat="46.57008" lon="5.31229">
        <ele>197.4</ele>
        <time>2022-01-10T13:47:20Z</time>
      </trkpt>
      <trkpt lat="46.57025" lon="5.31244">
        <ele>197.6</ele>
        <time>2022-01-10T13:47:24Z</time>
      </trkpt>
      <trkpt lat="46.57071" lon="5.31284">
        <ele>198.4</ele>
        <time>2022-01-10T13:47:35Z</time>
      </trkpt>
      <trkpt lat="46.57081" lon="5.3129">
        <ele>198.4</ele>
        <time>2022-01-10T13:47:37Z</time>
      </trkpt>
      <trkpt lat="46.5709" lon="5.31294">
        <ele>198.4</ele>
        <time>2022-01-10T13:47:39Z</time>
      </trkpt>
      <trkpt lat="46.571" lon="5.31296">
        <ele>198.6</ele>
        <time>2022-01-10T13:47:41Z</time>
      </trkpt>
      <trkpt lat="46.57137" lon="5.31298">
        <ele>199.2</ele>
        <time>2022-01-10T13:47:49Z</time>
      </trkpt>
      <trkpt lat="46.57146" lon="5.31298">
        <ele>199.4</ele>
        <time>2022-01-10T13:47:51Z</time>
      </trkpt>
      <trkpt lat="46.57164" lon="5.313">
        <ele>199.6</ele>
        <time>2022-01-10T13:47:55Z</time>
      </trkpt>
      <trkpt lat="46.57172" lon="5.31304">
        <ele>200.2</ele>
        <time>2022-01-10T13:47:57Z</time>
      </trkpt>
      <trkpt lat="46.57175" lon="5.31307">
        <ele>200.4</ele>
        <time>2022-01-10T13:47:58Z</time>
      </trkpt>
      <trkpt lat="46.57183" lon="5.31315">
        <ele>200.8</ele>
        <time>2022-01-10T13:48:00Z</time>
      </trkpt>
      <trkpt lat="46.57189" lon="5.31322">
        <ele>201</ele>
        <time>2022-01-10T13:48:02Z</time>
      </trkpt>
      <trkpt lat="46.57192" lon="5.31326">
        <ele>201.2</ele>
        <time>2022-01-10T13:48:03Z</time>
      </trkpt>
      <trkpt lat="46.57198" lon="5.31336">
        <ele>201.4</ele>
        <time>2022-01-10T13:48:05Z</time>
      </trkpt>
      <trkpt lat="46.57204" lon="5.31346">
        <ele>202</ele>
        <time>2022-01-10T13:48:07Z</time>
      </trkpt>
      <trkpt lat="46.57214" lon="5.31362">
        <ele>202.6</ele>
        <time>2022-01-10T13:48:10Z</time>
      </trkpt>
      <trkpt lat="46.57217" lon="5.31368">
        <ele>202.8</ele>
        <time>2022-01-10T13:48:11Z</time>
      </trkpt>
      <trkpt lat="46.57224" lon="5.31388">
        <ele>203</ele>
        <time>2022-01-10T13:48:14Z</time>
      </trkpt>
      <trkpt lat="46.57225" lon="5.31393">
        <ele>203</ele>
        <time>2022-01-10T13:48:15Z</time>
      </trkpt>
      <trkpt lat="46.57232" lon="5.31419">
        <ele>203.6</ele>
        <time>2022-01-10T13:48:19Z</time>
      </trkpt>
      <trkpt lat="46.5724" lon="5.31445">
        <ele>204</ele>
        <time>2022-01-10T13:48:23Z</time>
      </trkpt>
      <trkpt lat="46.57244" lon="5.31457">
        <ele>204.2</ele>
        <time>2022-01-10T13:48:25Z</time>
      </trkpt>
      <trkpt lat="46.57259" lon="5.31486">
        <ele>204.8</ele>
        <time>2022-01-10T13:48:30Z</time>
      </trkpt>
      <trkpt lat="46.57287" lon="5.31529">
        <ele>205.2</ele>
        <time>2022-01-10T13:48:38Z</time>
      </trkpt>
      <trkpt lat="46.57295" lon="5.3154">
        <ele>205.2</ele>
        <time>2022-01-10T13:48:40Z</time>
      </trkpt>
      <trkpt lat="46.57305" lon="5.31558">
        <ele>205.2</ele>
        <time>2022-01-10T13:48:43Z</time>
      </trkpt>
      <trkpt lat="46.57313" lon="5.31569">
        <ele>205.2</ele>
        <time>2022-01-10T13:48:45Z</time>
      </trkpt>
      <trkpt lat="46.57335" lon="5.31597">
        <ele>205</ele>
        <time>2022-01-10T13:48:50Z</time>
      </trkpt>
      <trkpt lat="46.57346" lon="5.31606">
        <ele>205.2</ele>
        <time>2022-01-10T13:48:52Z</time>
      </trkpt>
      <trkpt lat="46.57351" lon="5.3161">
        <ele>205.2</ele>
        <time>2022-01-10T13:48:53Z</time>
      </trkpt>
      <trkpt lat="46.57368" lon="5.31616">
        <ele>205</ele>
        <time>2022-01-10T13:48:56Z</time>
      </trkpt>
      <trkpt lat="46.57411" lon="5.31617">
        <ele>204.8</ele>
        <time>2022-01-10T13:49:03Z</time>
      </trkpt>
      <trkpt lat="46.57467" lon="5.31614">
        <ele>204.6</ele>
        <time>2022-01-10T13:49:12Z</time>
      </trkpt>
      <trkpt lat="46.57503" lon="5.31615">
        <ele>204.8</ele>
        <time>2022-01-10T13:49:18Z</time>
      </trkpt>
      <trkpt lat="46.57521" lon="5.31619">
        <ele>204.8</ele>
        <time>2022-01-10T13:49:21Z</time>
      </trkpt>
      <trkpt lat="46.57575" lon="5.31641">
        <ele>204.4</ele>
        <time>2022-01-10T13:49:30Z</time>
      </trkpt>
      <trkpt lat="46.5763" lon="5.31663">
        <ele>204.2</ele>
        <time>2022-01-10T13:49:39Z</time>
      </trkpt>
      <trkpt lat="46.5766" lon="5.31676">
        <ele>204.2</ele>
        <time>2022-01-10T13:49:44Z</time>
      </trkpt>
      <trkpt lat="46.57715" lon="5.31699">
        <ele>203.8</ele>
        <time>2022-01-10T13:49:53Z</time>
      </trkpt>
      <trkpt lat="46.57734" lon="5.31707">
        <ele>203.6</ele>
        <time>2022-01-10T13:49:56Z</time>
      </trkpt>
      <trkpt lat="46.5774" lon="5.3171">
        <ele>203.6</ele>
        <time>2022-01-10T13:49:57Z</time>
      </trkpt>
      <trkpt lat="46.57794" lon="5.31732">
        <ele>202.8</ele>
        <time>2022-01-10T13:50:06Z</time>
      </trkpt>
      <trkpt lat="46.57812" lon="5.31739">
        <ele>202.4</ele>
        <time>2022-01-10T13:50:09Z</time>
      </trkpt>
      <trkpt lat="46.57849" lon="5.31755">
        <ele>202</ele>
        <time>2022-01-10T13:50:15Z</time>
      </trkpt>
      <trkpt lat="46.57903" lon="5.31778">
        <ele>201.6</ele>
        <time>2022-01-10T13:50:24Z</time>
      </trkpt>
      <trkpt lat="46.57922" lon="5.31786">
        <ele>201.4</ele>
        <time>2022-01-10T13:50:27Z</time>
      </trkpt>
      <trkpt lat="46.57958" lon="5.31802">
        <ele>201</ele>
        <time>2022-01-10T13:50:33Z</time>
      </trkpt>
      <trkpt lat="46.5797" lon="5.31808">
        <ele>200.8</ele>
        <time>2022-01-10T13:50:35Z</time>
      </trkpt>
      <trkpt lat="46.57981" lon="5.31808">
        <ele>200.6</ele>
        <time>2022-01-10T13:50:37Z</time>
      </trkpt>
      <trkpt lat="46.57991" lon="5.31796">
        <ele>200.6</ele>
        <time>2022-01-10T13:50:39Z</time>
      </trkpt>
      <trkpt lat="46.57993" lon="5.31789">
        <ele>200.6</ele>
        <time>2022-01-10T13:50:40Z</time>
      </trkpt>
      <trkpt lat="46.57996" lon="5.31771">
        <ele>200.4</ele>
        <time>2022-01-10T13:50:42Z</time>
      </trkpt>
      <trkpt lat="46.57998" lon="5.31761">
        <ele>200.4</ele>
        <time>2022-01-10T13:50:43Z</time>
      </trkpt>
      <trkpt lat="46.58003" lon="5.31734">
        <ele>200.2</ele>
        <time>2022-01-10T13:50:46Z</time>
      </trkpt>
      <trkpt lat="46.58006" lon="5.31716">
        <ele>200.4</ele>
        <time>2022-01-10T13:50:48Z</time>
      </trkpt>
      <trkpt lat="46.58012" lon="5.31673">
        <ele>200.8</ele>
        <time>2022-01-10T13:50:53Z</time>
      </trkpt>
      <trkpt lat="46.58018" lon="5.31596">
        <ele>201.2</ele>
        <time>2022-01-10T13:51:02Z</time>
      </trkpt>
      <trkpt lat="46.58017" lon="5.31544">
        <ele>201.4</ele>
        <time>2022-01-10T13:51:08Z</time>
      </trkpt>
      <trkpt lat="46.58019" lon="5.31526">
        <ele>201.6</ele>
        <time>2022-01-10T13:51:10Z</time>
      </trkpt>
      <trkpt lat="46.58029" lon="5.31456">
        <ele>201</ele>
        <time>2022-01-10T13:51:18Z</time>
      </trkpt>
      <trkpt lat="46.58031" lon="5.31447">
        <ele>201</ele>
        <time>2022-01-10T13:51:19Z</time>
      </trkpt>
      <trkpt lat="46.58037" lon="5.31433">
        <ele>200.6</ele>
        <time>2022-01-10T13:51:21Z</time>
      </trkpt>
      <trkpt lat="46.58048" lon="5.31428">
        <ele>200.4</ele>
        <time>2022-01-10T13:51:23Z</time>
      </trkpt>
      <trkpt lat="46.58054" lon="5.31428">
        <ele>200</ele>
        <time>2022-01-10T13:51:24Z</time>
      </trkpt>
      <trkpt lat="46.58092" lon="5.31432">
        <ele>199.6</ele>
        <time>2022-01-10T13:51:30Z</time>
      </trkpt>
      <trkpt lat="46.58131" lon="5.31431">
        <ele>200</ele>
        <time>2022-01-10T13:51:36Z</time>
      </trkpt>
      <trkpt lat="46.58148" lon="5.31422">
        <ele>200.2</ele>
        <time>2022-01-10T13:51:39Z</time>
      </trkpt>
      <trkpt lat="46.5816" lon="5.31413">
        <ele>200</ele>
        <time>2022-01-10T13:51:41Z</time>
      </trkpt>
      <trkpt lat="46.58208" lon="5.31376">
        <ele>199.4</ele>
        <time>2022-01-10T13:51:49Z</time>
      </trkpt>
      <trkpt lat="46.58218" lon="5.31367">
        <ele>199.2</ele>
        <time>2022-01-10T13:51:51Z</time>
      </trkpt>
      <trkpt lat="46.58231" lon="5.31357">
        <ele>199</ele>
        <time>2022-01-10T13:51:53Z</time>
      </trkpt>
      <trkpt lat="46.58269" lon="5.31327">
        <ele>198</ele>
        <time>2022-01-10T13:51:59Z</time>
      </trkpt>
      <trkpt lat="46.58275" lon="5.31321">
        <ele>197.8</ele>
        <time>2022-01-10T13:52:00Z</time>
      </trkpt>
      <trkpt lat="46.58326" lon="5.31282">
        <ele>197.4</ele>
        <time>2022-01-10T13:52:08Z</time>
      </trkpt>
      <trkpt lat="46.58345" lon="5.3127">
        <ele>197</ele>
        <time>2022-01-10T13:52:11Z</time>
      </trkpt>
      <trkpt lat="46.58398" lon="5.31246">
        <ele>196.4</ele>
        <time>2022-01-10T13:52:19Z</time>
      </trkpt>
      <trkpt lat="46.58404" lon="5.31243">
        <ele>196.4</ele>
        <time>2022-01-10T13:52:20Z</time>
      </trkpt>
      <trkpt lat="46.58458" lon="5.31219">
        <ele>196.2</ele>
        <time>2022-01-10T13:52:29Z</time>
      </trkpt>
      <trkpt lat="46.58464" lon="5.31217">
        <ele>196.2</ele>
        <time>2022-01-10T13:52:30Z</time>
      </trkpt>
      <trkpt lat="46.58519" lon="5.31193">
        <ele>196.4</ele>
        <time>2022-01-10T13:52:39Z</time>
      </trkpt>
      <trkpt lat="46.58525" lon="5.3119">
        <ele>196.4</ele>
        <time>2022-01-10T13:52:40Z</time>
      </trkpt>
      <trkpt lat="46.58566" lon="5.31162">
        <ele>196.4</ele>
        <time>2022-01-10T13:52:47Z</time>
      </trkpt>
      <trkpt lat="46.58589" lon="5.31141">
        <ele>196</ele>
        <time>2022-01-10T13:52:51Z</time>
      </trkpt>
      <trkpt lat="46.58618" lon="5.31111">
        <ele>195.4</ele>
        <time>2022-01-10T13:52:56Z</time>
      </trkpt>
      <trkpt lat="46.58635" lon="5.31092">
        <ele>194.8</ele>
        <time>2022-01-10T13:52:59Z</time>
      </trkpt>
      <trkpt lat="46.5868" lon="5.31046">
        <ele>194.6</ele>
        <time>2022-01-10T13:53:07Z</time>
      </trkpt>
      <trkpt lat="46.58721" lon="5.31004">
        <ele>194.8</ele>
        <time>2022-01-10T13:53:15Z</time>
      </trkpt>
      <trkpt lat="46.58756" lon="5.30965">
        <ele>195.2</ele>
        <time>2022-01-10T13:53:23Z</time>
      </trkpt>
      <trkpt lat="46.58785" lon="5.30933">
        <ele>196</ele>
        <time>2022-01-10T13:53:30Z</time>
      </trkpt>
      <trkpt lat="46.5879" lon="5.30929">
        <ele>196.2</ele>
        <time>2022-01-10T13:53:31Z</time>
      </trkpt>
      <trkpt lat="46.58814" lon="5.30912">
        <ele>197</ele>
        <time>2022-01-10T13:53:36Z</time>
      </trkpt>
      <trkpt lat="46.58819" lon="5.30909">
        <ele>197.2</ele>
        <time>2022-01-10T13:53:37Z</time>
      </trkpt>
      <trkpt lat="46.58836" lon="5.30904">
        <ele>197.6</ele>
        <time>2022-01-10T13:53:40Z</time>
      </trkpt>
      <trkpt lat="46.58854" lon="5.30901">
        <ele>197.8</ele>
        <time>2022-01-10T13:53:43Z</time>
      </trkpt>
      <trkpt lat="46.58859" lon="5.309">
        <ele>198</ele>
        <time>2022-01-10T13:53:44Z</time>
      </trkpt>
      <trkpt lat="46.58902" lon="5.30894">
        <ele>198.4</ele>
        <time>2022-01-10T13:53:51Z</time>
      </trkpt>
      <trkpt lat="46.58959" lon="5.30886">
        <ele>198.2</ele>
        <time>2022-01-10T13:54:00Z</time>
      </trkpt>
      <trkpt lat="46.58966" lon="5.30885">
        <ele>198.2</ele>
        <time>2022-01-10T13:54:01Z</time>
      </trkpt>
      <trkpt lat="46.59015" lon="5.30879">
        <ele>196.8</ele>
        <time>2022-01-10T13:54:08Z</time>
      </trkpt>
      <trkpt lat="46.59039" lon="5.30876">
        <ele>196.2</ele>
        <time>2022-01-10T13:54:11Z</time>
      </trkpt>
      <trkpt lat="46.59047" lon="5.30875">
        <ele>195.8</ele>
        <time>2022-01-10T13:54:12Z</time>
      </trkpt>
      <trkpt lat="46.59071" lon="5.3087">
        <ele>194.8</ele>
        <time>2022-01-10T13:54:15Z</time>
      </trkpt>
      <trkpt lat="46.59089" lon="5.30866">
        <ele>193.6</ele>
        <time>2022-01-10T13:54:17Z</time>
      </trkpt>
      <trkpt lat="46.59103" lon="5.30864">
        <ele>193</ele>
        <time>2022-01-10T13:54:19Z</time>
      </trkpt>
      <trkpt lat="46.5912" lon="5.30861">
        <ele>192.4</ele>
        <time>2022-01-10T13:54:21Z</time>
      </trkpt>
      <trkpt lat="46.59136" lon="5.30858">
        <ele>191.4</ele>
        <time>2022-01-10T13:54:23Z</time>
      </trkpt>
      <trkpt lat="46.59144" lon="5.30858">
        <ele>191.2</ele>
        <time>2022-01-10T13:54:24Z</time>
      </trkpt>
      <trkpt lat="46.59162" lon="5.30859">
        <ele>190.4</ele>
        <time>2022-01-10T13:54:26Z</time>
      </trkpt>
      <trkpt lat="46.59169" lon="5.30859">
        <ele>190</ele>
        <time>2022-01-10T13:54:27Z</time>
      </trkpt>
      <trkpt lat="46.59201" lon="5.30854">
        <ele>188.6</ele>
        <time>2022-01-10T13:54:31Z</time>
      </trkpt>
      <trkpt lat="46.59217" lon="5.30852">
        <ele>188</ele>
        <time>2022-01-10T13:54:33Z</time>
      </trkpt>
      <trkpt lat="46.59241" lon="5.30849">
        <ele>187.4</ele>
        <time>2022-01-10T13:54:36Z</time>
      </trkpt>
      <trkpt lat="46.59266" lon="5.30847">
        <ele>186.2</ele>
        <time>2022-01-10T13:54:39Z</time>
      </trkpt>
      <trkpt lat="46.59283" lon="5.30844">
        <ele>185</ele>
        <time>2022-01-10T13:54:41Z</time>
      </trkpt>
      <trkpt lat="46.593" lon="5.30841">
        <ele>184.4</ele>
        <time>2022-01-10T13:54:43Z</time>
      </trkpt>
      <trkpt lat="46.59318" lon="5.30838">
        <ele>183.8</ele>
        <time>2022-01-10T13:54:45Z</time>
      </trkpt>
      <trkpt lat="46.59341" lon="5.30835">
        <ele>182.6</ele>
        <time>2022-01-10T13:54:48Z</time>
      </trkpt>
      <trkpt lat="46.59382" lon="5.30831">
        <ele>181.8</ele>
        <time>2022-01-10T13:54:53Z</time>
      </trkpt>
      <trkpt lat="46.59392" lon="5.3083">
        <ele>181.4</ele>
        <time>2022-01-10T13:54:54Z</time>
      </trkpt>
      <trkpt lat="46.59422" lon="5.30825">
        <ele>180.2</ele>
        <time>2022-01-10T13:54:58Z</time>
      </trkpt>
      <trkpt lat="46.5946" lon="5.3082">
        <ele>179.4</ele>
        <time>2022-01-10T13:55:03Z</time>
      </trkpt>
      <trkpt lat="46.59472" lon="5.30818">
        <ele>178.8</ele>
        <time>2022-01-10T13:55:05Z</time>
      </trkpt>
      <trkpt lat="46.59513" lon="5.30813">
        <ele>178</ele>
        <time>2022-01-10T13:55:11Z</time>
      </trkpt>
      <trkpt lat="46.59561" lon="5.30806">
        <ele>177.8</ele>
        <time>2022-01-10T13:55:19Z</time>
      </trkpt>
      <trkpt lat="46.596" lon="5.30801">
        <ele>177.8</ele>
        <time>2022-01-10T13:55:25Z</time>
      </trkpt>
      <trkpt lat="46.59632" lon="5.30797">
        <ele>177.6</ele>
        <time>2022-01-10T13:55:30Z</time>
      </trkpt>
      <trkpt lat="46.59689" lon="5.30791">
        <ele>178</ele>
        <time>2022-01-10T13:55:40Z</time>
      </trkpt>
      <trkpt lat="46.59705" lon="5.30789">
        <ele>178.4</ele>
        <time>2022-01-10T13:55:43Z</time>
      </trkpt>
      <trkpt lat="46.59718" lon="5.30789">
        <ele>179</ele>
        <time>2022-01-10T13:55:46Z</time>
      </trkpt>
      <trkpt lat="46.59741" lon="5.30788">
        <ele>180.4</ele>
        <time>2022-01-10T13:55:51Z</time>
      </trkpt>
      <trkpt lat="46.59745" lon="5.30788">
        <ele>180.4</ele>
        <time>2022-01-10T13:55:52Z</time>
      </trkpt>
      <trkpt lat="46.5975" lon="5.30788">
        <ele>180.8</ele>
        <time>2022-01-10T13:55:53Z</time>
      </trkpt>
      <trkpt lat="46.59767" lon="5.30787">
        <ele>181.4</ele>
        <time>2022-01-10T13:55:57Z</time>
      </trkpt>
      <trkpt lat="46.59779" lon="5.30789">
        <ele>182.4</ele>
        <time>2022-01-10T13:56:00Z</time>
      </trkpt>
      <trkpt lat="46.59783" lon="5.30789">
        <ele>182.6</ele>
        <time>2022-01-10T13:56:01Z</time>
      </trkpt>
      <trkpt lat="46.59803" lon="5.30796">
        <ele>183.6</ele>
        <time>2022-01-10T13:56:06Z</time>
      </trkpt>
      <trkpt lat="46.59818" lon="5.30802">
        <ele>184.6</ele>
        <time>2022-01-10T13:56:10Z</time>
      </trkpt>
      <trkpt lat="46.59823" lon="5.30804">
        <ele>184.8</ele>
        <time>2022-01-10T13:56:11Z</time>
      </trkpt>
      <trkpt lat="46.59853" lon="5.30815">
        <ele>186</ele>
        <time>2022-01-10T13:56:18Z</time>
      </trkpt>
      <trkpt lat="46.59865" lon="5.30819">
        <ele>186.4</ele>
        <time>2022-01-10T13:56:21Z</time>
      </trkpt>
      <trkpt lat="46.59892" lon="5.30824">
        <ele>186.8</ele>
        <time>2022-01-10T13:56:27Z</time>
      </trkpt>
      <trkpt lat="46.59909" lon="5.30827">
        <ele>187.4</ele>
        <time>2022-01-10T13:56:31Z</time>
      </trkpt>
      <trkpt lat="46.59927" lon="5.3083">
        <ele>187.8</ele>
        <time>2022-01-10T13:56:35Z</time>
      </trkpt>
      <trkpt lat="46.59956" lon="5.30836">
        <ele>188.6</ele>
        <time>2022-01-10T13:56:42Z</time>
      </trkpt>
      <trkpt lat="46.5996" lon="5.30837">
        <ele>189</ele>
        <time>2022-01-10T13:56:43Z</time>
      </trkpt>
      <trkpt lat="46.59964" lon="5.3084">
        <ele>189</ele>
        <time>2022-01-10T13:56:44Z</time>
      </trkpt>
      <trkpt lat="46.59972" lon="5.30845">
        <ele>189.2</ele>
        <time>2022-01-10T13:56:46Z</time>
      </trkpt>
      <trkpt lat="46.59979" lon="5.30853">
        <ele>189.4</ele>
        <time>2022-01-10T13:56:48Z</time>
      </trkpt>
      <trkpt lat="46.59986" lon="5.30861">
        <ele>189.6</ele>
        <time>2022-01-10T13:56:50Z</time>
      </trkpt>
      <trkpt lat="46.6" lon="5.30877">
        <ele>190</ele>
        <time>2022-01-10T13:56:54Z</time>
      </trkpt>
      <trkpt lat="46.60023" lon="5.30903">
        <ele>191.2</ele>
        <time>2022-01-10T13:57:01Z</time>
      </trkpt>
      <trkpt lat="46.60026" lon="5.30907">
        <ele>191.2</ele>
        <time>2022-01-10T13:57:02Z</time>
      </trkpt>
      <trkpt lat="46.60046" lon="5.30929">
        <ele>192</ele>
        <time>2022-01-10T13:57:08Z</time>
      </trkpt>
      <trkpt lat="46.60051" lon="5.30938">
        <ele>192.2</ele>
        <time>2022-01-10T13:57:10Z</time>
      </trkpt>
      <trkpt lat="46.60055" lon="5.30942">
        <ele>192.2</ele>
        <time>2022-01-10T13:57:11Z</time>
      </trkpt>
      <trkpt lat="46.60081" lon="5.30973">
        <ele>193.2</ele>
        <time>2022-01-10T13:57:19Z</time>
      </trkpt>
      <trkpt lat="46.60084" lon="5.30976">
        <ele>193.4</ele>
        <time>2022-01-10T13:57:20Z</time>
      </trkpt>
      <trkpt lat="46.6009" lon="5.30982">
        <ele>193.6</ele>
        <time>2022-01-10T13:57:22Z</time>
      </trkpt>
      <trkpt lat="46.60104" lon="5.30997">
        <ele>193.6</ele>
        <time>2022-01-10T13:57:27Z</time>
      </trkpt>
      <trkpt lat="46.60109" lon="5.31004">
        <ele>193.6</ele>
        <time>2022-01-10T13:57:30Z</time>
      </trkpt>
      <trkpt lat="46.6011" lon="5.31007">
        <ele>193.6</ele>
        <time>2022-01-10T13:57:31Z</time>
      </trkpt>
      <trkpt lat="46.60112" lon="5.31008">
        <ele>193.4</ele>
        <time>2022-01-10T13:57:32Z</time>
      </trkpt>
      <trkpt lat="46.60119" lon="5.31008">
        <ele>193.4</ele>
        <time>2022-01-10T13:57:34Z</time>
      </trkpt>
      <trkpt lat="46.60124" lon="5.31008">
        <ele>193.4</ele>
        <time>2022-01-10T13:57:35Z</time>
      </trkpt>
      <trkpt lat="46.6014" lon="5.31011">
        <ele>193.4</ele>
        <time>2022-01-10T13:57:38Z</time>
      </trkpt>
      <trkpt lat="46.60184" lon="5.31024">
        <ele>193</ele>
        <time>2022-01-10T13:57:45Z</time>
      </trkpt>
      <trkpt lat="46.60203" lon="5.3103">
        <ele>192.6</ele>
        <time>2022-01-10T13:57:48Z</time>
      </trkpt>
      <trkpt lat="46.60215" lon="5.31033">
        <ele>192.4</ele>
        <time>2022-01-10T13:57:50Z</time>
      </trkpt>
      <trkpt lat="46.60221" lon="5.31035">
        <ele>192.2</ele>
        <time>2022-01-10T13:57:51Z</time>
      </trkpt>
      <trkpt lat="46.60239" lon="5.31044">
        <ele>192</ele>
        <time>2022-01-10T13:57:54Z</time>
      </trkpt>
      <trkpt lat="46.60271" lon="5.3106">
        <ele>191.6</ele>
        <time>2022-01-10T13:57:59Z</time>
      </trkpt>
      <trkpt lat="46.60302" lon="5.31078">
        <ele>191</ele>
        <time>2022-01-10T13:58:04Z</time>
      </trkpt>
      <trkpt lat="46.60333" lon="5.31099">
        <ele>190</ele>
        <time>2022-01-10T13:58:09Z</time>
      </trkpt>
      <trkpt lat="46.60347" lon="5.31115">
        <ele>189.8</ele>
        <time>2022-01-10T13:58:12Z</time>
      </trkpt>
      <trkpt lat="46.60355" lon="5.31129">
        <ele>189.6</ele>
        <time>2022-01-10T13:58:14Z</time>
      </trkpt>
      <trkpt lat="46.60369" lon="5.3116">
        <ele>189.2</ele>
        <time>2022-01-10T13:58:18Z</time>
      </trkpt>
      <trkpt lat="46.60373" lon="5.31179">
        <ele>189.4</ele>
        <time>2022-01-10T13:58:20Z</time>
      </trkpt>
      <trkpt lat="46.60376" lon="5.31197">
        <ele>189.2</ele>
        <time>2022-01-10T13:58:22Z</time>
      </trkpt>
      <trkpt lat="46.60376" lon="5.31224">
        <ele>189.4</ele>
        <time>2022-01-10T13:58:25Z</time>
      </trkpt>
      <trkpt lat="46.6037" lon="5.31284">
        <ele>189.6</ele>
        <time>2022-01-10T13:58:32Z</time>
      </trkpt>
      <trkpt lat="46.60366" lon="5.3135">
        <ele>189.8</ele>
        <time>2022-01-10T13:58:40Z</time>
      </trkpt>
      <trkpt lat="46.60367" lon="5.31367">
        <ele>190</ele>
        <time>2022-01-10T13:58:42Z</time>
      </trkpt>
      <trkpt lat="46.60369" lon="5.31385">
        <ele>190.4</ele>
        <time>2022-01-10T13:58:44Z</time>
      </trkpt>
      <trkpt lat="46.60372" lon="5.31393">
        <ele>190.4</ele>
        <time>2022-01-10T13:58:45Z</time>
      </trkpt>
      <trkpt lat="46.60375" lon="5.31401">
        <ele>190.6</ele>
        <time>2022-01-10T13:58:46Z</time>
      </trkpt>
      <trkpt lat="46.60384" lon="5.31416">
        <ele>190.6</ele>
        <time>2022-01-10T13:58:48Z</time>
      </trkpt>
      <trkpt lat="46.60389" lon="5.31422">
        <ele>190.6</ele>
        <time>2022-01-10T13:58:49Z</time>
      </trkpt>
      <trkpt lat="46.60432" lon="5.31469">
        <ele>190.4</ele>
        <time>2022-01-10T13:58:57Z</time>
      </trkpt>
      <trkpt lat="46.60465" lon="5.3152">
        <ele>189.2</ele>
        <time>2022-01-10T13:59:05Z</time>
      </trkpt>
      <trkpt lat="46.60496" lon="5.31556">
        <ele>189.4</ele>
        <time>2022-01-10T13:59:12Z</time>
      </trkpt>
      <trkpt lat="46.60526" lon="5.31585">
        <ele>189.4</ele>
        <time>2022-01-10T13:59:19Z</time>
      </trkpt>
      <trkpt lat="46.60563" lon="5.31618">
        <ele>190.4</ele>
        <time>2022-01-10T13:59:28Z</time>
      </trkpt>
      <trkpt lat="46.60571" lon="5.31626">
        <ele>191</ele>
        <time>2022-01-10T13:59:30Z</time>
      </trkpt>
      <trkpt lat="46.606" lon="5.31652">
        <ele>192.2</ele>
        <time>2022-01-10T13:59:37Z</time>
      </trkpt>
      <trkpt lat="46.60635" lon="5.31671">
        <ele>192.6</ele>
        <time>2022-01-10T13:59:44Z</time>
      </trkpt>
      <trkpt lat="46.60685" lon="5.3169">
        <ele>192.6</ele>
        <time>2022-01-10T13:59:53Z</time>
      </trkpt>
      <trkpt lat="46.60731" lon="5.3171">
        <ele>192.4</ele>
        <time>2022-01-10T14:00:01Z</time>
      </trkpt>
      <trkpt lat="46.60748" lon="5.31719">
        <ele>192</ele>
        <time>2022-01-10T14:00:04Z</time>
      </trkpt>
      <trkpt lat="46.60757" lon="5.31729">
        <ele>191.8</ele>
        <time>2022-01-10T14:00:06Z</time>
      </trkpt>
      <trkpt lat="46.60761" lon="5.31735">
        <ele>191.8</ele>
        <time>2022-01-10T14:00:07Z</time>
      </trkpt>
      <trkpt lat="46.6078" lon="5.3177">
        <ele>191.6</ele>
        <time>2022-01-10T14:00:12Z</time>
      </trkpt>
      <trkpt lat="46.60798" lon="5.31814">
        <ele>191.2</ele>
        <time>2022-01-10T14:00:17Z</time>
      </trkpt>
      <trkpt lat="46.60801" lon="5.31822">
        <ele>191</ele>
        <time>2022-01-10T14:00:18Z</time>
      </trkpt>
      <trkpt lat="46.60814" lon="5.31868">
        <ele>189.8</ele>
        <time>2022-01-10T14:00:23Z</time>
      </trkpt>
      <trkpt lat="46.6082" lon="5.31898">
        <ele>189.8</ele>
        <time>2022-01-10T14:00:27Z</time>
      </trkpt>
      <trkpt lat="46.60822" lon="5.31905">
        <ele>189.8</ele>
        <time>2022-01-10T14:00:28Z</time>
      </trkpt>
      <trkpt lat="46.60828" lon="5.31942">
        <ele>190.4</ele>
        <time>2022-01-10T14:00:33Z</time>
      </trkpt>
      <trkpt lat="46.60831" lon="5.32002">
        <ele>191.2</ele>
        <time>2022-01-10T14:00:40Z</time>
      </trkpt>
      <trkpt lat="46.60837" lon="5.32061">
        <ele>191</ele>
        <time>2022-01-10T14:00:46Z</time>
      </trkpt>
      <trkpt lat="46.60838" lon="5.32069">
        <ele>191</ele>
        <time>2022-01-10T14:00:47Z</time>
      </trkpt>
      <trkpt lat="46.60843" lon="5.32087">
        <ele>190.6</ele>
        <time>2022-01-10T14:00:49Z</time>
      </trkpt>
      <trkpt lat="46.60846" lon="5.32095">
        <ele>190.4</ele>
        <time>2022-01-10T14:00:50Z</time>
      </trkpt>
      <trkpt lat="46.60849" lon="5.32102">
        <ele>190.4</ele>
        <time>2022-01-10T14:00:51Z</time>
      </trkpt>
      <trkpt lat="46.60862" lon="5.32122">
        <ele>190.2</ele>
        <time>2022-01-10T14:00:54Z</time>
      </trkpt>
      <trkpt lat="46.60894" lon="5.32159">
        <ele>190.2</ele>
        <time>2022-01-10T14:01:01Z</time>
      </trkpt>
      <trkpt lat="46.60917" lon="5.32188">
        <ele>190.4</ele>
        <time>2022-01-10T14:01:07Z</time>
      </trkpt>
      <trkpt lat="46.60947" lon="5.32213">
        <ele>191</ele>
        <time>2022-01-10T14:01:14Z</time>
      </trkpt>
      <trkpt lat="46.60952" lon="5.32215">
        <ele>191.2</ele>
        <time>2022-01-10T14:01:15Z</time>
      </trkpt>
      <trkpt lat="46.60962" lon="5.32218">
        <ele>191.6</ele>
        <time>2022-01-10T14:01:17Z</time>
      </trkpt>
      <trkpt lat="46.60973" lon="5.3222">
        <ele>192</ele>
        <time>2022-01-10T14:01:19Z</time>
      </trkpt>
      <trkpt lat="46.61015" lon="5.3222">
        <ele>192.2</ele>
        <time>2022-01-10T14:01:26Z</time>
      </trkpt>
      <trkpt lat="46.6106" lon="5.32221">
        <ele>191.6</ele>
        <time>2022-01-10T14:01:33Z</time>
      </trkpt>
      <trkpt lat="46.61095" lon="5.32221">
        <ele>190.4</ele>
        <time>2022-01-10T14:01:38Z</time>
      </trkpt>
      <trkpt lat="46.6113" lon="5.32222">
        <ele>189.6</ele>
        <time>2022-01-10T14:01:43Z</time>
      </trkpt>
      <trkpt lat="46.61137" lon="5.32221">
        <ele>189.4</ele>
        <time>2022-01-10T14:01:44Z</time>
      </trkpt>
      <trkpt lat="46.61176" lon="5.32216">
        <ele>188.8</ele>
        <time>2022-01-10T14:01:50Z</time>
      </trkpt>
      <trkpt lat="46.61187" lon="5.32211">
        <ele>188.8</ele>
        <time>2022-01-10T14:01:52Z</time>
      </trkpt>
      <trkpt lat="46.61197" lon="5.32203">
        <ele>188.8</ele>
        <time>2022-01-10T14:01:54Z</time>
      </trkpt>
      <trkpt lat="46.61228" lon="5.32179">
        <ele>189.2</ele>
        <time>2022-01-10T14:02:00Z</time>
      </trkpt>
      <trkpt lat="46.61245" lon="5.32173">
        <ele>189.2</ele>
        <time>2022-01-10T14:02:03Z</time>
      </trkpt>
      <trkpt lat="46.61263" lon="5.32171">
        <ele>189.4</ele>
        <time>2022-01-10T14:02:06Z</time>
      </trkpt>
      <trkpt lat="46.61299" lon="5.3218">
        <ele>189.2</ele>
        <time>2022-01-10T14:02:12Z</time>
      </trkpt>
      <trkpt lat="46.61337" lon="5.32197">
        <ele>188.2</ele>
        <time>2022-01-10T14:02:18Z</time>
      </trkpt>
      <trkpt lat="46.61351" lon="5.32202">
        <ele>187.8</ele>
        <time>2022-01-10T14:02:20Z</time>
      </trkpt>
      <trkpt lat="46.61378" lon="5.32202">
        <ele>187</ele>
        <time>2022-01-10T14:02:24Z</time>
      </trkpt>
      <trkpt lat="46.61385" lon="5.32201">
        <ele>186.8</ele>
        <time>2022-01-10T14:02:25Z</time>
      </trkpt>
      <trkpt lat="46.61412" lon="5.32192">
        <ele>186</ele>
        <time>2022-01-10T14:02:29Z</time>
      </trkpt>
      <trkpt lat="46.61425" lon="5.32186">
        <ele>185.8</ele>
        <time>2022-01-10T14:02:31Z</time>
      </trkpt>
      <trkpt lat="46.61455" lon="5.32163">
        <ele>184.8</ele>
        <time>2022-01-10T14:02:36Z</time>
      </trkpt>
      <trkpt lat="46.61461" lon="5.32159">
        <ele>184.8</ele>
        <time>2022-01-10T14:02:37Z</time>
      </trkpt>
      <trkpt lat="46.6149" lon="5.32151">
        <ele>183.8</ele>
        <time>2022-01-10T14:02:41Z</time>
      </trkpt>
      <trkpt lat="46.61497" lon="5.32151">
        <ele>183.6</ele>
        <time>2022-01-10T14:02:42Z</time>
      </trkpt>
      <trkpt lat="46.61512" lon="5.32155">
        <ele>183.4</ele>
        <time>2022-01-10T14:02:44Z</time>
      </trkpt>
      <trkpt lat="46.61525" lon="5.32163">
        <ele>183.2</ele>
        <time>2022-01-10T14:02:46Z</time>
      </trkpt>
      <trkpt lat="46.61541" lon="5.32181">
        <ele>182.8</ele>
        <time>2022-01-10T14:02:49Z</time>
      </trkpt>
      <trkpt lat="46.61545" lon="5.32188">
        <ele>182.6</ele>
        <time>2022-01-10T14:02:50Z</time>
      </trkpt>
      <trkpt lat="46.61574" lon="5.32236">
        <ele>182.4</ele>
        <time>2022-01-10T14:02:57Z</time>
      </trkpt>
      <trkpt lat="46.61597" lon="5.32285">
        <ele>182.6</ele>
        <time>2022-01-10T14:03:04Z</time>
      </trkpt>
      <trkpt lat="46.61606" lon="5.3233">
        <ele>183.2</ele>
        <time>2022-01-10T14:03:10Z</time>
      </trkpt>
      <trkpt lat="46.61611" lon="5.32359">
        <ele>183.8</ele>
        <time>2022-01-10T14:03:14Z</time>
      </trkpt>
      <trkpt lat="46.61612" lon="5.32366">
        <ele>183.8</ele>
        <time>2022-01-10T14:03:15Z</time>
      </trkpt>
      <trkpt lat="46.61618" lon="5.32379">
        <ele>183.8</ele>
        <time>2022-01-10T14:03:17Z</time>
      </trkpt>
      <trkpt lat="46.61624" lon="5.32391">
        <ele>184</ele>
        <time>2022-01-10T14:03:19Z</time>
      </trkpt>
      <trkpt lat="46.61635" lon="5.32406">
        <ele>184.2</ele>
        <time>2022-01-10T14:03:22Z</time>
      </trkpt>
      <trkpt lat="46.6166" lon="5.32428">
        <ele>184.6</ele>
        <time>2022-01-10T14:03:28Z</time>
      </trkpt>
      <trkpt lat="46.61699" lon="5.32449">
        <ele>185.2</ele>
        <time>2022-01-10T14:03:37Z</time>
      </trkpt>
      <trkpt lat="46.61719" lon="5.32458">
        <ele>185.6</ele>
        <time>2022-01-10T14:03:42Z</time>
      </trkpt>
      <trkpt lat="46.61737" lon="5.32467">
        <ele>186.4</ele>
        <time>2022-01-10T14:03:46Z</time>
      </trkpt>
      <trkpt lat="46.6174" lon="5.32469">
        <ele>186.4</ele>
        <time>2022-01-10T14:03:47Z</time>
      </trkpt>
      <trkpt lat="46.61748" lon="5.32475">
        <ele>186.6</ele>
        <time>2022-01-10T14:03:49Z</time>
      </trkpt>
      <trkpt lat="46.61752" lon="5.32478">
        <ele>186.6</ele>
        <time>2022-01-10T14:03:50Z</time>
      </trkpt>
      <trkpt lat="46.61756" lon="5.3248">
        <ele>187</ele>
        <time>2022-01-10T14:03:51Z</time>
      </trkpt>
      <trkpt lat="46.61767" lon="5.32489">
        <ele>187.2</ele>
        <time>2022-01-10T14:03:54Z</time>
      </trkpt>
      <trkpt lat="46.6178" lon="5.32501">
        <ele>187.8</ele>
        <time>2022-01-10T14:03:58Z</time>
      </trkpt>
      <trkpt lat="46.61784" lon="5.32503">
        <ele>188</ele>
        <time>2022-01-10T14:03:59Z</time>
      </trkpt>
      <trkpt lat="46.61797" lon="5.32516">
        <ele>188.8</ele>
        <time>2022-01-10T14:04:03Z</time>
      </trkpt>
      <trkpt lat="46.61812" lon="5.32529">
        <ele>189.4</ele>
        <time>2022-01-10T14:04:07Z</time>
      </trkpt>
      <trkpt lat="46.61827" lon="5.32542">
        <ele>190</ele>
        <time>2022-01-10T14:04:11Z</time>
      </trkpt>
      <trkpt lat="46.61842" lon="5.32554">
        <ele>190.6</ele>
        <time>2022-01-10T14:04:15Z</time>
      </trkpt>
      <trkpt lat="46.6185" lon="5.32562">
        <ele>191.2</ele>
        <time>2022-01-10T14:04:17Z</time>
      </trkpt>
      <trkpt lat="46.61882" lon="5.32592">
        <ele>192.2</ele>
        <time>2022-01-10T14:04:25Z</time>
      </trkpt>
      <trkpt lat="46.61886" lon="5.32596">
        <ele>192.2</ele>
        <time>2022-01-10T14:04:26Z</time>
      </trkpt>
      <trkpt lat="46.61911" lon="5.32629">
        <ele>192.6</ele>
        <time>2022-01-10T14:04:33Z</time>
      </trkpt>
      <trkpt lat="46.61943" lon="5.32673">
        <ele>192.2</ele>
        <time>2022-01-10T14:04:41Z</time>
      </trkpt>
      <trkpt lat="46.61982" lon="5.32732">
        <ele>191.6</ele>
        <time>2022-01-10T14:04:51Z</time>
      </trkpt>
      <trkpt lat="46.62008" lon="5.32774">
        <ele>191.6</ele>
        <time>2022-01-10T14:04:58Z</time>
      </trkpt>
      <trkpt lat="46.62018" lon="5.32789">
        <ele>192</ele>
        <time>2022-01-10T14:05:01Z</time>
      </trkpt>
      <trkpt lat="46.62023" lon="5.32799">
        <ele>192.2</ele>
        <time>2022-01-10T14:05:03Z</time>
      </trkpt>
      <trkpt lat="46.62052" lon="5.32844">
        <ele>193</ele>
        <time>2022-01-10T14:05:11Z</time>
      </trkpt>
      <trkpt lat="46.62059" lon="5.32855">
        <ele>193.2</ele>
        <time>2022-01-10T14:05:13Z</time>
      </trkpt>
      <trkpt lat="46.62083" lon="5.32886">
        <ele>194.2</ele>
        <time>2022-01-10T14:05:19Z</time>
      </trkpt>
      <trkpt lat="46.62111" lon="5.32908">
        <ele>194.4</ele>
        <time>2022-01-10T14:05:25Z</time>
      </trkpt>
      <trkpt lat="46.62158" lon="5.32937">
        <ele>194</ele>
        <time>2022-01-10T14:05:34Z</time>
      </trkpt>
      <trkpt lat="46.62169" lon="5.32938">
        <ele>194</ele>
        <time>2022-01-10T14:05:36Z</time>
      </trkpt>
      <trkpt lat="46.62181" lon="5.32935">
        <ele>194</ele>
        <time>2022-01-10T14:05:38Z</time>
      </trkpt>
      <trkpt lat="46.62214" lon="5.32921">
        <ele>193.4</ele>
        <time>2022-01-10T14:05:43Z</time>
      </trkpt>
      <trkpt lat="46.62221" lon="5.32919">
        <ele>193.2</ele>
        <time>2022-01-10T14:05:44Z</time>
      </trkpt>
      <trkpt lat="46.62249" lon="5.32918">
        <ele>191.8</ele>
        <time>2022-01-10T14:05:48Z</time>
      </trkpt>
      <trkpt lat="46.6228" lon="5.32917">
        <ele>190.6</ele>
        <time>2022-01-10T14:05:52Z</time>
      </trkpt>
      <trkpt lat="46.62305" lon="5.32915">
        <ele>189.4</ele>
        <time>2022-01-10T14:05:55Z</time>
      </trkpt>
      <trkpt lat="46.62313" lon="5.32915">
        <ele>189</ele>
        <time>2022-01-10T14:05:56Z</time>
      </trkpt>
      <trkpt lat="46.62332" lon="5.32913">
        <ele>188.2</ele>
        <time>2022-01-10T14:05:58Z</time>
      </trkpt>
      <trkpt lat="46.62347" lon="5.32912">
        <ele>187</ele>
        <time>2022-01-10T14:06:00Z</time>
      </trkpt>
      <trkpt lat="46.62376" lon="5.32909">
        <ele>186</ele>
        <time>2022-01-10T14:06:03Z</time>
      </trkpt>
      <trkpt lat="46.62391" lon="5.32907">
        <ele>185</ele>
        <time>2022-01-10T14:06:05Z</time>
      </trkpt>
      <trkpt lat="46.62402" lon="5.32905">
        <ele>184.6</ele>
        <time>2022-01-10T14:06:06Z</time>
      </trkpt>
      <trkpt lat="46.6242" lon="5.32902">
        <ele>183.4</ele>
        <time>2022-01-10T14:06:08Z</time>
      </trkpt>
      <trkpt lat="46.62445" lon="5.32899">
        <ele>182.2</ele>
        <time>2022-01-10T14:06:11Z</time>
      </trkpt>
      <trkpt lat="46.62468" lon="5.32895">
        <ele>181.2</ele>
        <time>2022-01-10T14:06:14Z</time>
      </trkpt>
      <trkpt lat="46.62477" lon="5.32894">
        <ele>180.8</ele>
        <time>2022-01-10T14:06:15Z</time>
      </trkpt>
      <trkpt lat="46.62499" lon="5.3289">
        <ele>180.2</ele>
        <time>2022-01-10T14:06:18Z</time>
      </trkpt>
      <trkpt lat="46.62537" lon="5.32883">
        <ele>179.4</ele>
        <time>2022-01-10T14:06:23Z</time>
      </trkpt>
      <trkpt lat="46.62545" lon="5.32881">
        <ele>179.2</ele>
        <time>2022-01-10T14:06:24Z</time>
      </trkpt>
      <trkpt lat="46.6258" lon="5.32874">
        <ele>178.6</ele>
        <time>2022-01-10T14:06:29Z</time>
      </trkpt>
      <trkpt lat="46.62599" lon="5.32875">
        <ele>178.6</ele>
        <time>2022-01-10T14:06:32Z</time>
      </trkpt>
      <trkpt lat="46.62605" lon="5.32877">
        <ele>178.6</ele>
        <time>2022-01-10T14:06:33Z</time>
      </trkpt>
      <trkpt lat="46.62612" lon="5.32883">
        <ele>178.6</ele>
        <time>2022-01-10T14:06:34Z</time>
      </trkpt>
      <trkpt lat="46.62616" lon="5.32889">
        <ele>178.6</ele>
        <time>2022-01-10T14:06:35Z</time>
      </trkpt>
      <trkpt lat="46.62622" lon="5.32903">
        <ele>178.4</ele>
        <time>2022-01-10T14:06:37Z</time>
      </trkpt>
      <trkpt lat="46.6263" lon="5.32928">
        <ele>178.6</ele>
        <time>2022-01-10T14:06:40Z</time>
      </trkpt>
      <trkpt lat="46.62638" lon="5.32947">
        <ele>178.6</ele>
        <time>2022-01-10T14:06:43Z</time>
      </trkpt>
      <trkpt lat="46.62643" lon="5.3296">
        <ele>179</ele>
        <time>2022-01-10T14:06:45Z</time>
      </trkpt>
      <trkpt lat="46.62652" lon="5.32976">
        <ele>179.4</ele>
        <time>2022-01-10T14:06:48Z</time>
      </trkpt>
      <trkpt lat="46.62658" lon="5.32984">
        <ele>179.6</ele>
        <time>2022-01-10T14:06:50Z</time>
      </trkpt>
      <trkpt lat="46.62667" lon="5.32991">
        <ele>180.4</ele>
        <time>2022-01-10T14:06:52Z</time>
      </trkpt>
      <trkpt lat="46.62674" lon="5.32995">
        <ele>181.2</ele>
        <time>2022-01-10T14:06:54Z</time>
      </trkpt>
      <trkpt lat="46.62678" lon="5.32996">
        <ele>181.2</ele>
        <time>2022-01-10T14:06:55Z</time>
      </trkpt>
      <trkpt lat="46.62682" lon="5.32997">
        <ele>181.6</ele>
        <time>2022-01-10T14:06:56Z</time>
      </trkpt>
      <trkpt lat="46.62698" lon="5.32996">
        <ele>182.8</ele>
        <time>2022-01-10T14:07:00Z</time>
      </trkpt>
      <trkpt lat="46.62702" lon="5.32995">
        <ele>183</ele>
        <time>2022-01-10T14:07:01Z</time>
      </trkpt>
      <trkpt lat="46.62718" lon="5.32996">
        <ele>183.6</ele>
        <time>2022-01-10T14:07:05Z</time>
      </trkpt>
      <trkpt lat="46.62735" lon="5.32999">
        <ele>184.6</ele>
        <time>2022-01-10T14:07:09Z</time>
      </trkpt>
      <trkpt lat="46.62744" lon="5.33002">
        <ele>185</ele>
        <time>2022-01-10T14:07:11Z</time>
      </trkpt>
      <trkpt lat="46.62771" lon="5.33009">
        <ele>185.8</ele>
        <time>2022-01-10T14:07:17Z</time>
      </trkpt>
      <trkpt lat="46.62779" lon="5.33011">
        <ele>186.2</ele>
        <time>2022-01-10T14:07:19Z</time>
      </trkpt>
      <trkpt lat="46.628" lon="5.33019">
        <ele>187.2</ele>
        <time>2022-01-10T14:07:24Z</time>
      </trkpt>
      <trkpt lat="46.62819" lon="5.33024">
        <ele>187.8</ele>
        <time>2022-01-10T14:07:28Z</time>
      </trkpt>
      <trkpt lat="46.62838" lon="5.3303">
        <ele>188.2</ele>
        <time>2022-01-10T14:07:32Z</time>
      </trkpt>
      <trkpt lat="46.62862" lon="5.33037">
        <ele>188.8</ele>
        <time>2022-01-10T14:07:37Z</time>
      </trkpt>
      <trkpt lat="46.629" lon="5.33059">
        <ele>189</ele>
        <time>2022-01-10T14:07:44Z</time>
      </trkpt>
      <trkpt lat="46.629" lon="5.33059">
        <ele>189.2</ele>
        <time>2022-01-10T14:07:45Z</time>
      </trkpt>
      <trkpt lat="46.62903" lon="5.33062">
        <ele>189.2</ele>
        <time>2022-01-10T14:07:46Z</time>
      </trkpt>
      <trkpt lat="46.62911" lon="5.33072">
        <ele>189.4</ele>
        <time>2022-01-10T14:07:48Z</time>
      </trkpt>
      <trkpt lat="46.62927" lon="5.33092">
        <ele>189.6</ele>
        <time>2022-01-10T14:07:52Z</time>
      </trkpt>
      <trkpt lat="46.62949" lon="5.33107">
        <ele>190</ele>
        <time>2022-01-10T14:07:56Z</time>
      </trkpt>
      <trkpt lat="46.62958" lon="5.3311">
        <ele>190.2</ele>
        <time>2022-01-10T14:07:58Z</time>
      </trkpt>
      <trkpt lat="46.62961" lon="5.33111">
        <ele>190.4</ele>
        <time>2022-01-10T14:07:59Z</time>
      </trkpt>
      <trkpt lat="46.62999" lon="5.33124">
        <ele>191.4</ele>
        <time>2022-01-10T14:08:08Z</time>
      </trkpt>
      <trkpt lat="46.63008" lon="5.33126">
        <ele>191.8</ele>
        <time>2022-01-10T14:08:10Z</time>
      </trkpt>
      <trkpt lat="46.63015" lon="5.33128">
        <ele>192.2</ele>
        <time>2022-01-10T14:08:12Z</time>
      </trkpt>
      <trkpt lat="46.63019" lon="5.3313">
        <ele>192.6</ele>
        <time>2022-01-10T14:08:13Z</time>
      </trkpt>
      <trkpt lat="46.63019" lon="5.3313">
        <ele>192.6</ele>
        <time>2022-01-10T14:08:14Z</time>
      </trkpt>
      <trkpt lat="46.63034" lon="5.33138">
        <ele>193.6</ele>
        <time>2022-01-10T14:08:18Z</time>
      </trkpt>
      <trkpt lat="46.63049" lon="5.33149">
        <ele>194.2</ele>
        <time>2022-01-10T14:08:21Z</time>
      </trkpt>
      <trkpt lat="46.63056" lon="5.33155">
        <ele>194.4</ele>
        <time>2022-01-10T14:08:23Z</time>
      </trkpt>
      <trkpt lat="46.6306" lon="5.33158">
        <ele>194.8</ele>
        <time>2022-01-10T14:08:24Z</time>
      </trkpt>
      <trkpt lat="46.63079" lon="5.33176">
        <ele>195.8</ele>
        <time>2022-01-10T14:08:29Z</time>
      </trkpt>
      <trkpt lat="46.6309" lon="5.33186">
        <ele>196.2</ele>
        <time>2022-01-10T14:08:32Z</time>
      </trkpt>
      <trkpt lat="46.63102" lon="5.33199">
        <ele>196.4</ele>
        <time>2022-01-10T14:08:35Z</time>
      </trkpt>
      <trkpt lat="46.63107" lon="5.33211">
        <ele>196.4</ele>
        <time>2022-01-10T14:08:37Z</time>
      </trkpt>
      <trkpt lat="46.63109" lon="5.33225">
        <ele>196.6</ele>
        <time>2022-01-10T14:08:39Z</time>
      </trkpt>
      <trkpt lat="46.63113" lon="5.33249">
        <ele>196.6</ele>
        <time>2022-01-10T14:08:42Z</time>
      </trkpt>
      <trkpt lat="46.6313" lon="5.33311">
        <ele>196.6</ele>
        <time>2022-01-10T14:08:51Z</time>
      </trkpt>
      <trkpt lat="46.63132" lon="5.33319">
        <ele>196.6</ele>
        <time>2022-01-10T14:08:52Z</time>
      </trkpt>
      <trkpt lat="46.6314" lon="5.33349">
        <ele>196.4</ele>
        <time>2022-01-10T14:08:56Z</time>
      </trkpt>
      <trkpt lat="46.63158" lon="5.33424">
        <ele>195.4</ele>
        <time>2022-01-10T14:09:05Z</time>
      </trkpt>
      <trkpt lat="46.63167" lon="5.33458">
        <ele>194.8</ele>
        <time>2022-01-10T14:09:09Z</time>
      </trkpt>
      <trkpt lat="46.63179" lon="5.33494">
        <ele>193.8</ele>
        <time>2022-01-10T14:09:13Z</time>
      </trkpt>
      <trkpt lat="46.63181" lon="5.33504">
        <ele>193.2</ele>
        <time>2022-01-10T14:09:14Z</time>
      </trkpt>
      <trkpt lat="46.63198" lon="5.33561">
        <ele>192</ele>
        <time>2022-01-10T14:09:20Z</time>
      </trkpt>
      <trkpt lat="46.63211" lon="5.33603">
        <ele>190.8</ele>
        <time>2022-01-10T14:09:24Z</time>
      </trkpt>
      <trkpt lat="46.63214" lon="5.33615">
        <ele>190.4</ele>
        <time>2022-01-10T14:09:25Z</time>
      </trkpt>
      <trkpt lat="46.63221" lon="5.33637">
        <ele>189.4</ele>
        <time>2022-01-10T14:09:27Z</time>
      </trkpt>
      <trkpt lat="46.63231" lon="5.33672">
        <ele>188</ele>
        <time>2022-01-10T14:09:30Z</time>
      </trkpt>
      <trkpt lat="46.63237" lon="5.33694">
        <ele>187</ele>
        <time>2022-01-10T14:09:32Z</time>
      </trkpt>
      <trkpt lat="46.63241" lon="5.33705">
        <ele>186.8</ele>
        <time>2022-01-10T14:09:33Z</time>
      </trkpt>
      <trkpt lat="46.6325" lon="5.33737">
        <ele>185.8</ele>
        <time>2022-01-10T14:09:36Z</time>
      </trkpt>
      <trkpt lat="46.63265" lon="5.33803">
        <ele>184.8</ele>
        <time>2022-01-10T14:09:42Z</time>
      </trkpt>
      <trkpt lat="46.63275" lon="5.3387">
        <ele>183.8</ele>
        <time>2022-01-10T14:09:48Z</time>
      </trkpt>
      <trkpt lat="46.63278" lon="5.33892">
        <ele>183.6</ele>
        <time>2022-01-10T14:09:50Z</time>
      </trkpt>
      <trkpt lat="46.6328" lon="5.33944">
        <ele>183.2</ele>
        <time>2022-01-10T14:09:55Z</time>
      </trkpt>
      <trkpt lat="46.63283" lon="5.34008">
        <ele>183.2</ele>
        <time>2022-01-10T14:10:02Z</time>
      </trkpt>
      <trkpt lat="46.63284" lon="5.34062">
        <ele>183.6</ele>
        <time>2022-01-10T14:10:08Z</time>
      </trkpt>
      <trkpt lat="46.63286" lon="5.34076">
        <ele>184</ele>
        <time>2022-01-10T14:10:10Z</time>
      </trkpt>
      <trkpt lat="46.63288" lon="5.34108">
        <ele>184.4</ele>
        <time>2022-01-10T14:10:14Z</time>
      </trkpt>
      <trkpt lat="46.63289" lon="5.34129">
        <ele>184.8</ele>
        <time>2022-01-10T14:10:17Z</time>
      </trkpt>
      <trkpt lat="46.63291" lon="5.34156">
        <ele>185.4</ele>
        <time>2022-01-10T14:10:21Z</time>
      </trkpt>
      <trkpt lat="46.63291" lon="5.34176">
        <ele>185.8</ele>
        <time>2022-01-10T14:10:24Z</time>
      </trkpt>
      <trkpt lat="46.63291" lon="5.34184">
        <ele>186</ele>
        <time>2022-01-10T14:10:25Z</time>
      </trkpt>
      <trkpt lat="46.63289" lon="5.34204">
        <ele>186.8</ele>
        <time>2022-01-10T14:10:28Z</time>
      </trkpt>
      <trkpt lat="46.63289" lon="5.34209">
        <ele>187.2</ele>
        <time>2022-01-10T14:10:30Z</time>
      </trkpt>
      <trkpt lat="46.63288" lon="5.34223">
        <ele>187.8</ele>
        <time>2022-01-10T14:10:32Z</time>
      </trkpt>
      <trkpt lat="46.63286" lon="5.34239">
        <ele>188.8</ele>
        <time>2022-01-10T14:10:35Z</time>
      </trkpt>
      <trkpt lat="46.63283" lon="5.34249">
        <ele>189</ele>
        <time>2022-01-10T14:10:37Z</time>
      </trkpt>
      <trkpt lat="46.63276" lon="5.34278">
        <ele>189.8</ele>
        <time>2022-01-10T14:10:41Z</time>
      </trkpt>
      <trkpt lat="46.63266" lon="5.34322">
        <ele>190.4</ele>
        <time>2022-01-10T14:10:46Z</time>
      </trkpt>
      <trkpt lat="46.63261" lon="5.3435">
        <ele>190.4</ele>
        <time>2022-01-10T14:10:49Z</time>
      </trkpt>
      <trkpt lat="46.63262" lon="5.34367">
        <ele>190.2</ele>
        <time>2022-01-10T14:10:51Z</time>
      </trkpt>
      <trkpt lat="46.6327" lon="5.34436">
        <ele>189.4</ele>
        <time>2022-01-10T14:10:58Z</time>
      </trkpt>
      <trkpt lat="46.63278" lon="5.34484">
        <ele>188.8</ele>
        <time>2022-01-10T14:11:03Z</time>
      </trkpt>
      <trkpt lat="46.6328" lon="5.34504">
        <ele>188.4</ele>
        <time>2022-01-10T14:11:05Z</time>
      </trkpt>
      <trkpt lat="46.63283" lon="5.34536">
        <ele>187.8</ele>
        <time>2022-01-10T14:11:09Z</time>
      </trkpt>
      <trkpt lat="46.63286" lon="5.34598">
        <ele>186.6</ele>
        <time>2022-01-10T14:11:14Z</time>
      </trkpt>
      <trkpt lat="46.63285" lon="5.34608">
        <ele>186.2</ele>
        <time>2022-01-10T14:11:15Z</time>
      </trkpt>
      <trkpt lat="46.63279" lon="5.34678">
        <ele>186</ele>
        <time>2022-01-10T14:11:22Z</time>
      </trkpt>
      <trkpt lat="46.63269" lon="5.34759">
        <ele>186</ele>
        <time>2022-01-10T14:11:31Z</time>
      </trkpt>
      <trkpt lat="46.6327" lon="5.34815">
        <ele>186</ele>
        <time>2022-01-10T14:11:37Z</time>
      </trkpt>
      <trkpt lat="46.63277" lon="5.34885">
        <ele>186</ele>
        <time>2022-01-10T14:11:45Z</time>
      </trkpt>
      <trkpt lat="46.63279" lon="5.34953">
        <ele>186.6</ele>
        <time>2022-01-10T14:11:53Z</time>
      </trkpt>
      <trkpt lat="46.63283" lon="5.34971">
        <ele>186.6</ele>
        <time>2022-01-10T14:11:55Z</time>
      </trkpt>
      <trkpt lat="46.63292" lon="5.34995">
        <ele>186.6</ele>
        <time>2022-01-10T14:11:58Z</time>
      </trkpt>
      <trkpt lat="46.63314" lon="5.35037">
        <ele>187.4</ele>
        <time>2022-01-10T14:12:04Z</time>
      </trkpt>
      <trkpt lat="46.63325" lon="5.35057">
        <ele>187.8</ele>
        <time>2022-01-10T14:12:07Z</time>
      </trkpt>
      <trkpt lat="46.63331" lon="5.3507">
        <ele>188</ele>
        <time>2022-01-10T14:12:09Z</time>
      </trkpt>
      <trkpt lat="46.63335" lon="5.35085">
        <ele>188.4</ele>
        <time>2022-01-10T14:12:11Z</time>
      </trkpt>
      <trkpt lat="46.63336" lon="5.35094">
        <ele>188.4</ele>
        <time>2022-01-10T14:12:12Z</time>
      </trkpt>
      <trkpt lat="46.63337" lon="5.35105">
        <ele>188.4</ele>
        <time>2022-01-10T14:12:13Z</time>
      </trkpt>
      <trkpt lat="46.63338" lon="5.35112">
        <ele>188.4</ele>
        <time>2022-01-10T14:12:15Z</time>
      </trkpt>
      <trkpt lat="46.63338" lon="5.35158">
        <ele>188.4</ele>
        <time>2022-01-10T14:12:19Z</time>
      </trkpt>
      <trkpt lat="46.6334" lon="5.35227">
        <ele>187.6</ele>
        <time>2022-01-10T14:12:26Z</time>
      </trkpt>
      <trkpt lat="46.6334" lon="5.35244">
        <ele>187.4</ele>
        <time>2022-01-10T14:12:28Z</time>
      </trkpt>
      <trkpt lat="46.63343" lon="5.35307">
        <ele>187</ele>
        <time>2022-01-10T14:12:35Z</time>
      </trkpt>
      <trkpt lat="46.63347" lon="5.35376">
        <ele>187.2</ele>
        <time>2022-01-10T14:12:43Z</time>
      </trkpt>
      <trkpt lat="46.63363" lon="5.35432">
        <ele>187.2</ele>
        <time>2022-01-10T14:12:51Z</time>
      </trkpt>
      <trkpt lat="46.63374" lon="5.35482">
        <ele>187.6</ele>
        <time>2022-01-10T14:12:58Z</time>
      </trkpt>
      <trkpt lat="46.63382" lon="5.35509">
        <ele>188</ele>
        <time>2022-01-10T14:13:02Z</time>
      </trkpt>
      <trkpt lat="46.63383" lon="5.35516">
        <ele>188.2</ele>
        <time>2022-01-10T14:13:03Z</time>
      </trkpt>
      <trkpt lat="46.63383" lon="5.35524">
        <ele>188.2</ele>
        <time>2022-01-10T14:13:04Z</time>
      </trkpt>
      <trkpt lat="46.6338" lon="5.35537">
        <ele>188.4</ele>
        <time>2022-01-10T14:13:06Z</time>
      </trkpt>
      <trkpt lat="46.63358" lon="5.35586">
        <ele>189.2</ele>
        <time>2022-01-10T14:13:13Z</time>
      </trkpt>
      <trkpt lat="46.6335" lon="5.35602">
        <ele>189.2</ele>
        <time>2022-01-10T14:13:15Z</time>
      </trkpt>
      <trkpt lat="46.63334" lon="5.35625">
        <ele>188.6</ele>
        <time>2022-01-10T14:13:18Z</time>
      </trkpt>
      <trkpt lat="46.63322" lon="5.35641">
        <ele>188</ele>
        <time>2022-01-10T14:13:20Z</time>
      </trkpt>
      <trkpt lat="46.63301" lon="5.35674">
        <ele>186.8</ele>
        <time>2022-01-10T14:13:24Z</time>
      </trkpt>
      <trkpt lat="46.63301" lon="5.35674">
        <ele>186.6</ele>
        <time>2022-01-10T14:13:25Z</time>
      </trkpt>
      <trkpt lat="46.63291" lon="5.35692">
        <ele>186.6</ele>
        <time>2022-01-10T14:13:26Z</time>
      </trkpt>
      <trkpt lat="46.63274" lon="5.35727">
        <ele>186</ele>
        <time>2022-01-10T14:13:30Z</time>
      </trkpt>
      <trkpt lat="46.63256" lon="5.3577">
        <ele>185.8</ele>
        <time>2022-01-10T14:13:35Z</time>
      </trkpt>
      <trkpt lat="46.6325" lon="5.35788">
        <ele>185.8</ele>
        <time>2022-01-10T14:13:37Z</time>
      </trkpt>
      <trkpt lat="46.63231" lon="5.35855">
        <ele>186</ele>
        <time>2022-01-10T14:13:45Z</time>
      </trkpt>
      <trkpt lat="46.63227" lon="5.35873">
        <ele>186</ele>
        <time>2022-01-10T14:13:47Z</time>
      </trkpt>
      <trkpt lat="46.63225" lon="5.35893">
        <ele>186.2</ele>
        <time>2022-01-10T14:13:49Z</time>
      </trkpt>
      <trkpt lat="46.63225" lon="5.35902">
        <ele>186.2</ele>
        <time>2022-01-10T14:13:50Z</time>
      </trkpt>
      <trkpt lat="46.63227" lon="5.35912">
        <ele>186.2</ele>
        <time>2022-01-10T14:13:51Z</time>
      </trkpt>
      <trkpt lat="46.63233" lon="5.35938">
        <ele>186</ele>
        <time>2022-01-10T14:13:54Z</time>
      </trkpt>
      <trkpt lat="46.63239" lon="5.35953">
        <ele>185.8</ele>
        <time>2022-01-10T14:13:56Z</time>
      </trkpt>
      <trkpt lat="46.63243" lon="5.35969">
        <ele>185.6</ele>
        <time>2022-01-10T14:13:58Z</time>
      </trkpt>
      <trkpt lat="46.63244" lon="5.35977">
        <ele>185.4</ele>
        <time>2022-01-10T14:13:59Z</time>
      </trkpt>
      <trkpt lat="46.63245" lon="5.36009">
        <ele>185.2</ele>
        <time>2022-01-10T14:14:03Z</time>
      </trkpt>
      <trkpt lat="46.63245" lon="5.36017">
        <ele>185.2</ele>
        <time>2022-01-10T14:14:04Z</time>
      </trkpt>
      <trkpt lat="46.63244" lon="5.36031">
        <ele>185.2</ele>
        <time>2022-01-10T14:14:06Z</time>
      </trkpt>
      <trkpt lat="46.63244" lon="5.36045">
        <ele>185.2</ele>
        <time>2022-01-10T14:14:08Z</time>
      </trkpt>
      <trkpt lat="46.63243" lon="5.36052">
        <ele>185.4</ele>
        <time>2022-01-10T14:14:09Z</time>
      </trkpt>
      <trkpt lat="46.63238" lon="5.36099">
        <ele>186.8</ele>
        <time>2022-01-10T14:14:16Z</time>
      </trkpt>
      <trkpt lat="46.63237" lon="5.36106">
        <ele>187.2</ele>
        <time>2022-01-10T14:14:17Z</time>
      </trkpt>
      <trkpt lat="46.63235" lon="5.3614">
        <ele>188.2</ele>
        <time>2022-01-10T14:14:22Z</time>
      </trkpt>
      <trkpt lat="46.63232" lon="5.36161">
        <ele>189.4</ele>
        <time>2022-01-10T14:14:25Z</time>
      </trkpt>
      <trkpt lat="46.63225" lon="5.36205">
        <ele>190.4</ele>
        <time>2022-01-10T14:14:31Z</time>
      </trkpt>
      <trkpt lat="46.63222" lon="5.36222">
        <ele>190.6</ele>
        <time>2022-01-10T14:14:33Z</time>
      </trkpt>
      <trkpt lat="46.63209" lon="5.36278">
        <ele>190.4</ele>
        <time>2022-01-10T14:14:40Z</time>
      </trkpt>
      <trkpt lat="46.63198" lon="5.3633">
        <ele>189.2</ele>
        <time>2022-01-10T14:14:44Z</time>
      </trkpt>
      <trkpt lat="46.63193" lon="5.3635">
        <ele>188.2</ele>
        <time>2022-01-10T14:14:46Z</time>
      </trkpt>
      <trkpt lat="46.63191" lon="5.36361">
        <ele>187.8</ele>
        <time>2022-01-10T14:14:47Z</time>
      </trkpt>
      <trkpt lat="46.63185" lon="5.36391">
        <ele>187</ele>
        <time>2022-01-10T14:14:50Z</time>
      </trkpt>
      <trkpt lat="46.63184" lon="5.36411">
        <ele>187</ele>
        <time>2022-01-10T14:14:52Z</time>
      </trkpt>
      <trkpt lat="46.63191" lon="5.36428">
        <ele>186.8</ele>
        <time>2022-01-10T14:14:54Z</time>
      </trkpt>
      <trkpt lat="46.63196" lon="5.36435">
        <ele>186.8</ele>
        <time>2022-01-10T14:14:55Z</time>
      </trkpt>
      <trkpt lat="46.63217" lon="5.36456">
        <ele>186.8</ele>
        <time>2022-01-10T14:14:59Z</time>
      </trkpt>
      <trkpt lat="46.63222" lon="5.36463">
        <ele>186.8</ele>
        <time>2022-01-10T14:15:00Z</time>
      </trkpt>
      <trkpt lat="46.63229" lon="5.36478">
        <ele>186.6</ele>
        <time>2022-01-10T14:15:02Z</time>
      </trkpt>
      <trkpt lat="46.63231" lon="5.36496">
        <ele>186.6</ele>
        <time>2022-01-10T14:15:04Z</time>
      </trkpt>
      <trkpt lat="46.63227" lon="5.36536">
        <ele>186.8</ele>
        <time>2022-01-10T14:15:09Z</time>
      </trkpt>
      <trkpt lat="46.63219" lon="5.36575">
        <ele>187.8</ele>
        <time>2022-01-10T14:15:14Z</time>
      </trkpt>
      <trkpt lat="46.63218" lon="5.36581">
        <ele>188</ele>
        <time>2022-01-10T14:15:15Z</time>
      </trkpt>
      <trkpt lat="46.63211" lon="5.36621">
        <ele>189</ele>
        <time>2022-01-10T14:15:21Z</time>
      </trkpt>
      <trkpt lat="46.63209" lon="5.36627">
        <ele>189.2</ele>
        <time>2022-01-10T14:15:22Z</time>
      </trkpt>
      <trkpt lat="46.63204" lon="5.36654">
        <ele>190</ele>
        <time>2022-01-10T14:15:26Z</time>
      </trkpt>
      <trkpt lat="46.63201" lon="5.36672">
        <ele>190.6</ele>
        <time>2022-01-10T14:15:29Z</time>
      </trkpt>
      <trkpt lat="46.63199" lon="5.36692">
        <ele>191.4</ele>
        <time>2022-01-10T14:15:32Z</time>
      </trkpt>
      <trkpt lat="46.63196" lon="5.36717">
        <ele>192.4</ele>
        <time>2022-01-10T14:15:36Z</time>
      </trkpt>
      <trkpt lat="46.63195" lon="5.3673">
        <ele>193</ele>
        <time>2022-01-10T14:15:38Z</time>
      </trkpt>
      <trkpt lat="46.63195" lon="5.36737">
        <ele>193.4</ele>
        <time>2022-01-10T14:15:39Z</time>
      </trkpt>
      <trkpt lat="46.63194" lon="5.36782">
        <ele>194.2</ele>
        <time>2022-01-10T14:15:45Z</time>
      </trkpt>
      <trkpt lat="46.63193" lon="5.36791">
        <ele>194.4</ele>
        <time>2022-01-10T14:15:46Z</time>
      </trkpt>
      <trkpt lat="46.63186" lon="5.36835">
        <ele>195.2</ele>
        <time>2022-01-10T14:15:52Z</time>
      </trkpt>
      <trkpt lat="46.63181" lon="5.36858">
        <ele>195.6</ele>
        <time>2022-01-10T14:15:55Z</time>
      </trkpt>
      <trkpt lat="46.63174" lon="5.36898">
        <ele>196</ele>
        <time>2022-01-10T14:16:01Z</time>
      </trkpt>
      <trkpt lat="46.63169" lon="5.3692">
        <ele>196.6</ele>
        <time>2022-01-10T14:16:04Z</time>
      </trkpt>
      <trkpt lat="46.63168" lon="5.36925">
        <ele>196.6</ele>
        <time>2022-01-10T14:16:05Z</time>
      </trkpt>
      <trkpt lat="46.6316" lon="5.36946">
        <ele>197</ele>
        <time>2022-01-10T14:16:09Z</time>
      </trkpt>
      <trkpt lat="46.63151" lon="5.36971">
        <ele>197</ele>
        <time>2022-01-10T14:16:12Z</time>
      </trkpt>
      <trkpt lat="46.63145" lon="5.36978">
        <ele>197</ele>
        <time>2022-01-10T14:16:14Z</time>
      </trkpt>
      <trkpt lat="46.63135" lon="5.36979">
        <ele>197</ele>
        <time>2022-01-10T14:16:16Z</time>
      </trkpt>
      <trkpt lat="46.6313" lon="5.36977">
        <ele>196.8</ele>
        <time>2022-01-10T14:16:17Z</time>
      </trkpt>
      <trkpt lat="46.63098" lon="5.36962">
        <ele>195.4</ele>
        <time>2022-01-10T14:16:22Z</time>
      </trkpt>
      <trkpt lat="46.63057" lon="5.3694">
        <ele>193.8</ele>
        <time>2022-01-10T14:16:28Z</time>
      </trkpt>
      <trkpt lat="46.63049" lon="5.36933">
        <ele>193.4</ele>
        <time>2022-01-10T14:16:29Z</time>
      </trkpt>
      <trkpt lat="46.63037" lon="5.36918">
        <ele>192.8</ele>
        <time>2022-01-10T14:16:31Z</time>
      </trkpt>
      <trkpt lat="46.63032" lon="5.36911">
        <ele>192.6</ele>
        <time>2022-01-10T14:16:32Z</time>
      </trkpt>
      <trkpt lat="46.63007" lon="5.36881">
        <ele>191.6</ele>
        <time>2022-01-10T14:16:36Z</time>
      </trkpt>
      <trkpt lat="46.62992" lon="5.36865">
        <ele>191</ele>
        <time>2022-01-10T14:16:38Z</time>
      </trkpt>
      <trkpt lat="46.62978" lon="5.36852">
        <ele>190.4</ele>
        <time>2022-01-10T14:16:40Z</time>
      </trkpt>
      <trkpt lat="46.62949" lon="5.36826">
        <ele>190</ele>
        <time>2022-01-10T14:16:44Z</time>
      </trkpt>
      <trkpt lat="46.62911" lon="5.36803">
        <ele>189.4</ele>
        <time>2022-01-10T14:16:49Z</time>
      </trkpt>
      <trkpt lat="46.62852" lon="5.36783">
        <ele>188.2</ele>
        <time>2022-01-10T14:16:56Z</time>
      </trkpt>
      <trkpt lat="46.62818" lon="5.36771">
        <ele>187.2</ele>
        <time>2022-01-10T14:17:00Z</time>
      </trkpt>
      <trkpt lat="46.62797" lon="5.36766">
        <ele>186.4</ele>
        <time>2022-01-10T14:17:02Z</time>
      </trkpt>
      <trkpt lat="46.6279" lon="5.36765">
        <ele>186.2</ele>
        <time>2022-01-10T14:17:03Z</time>
      </trkpt>
      <trkpt lat="46.62759" lon="5.3676">
        <ele>185</ele>
        <time>2022-01-10T14:17:06Z</time>
      </trkpt>
      <trkpt lat="46.62732" lon="5.36756">
        <ele>184</ele>
        <time>2022-01-10T14:17:09Z</time>
      </trkpt>
      <trkpt lat="46.62712" lon="5.36752">
        <ele>183</ele>
        <time>2022-01-10T14:17:11Z</time>
      </trkpt>
      <trkpt lat="46.62705" lon="5.36751">
        <ele>182.8</ele>
        <time>2022-01-10T14:17:12Z</time>
      </trkpt>
      <trkpt lat="46.62644" lon="5.36742">
        <ele>182.4</ele>
        <time>2022-01-10T14:17:19Z</time>
      </trkpt>
      <trkpt lat="46.62586" lon="5.36734">
        <ele>182.4</ele>
        <time>2022-01-10T14:17:26Z</time>
      </trkpt>
      <trkpt lat="46.62579" lon="5.36732">
        <ele>182.4</ele>
        <time>2022-01-10T14:17:27Z</time>
      </trkpt>
      <trkpt lat="46.62543" lon="5.36726">
        <ele>182.8</ele>
        <time>2022-01-10T14:17:32Z</time>
      </trkpt>
      <trkpt lat="46.6249" lon="5.36717">
        <ele>183.8</ele>
        <time>2022-01-10T14:17:40Z</time>
      </trkpt>
      <trkpt lat="46.62482" lon="5.36715">
        <ele>184</ele>
        <time>2022-01-10T14:17:41Z</time>
      </trkpt>
      <trkpt lat="46.62436" lon="5.36709">
        <ele>184.6</ele>
        <time>2022-01-10T14:17:48Z</time>
      </trkpt>
      <trkpt lat="46.62436" lon="5.36709">
        <ele>184.6</ele>
        <time>2022-01-10T14:17:49Z</time>
      </trkpt>
      <trkpt lat="46.62383" lon="5.367">
        <ele>184.8</ele>
        <time>2022-01-10T14:17:56Z</time>
      </trkpt>
      <trkpt lat="46.62378" lon="5.36699">
        <ele>185</ele>
        <time>2022-01-10T14:17:57Z</time>
      </trkpt>
      <trkpt lat="46.62319" lon="5.3669">
        <ele>185.4</ele>
        <time>2022-01-10T14:18:06Z</time>
      </trkpt>
      <trkpt lat="46.623" lon="5.36686">
        <ele>185.4</ele>
        <time>2022-01-10T14:18:09Z</time>
      </trkpt>
      <trkpt lat="46.62269" lon="5.36681">
        <ele>185.8</ele>
        <time>2022-01-10T14:18:14Z</time>
      </trkpt>
      <trkpt lat="46.62244" lon="5.36679">
        <ele>186.6</ele>
        <time>2022-01-10T14:18:18Z</time>
      </trkpt>
      <trkpt lat="46.62238" lon="5.36678">
        <ele>187</ele>
        <time>2022-01-10T14:18:19Z</time>
      </trkpt>
      <trkpt lat="46.62209" lon="5.36672">
        <ele>187.8</ele>
        <time>2022-01-10T14:18:24Z</time>
      </trkpt>
      <trkpt lat="46.62184" lon="5.36666">
        <ele>188.2</ele>
        <time>2022-01-10T14:18:28Z</time>
      </trkpt>
      <trkpt lat="46.62179" lon="5.36665">
        <ele>188.6</ele>
        <time>2022-01-10T14:18:29Z</time>
      </trkpt>
      <trkpt lat="46.62153" lon="5.36657">
        <ele>189.2</ele>
        <time>2022-01-10T14:18:33Z</time>
      </trkpt>
      <trkpt lat="46.62149" lon="5.36655">
        <ele>189.2</ele>
        <time>2022-01-10T14:18:34Z</time>
      </trkpt>
      <trkpt lat="46.62094" lon="5.36637">
        <ele>189.8</ele>
        <time>2022-01-10T14:18:43Z</time>
      </trkpt>
      <trkpt lat="46.62079" lon="5.36633">
        <ele>189.8</ele>
        <time>2022-01-10T14:18:45Z</time>
      </trkpt>
      <trkpt lat="46.62022" lon="5.36618">
        <ele>189.4</ele>
        <time>2022-01-10T14:18:53Z</time>
      </trkpt>
      <trkpt lat="46.62013" lon="5.36616">
        <ele>189.4</ele>
        <time>2022-01-10T14:18:54Z</time>
      </trkpt>
      <trkpt lat="46.61972" lon="5.36604">
        <ele>188.4</ele>
        <time>2022-01-10T14:19:01Z</time>
      </trkpt>
      <trkpt lat="46.61963" lon="5.366">
        <ele>188.2</ele>
        <time>2022-01-10T14:19:02Z</time>
      </trkpt>
      <trkpt lat="46.61958" lon="5.36598">
        <ele>187.8</ele>
        <time>2022-01-10T14:19:04Z</time>
      </trkpt>
      <trkpt lat="46.6195" lon="5.36592">
        <ele>187</ele>
        <time>2022-01-10T14:19:07Z</time>
      </trkpt>
      <trkpt lat="46.61945" lon="5.36588">
        <ele>187</ele>
        <time>2022-01-10T14:19:08Z</time>
      </trkpt>
      <trkpt lat="46.61922" lon="5.36562">
        <ele>186.8</ele>
        <time>2022-01-10T14:19:14Z</time>
      </trkpt>
      <trkpt lat="46.61891" lon="5.36531">
        <ele>187.8</ele>
        <time>2022-01-10T14:19:21Z</time>
      </trkpt>
      <trkpt lat="46.61881" lon="5.36523">
        <ele>188.2</ele>
        <time>2022-01-10T14:19:23Z</time>
      </trkpt>
      <trkpt lat="46.61854" lon="5.36501">
        <ele>189.2</ele>
        <time>2022-01-10T14:19:28Z</time>
      </trkpt>
      <trkpt lat="46.61844" lon="5.36493">
        <ele>189.8</ele>
        <time>2022-01-10T14:19:30Z</time>
      </trkpt>
      <trkpt lat="46.61828" lon="5.36482">
        <ele>190.2</ele>
        <time>2022-01-10T14:19:33Z</time>
      </trkpt>
      <trkpt lat="46.61801" lon="5.36462">
        <ele>190.8</ele>
        <time>2022-01-10T14:19:38Z</time>
      </trkpt>
      <trkpt lat="46.61773" lon="5.36435">
        <ele>191</ele>
        <time>2022-01-10T14:19:43Z</time>
      </trkpt>
      <trkpt lat="46.61768" lon="5.36428">
        <ele>191</ele>
        <time>2022-01-10T14:19:44Z</time>
      </trkpt>
      <trkpt lat="46.61746" lon="5.36397">
        <ele>191</ele>
        <time>2022-01-10T14:19:49Z</time>
      </trkpt>
      <trkpt lat="46.61741" lon="5.36393">
        <ele>191</ele>
        <time>2022-01-10T14:19:51Z</time>
      </trkpt>
      <trkpt lat="46.61729" lon="5.36385">
        <ele>191.2</ele>
        <time>2022-01-10T14:19:52Z</time>
      </trkpt>
      <trkpt lat="46.61723" lon="5.36384">
        <ele>191.2</ele>
        <time>2022-01-10T14:19:54Z</time>
      </trkpt>
      <trkpt lat="46.61711" lon="5.36382">
        <ele>191.4</ele>
        <time>2022-01-10T14:19:55Z</time>
      </trkpt>
      <trkpt lat="46.61691" lon="5.36386">
        <ele>191.8</ele>
        <time>2022-01-10T14:19:58Z</time>
      </trkpt>
      <trkpt lat="46.61679" lon="5.36391">
        <ele>192.2</ele>
        <time>2022-01-10T14:20:00Z</time>
      </trkpt>
      <trkpt lat="46.61672" lon="5.36394">
        <ele>192.2</ele>
        <time>2022-01-10T14:20:01Z</time>
      </trkpt>
      <trkpt lat="46.61665" lon="5.36396">
        <ele>192.2</ele>
        <time>2022-01-10T14:20:02Z</time>
      </trkpt>
      <trkpt lat="46.61658" lon="5.36396">
        <ele>192.4</ele>
        <time>2022-01-10T14:20:03Z</time>
      </trkpt>
      <trkpt lat="46.61646" lon="5.36391">
        <ele>192.4</ele>
        <time>2022-01-10T14:20:05Z</time>
      </trkpt>
      <trkpt lat="46.61636" lon="5.36378">
        <ele>192.4</ele>
        <time>2022-01-10T14:20:07Z</time>
      </trkpt>
      <trkpt lat="46.61633" lon="5.3637">
        <ele>192.4</ele>
        <time>2022-01-10T14:20:08Z</time>
      </trkpt>
      <trkpt lat="46.61625" lon="5.36339">
        <ele>192.6</ele>
        <time>2022-01-10T14:20:12Z</time>
      </trkpt>
      <trkpt lat="46.61623" lon="5.36333">
        <ele>192.8</ele>
        <time>2022-01-10T14:20:13Z</time>
      </trkpt>
      <trkpt lat="46.61619" lon="5.36326">
        <ele>192.8</ele>
        <time>2022-01-10T14:20:14Z</time>
      </trkpt>
      <trkpt lat="46.6161" lon="5.36313">
        <ele>193.2</ele>
        <time>2022-01-10T14:20:16Z</time>
      </trkpt>
      <trkpt lat="46.61605" lon="5.36309">
        <ele>193.4</ele>
        <time>2022-01-10T14:20:17Z</time>
      </trkpt>
      <trkpt lat="46.61563" lon="5.36282">
        <ele>194.4</ele>
        <time>2022-01-10T14:20:24Z</time>
      </trkpt>
      <trkpt lat="46.61558" lon="5.36279">
        <ele>194.4</ele>
        <time>2022-01-10T14:20:25Z</time>
      </trkpt>
      <trkpt lat="46.61521" lon="5.36257">
        <ele>194.8</ele>
        <time>2022-01-10T14:20:31Z</time>
      </trkpt>
      <trkpt lat="46.61507" lon="5.36251">
        <ele>194.8</ele>
        <time>2022-01-10T14:20:33Z</time>
      </trkpt>
      <trkpt lat="46.61494" lon="5.36249">
        <ele>194.8</ele>
        <time>2022-01-10T14:20:35Z</time>
      </trkpt>
      <trkpt lat="46.61474" lon="5.36251">
        <ele>194.6</ele>
        <time>2022-01-10T14:20:38Z</time>
      </trkpt>
      <trkpt lat="46.61455" lon="5.36255">
        <ele>194.6</ele>
        <time>2022-01-10T14:20:41Z</time>
      </trkpt>
      <trkpt lat="46.61429" lon="5.36256">
        <ele>194.6</ele>
        <time>2022-01-10T14:20:45Z</time>
      </trkpt>
      <trkpt lat="46.61416" lon="5.36252">
        <ele>194.8</ele>
        <time>2022-01-10T14:20:47Z</time>
      </trkpt>
      <trkpt lat="46.61382" lon="5.36231">
        <ele>194.8</ele>
        <time>2022-01-10T14:20:53Z</time>
      </trkpt>
      <trkpt lat="46.61349" lon="5.3621">
        <ele>194.4</ele>
        <time>2022-01-10T14:20:57Z</time>
      </trkpt>
      <trkpt lat="46.61326" lon="5.36202">
        <ele>194.2</ele>
        <time>2022-01-10T14:21:00Z</time>
      </trkpt>
      <trkpt lat="46.61271" lon="5.36182">
        <ele>193.4</ele>
        <time>2022-01-10T14:21:07Z</time>
      </trkpt>
      <trkpt lat="46.61264" lon="5.36177">
        <ele>193.4</ele>
        <time>2022-01-10T14:21:08Z</time>
      </trkpt>
      <trkpt lat="46.61241" lon="5.36153">
        <ele>193</ele>
        <time>2022-01-10T14:21:12Z</time>
      </trkpt>
      <trkpt lat="46.61217" lon="5.36112">
        <ele>193.2</ele>
        <time>2022-01-10T14:21:17Z</time>
      </trkpt>
      <trkpt lat="46.61189" lon="5.36051">
        <ele>193.8</ele>
        <time>2022-01-10T14:21:24Z</time>
      </trkpt>
      <trkpt lat="46.61177" lon="5.36037">
        <ele>193.8</ele>
        <time>2022-01-10T14:21:26Z</time>
      </trkpt>
      <trkpt lat="46.61164" lon="5.36025">
        <ele>193.6</ele>
        <time>2022-01-10T14:21:28Z</time>
      </trkpt>
      <trkpt lat="46.61114" lon="5.35988">
        <ele>193.2</ele>
        <time>2022-01-10T14:21:35Z</time>
      </trkpt>
      <trkpt lat="46.61089" lon="5.35961">
        <ele>193</ele>
        <time>2022-01-10T14:21:39Z</time>
      </trkpt>
      <trkpt lat="46.61084" lon="5.35952">
        <ele>193</ele>
        <time>2022-01-10T14:21:40Z</time>
      </trkpt>
      <trkpt lat="46.61054" lon="5.35892">
        <ele>193</ele>
        <time>2022-01-10T14:21:47Z</time>
      </trkpt>
      <trkpt lat="46.61019" lon="5.35822">
        <ele>193.4</ele>
        <time>2022-01-10T14:21:55Z</time>
      </trkpt>
      <trkpt lat="46.6101" lon="5.35802">
        <ele>193.4</ele>
        <time>2022-01-10T14:21:57Z</time>
      </trkpt>
      <trkpt lat="46.60975" lon="5.35731">
        <ele>193.2</ele>
        <time>2022-01-10T14:22:05Z</time>
      </trkpt>
      <trkpt lat="46.60972" lon="5.35723">
        <ele>193.2</ele>
        <time>2022-01-10T14:22:06Z</time>
      </trkpt>
      <trkpt lat="46.60945" lon="5.3565">
        <ele>193.4</ele>
        <time>2022-01-10T14:22:14Z</time>
      </trkpt>
      <trkpt lat="46.60942" lon="5.35638">
        <ele>193.6</ele>
        <time>2022-01-10T14:22:15Z</time>
      </trkpt>
      <trkpt lat="46.60942" lon="5.35621">
        <ele>193.6</ele>
        <time>2022-01-10T14:22:17Z</time>
      </trkpt>
      <trkpt lat="46.60943" lon="5.35611">
        <ele>193.8</ele>
        <time>2022-01-10T14:22:18Z</time>
      </trkpt>
      <trkpt lat="46.60944" lon="5.35602">
        <ele>194</ele>
        <time>2022-01-10T14:22:19Z</time>
      </trkpt>
      <trkpt lat="46.60952" lon="5.35566">
        <ele>194.2</ele>
        <time>2022-01-10T14:22:23Z</time>
      </trkpt>
      <trkpt lat="46.60955" lon="5.35545">
        <ele>194.4</ele>
        <time>2022-01-10T14:22:25Z</time>
      </trkpt>
      <trkpt lat="46.60957" lon="5.35508">
        <ele>194.8</ele>
        <time>2022-01-10T14:22:29Z</time>
      </trkpt>
      <trkpt lat="46.60949" lon="5.35448">
        <ele>195.4</ele>
        <time>2022-01-10T14:22:35Z</time>
      </trkpt>
      <trkpt lat="46.60939" lon="5.3543">
        <ele>195.6</ele>
        <time>2022-01-10T14:22:37Z</time>
      </trkpt>
      <trkpt lat="46.60934" lon="5.35425">
        <ele>195.8</ele>
        <time>2022-01-10T14:22:38Z</time>
      </trkpt>
      <trkpt lat="46.60901" lon="5.35404">
        <ele>196.2</ele>
        <time>2022-01-10T14:22:43Z</time>
      </trkpt>
      <trkpt lat="46.60881" lon="5.35394">
        <ele>196.2</ele>
        <time>2022-01-10T14:22:46Z</time>
      </trkpt>
      <trkpt lat="46.60869" lon="5.35393">
        <ele>196.2</ele>
        <time>2022-01-10T14:22:48Z</time>
      </trkpt>
      <trkpt lat="46.60855" lon="5.35398">
        <ele>196.2</ele>
        <time>2022-01-10T14:22:50Z</time>
      </trkpt>
      <trkpt lat="46.60841" lon="5.35407">
        <ele>196.2</ele>
        <time>2022-01-10T14:22:52Z</time>
      </trkpt>
      <trkpt lat="46.6082" lon="5.35422">
        <ele>195.8</ele>
        <time>2022-01-10T14:22:55Z</time>
      </trkpt>
      <trkpt lat="46.60803" lon="5.35426">
        <ele>195.6</ele>
        <time>2022-01-10T14:22:57Z</time>
      </trkpt>
      <trkpt lat="46.60788" lon="5.35425">
        <ele>195.2</ele>
        <time>2022-01-10T14:22:59Z</time>
      </trkpt>
      <trkpt lat="46.60771" lon="5.35418">
        <ele>194.6</ele>
        <time>2022-01-10T14:23:01Z</time>
      </trkpt>
      <trkpt lat="46.60763" lon="5.35413">
        <ele>194</ele>
        <time>2022-01-10T14:23:02Z</time>
      </trkpt>
      <trkpt lat="46.60748" lon="5.35403">
        <ele>193.4</ele>
        <time>2022-01-10T14:23:04Z</time>
      </trkpt>
      <trkpt lat="46.60736" lon="5.35391">
        <ele>193.2</ele>
        <time>2022-01-10T14:23:06Z</time>
      </trkpt>
      <trkpt lat="46.60729" lon="5.35383">
        <ele>193</ele>
        <time>2022-01-10T14:23:07Z</time>
      </trkpt>
      <trkpt lat="46.60702" lon="5.35343">
        <ele>191.8</ele>
        <time>2022-01-10T14:23:11Z</time>
      </trkpt>
      <trkpt lat="46.60697" lon="5.35336">
        <ele>191.4</ele>
        <time>2022-01-10T14:23:12Z</time>
      </trkpt>
      <trkpt lat="46.60683" lon="5.35316">
        <ele>190.8</ele>
        <time>2022-01-10T14:23:14Z</time>
      </trkpt>
      <trkpt lat="46.60669" lon="5.35303">
        <ele>189.6</ele>
        <time>2022-01-10T14:23:16Z</time>
      </trkpt>
      <trkpt lat="46.60634" lon="5.35281">
        <ele>188.6</ele>
        <time>2022-01-10T14:23:20Z</time>
      </trkpt>
      <trkpt lat="46.60627" lon="5.35276">
        <ele>188.2</ele>
        <time>2022-01-10T14:23:21Z</time>
      </trkpt>
      <trkpt lat="46.60602" lon="5.35252">
        <ele>187.4</ele>
        <time>2022-01-10T14:23:24Z</time>
      </trkpt>
      <trkpt lat="46.60596" lon="5.35245">
        <ele>187</ele>
        <time>2022-01-10T14:23:25Z</time>
      </trkpt>
      <trkpt lat="46.60577" lon="5.35217">
        <ele>186.2</ele>
        <time>2022-01-10T14:23:28Z</time>
      </trkpt>
      <trkpt lat="46.60566" lon="5.35201">
        <ele>185.2</ele>
        <time>2022-01-10T14:23:30Z</time>
      </trkpt>
      <trkpt lat="46.60558" lon="5.35191">
        <ele>184.6</ele>
        <time>2022-01-10T14:23:32Z</time>
      </trkpt>
      <trkpt lat="46.60554" lon="5.3519">
        <ele>184.4</ele>
        <time>2022-01-10T14:23:33Z</time>
      </trkpt>
      <trkpt lat="46.6055" lon="5.35192">
        <ele>184.2</ele>
        <time>2022-01-10T14:23:34Z</time>
      </trkpt>
      <trkpt lat="46.60542" lon="5.35202">
        <ele>183.6</ele>
        <time>2022-01-10T14:23:36Z</time>
      </trkpt>
      <trkpt lat="46.60532" lon="5.35218">
        <ele>183.2</ele>
        <time>2022-01-10T14:23:38Z</time>
      </trkpt>
      <trkpt lat="46.60526" lon="5.35227">
        <ele>183</ele>
        <time>2022-01-10T14:23:39Z</time>
      </trkpt>
      <trkpt lat="46.60514" lon="5.35247">
        <ele>182</ele>
        <time>2022-01-10T14:23:41Z</time>
      </trkpt>
      <trkpt lat="46.6049" lon="5.35288">
        <ele>180.8</ele>
        <time>2022-01-10T14:23:45Z</time>
      </trkpt>
      <trkpt lat="46.60448" lon="5.35353">
        <ele>179.8</ele>
        <time>2022-01-10T14:23:52Z</time>
      </trkpt>
      <trkpt lat="46.60444" lon="5.3536">
        <ele>179.8</ele>
        <time>2022-01-10T14:23:53Z</time>
      </trkpt>
      <trkpt lat="46.60407" lon="5.35415">
        <ele>179.4</ele>
        <time>2022-01-10T14:24:00Z</time>
      </trkpt>
      <trkpt lat="46.60366" lon="5.35474">
        <ele>179</ele>
        <time>2022-01-10T14:24:08Z</time>
      </trkpt>
      <trkpt lat="46.60352" lon="5.35495">
        <ele>179.2</ele>
        <time>2022-01-10T14:24:11Z</time>
      </trkpt>
      <trkpt lat="46.60323" lon="5.35549">
        <ele>179.4</ele>
        <time>2022-01-10T14:24:18Z</time>
      </trkpt>
      <trkpt lat="46.60319" lon="5.35558">
        <ele>179.4</ele>
        <time>2022-01-10T14:24:19Z</time>
      </trkpt>
      <trkpt lat="46.60309" lon="5.35594">
        <ele>179.4</ele>
        <time>2022-01-10T14:24:23Z</time>
      </trkpt>
      <trkpt lat="46.60302" lon="5.35645">
        <ele>179.2</ele>
        <time>2022-01-10T14:24:28Z</time>
      </trkpt>
      <trkpt lat="46.60302" lon="5.35652">
        <ele>179.2</ele>
        <time>2022-01-10T14:24:29Z</time>
      </trkpt>
      <trkpt lat="46.60306" lon="5.35717">
        <ele>179.4</ele>
        <time>2022-01-10T14:24:36Z</time>
      </trkpt>
      <trkpt lat="46.60315" lon="5.35764">
        <ele>179.6</ele>
        <time>2022-01-10T14:24:42Z</time>
      </trkpt>
      <trkpt lat="46.60316" lon="5.35777">
        <ele>180</ele>
        <time>2022-01-10T14:24:44Z</time>
      </trkpt>
      <trkpt lat="46.60314" lon="5.35786">
        <ele>180.2</ele>
        <time>2022-01-10T14:24:46Z</time>
      </trkpt>
      <trkpt lat="46.60305" lon="5.3579">
        <ele>180.8</ele>
        <time>2022-01-10T14:24:50Z</time>
      </trkpt>
      <trkpt lat="46.60303" lon="5.3579">
        <ele>181.2</ele>
        <time>2022-01-10T14:24:54Z</time>
      </trkpt>
      <trkpt lat="46.60307" lon="5.35788">
        <ele>181.4</ele>
        <time>2022-01-10T14:26:57Z</time>
      </trkpt>
      <trkpt lat="46.60315" lon="5.35786">
        <ele>181.4</ele>
        <time>2022-01-10T14:26:59Z</time>
      </trkpt>
      <trkpt lat="46.60323" lon="5.35796">
        <ele>181.2</ele>
        <time>2022-01-10T14:27:02Z</time>
      </trkpt>
      <trkpt lat="46.60324" lon="5.35802">
        <ele>181.2</ele>
        <time>2022-01-10T14:27:03Z</time>
      </trkpt>
      <trkpt lat="46.60326" lon="5.3582">
        <ele>181</ele>
        <time>2022-01-10T14:27:06Z</time>
      </trkpt>
      <trkpt lat="46.60331" lon="5.35842">
        <ele>181</ele>
        <time>2022-01-10T14:27:09Z</time>
      </trkpt>
      <trkpt lat="46.60334" lon="5.35856">
        <ele>181</ele>
        <time>2022-01-10T14:27:11Z</time>
      </trkpt>
      <trkpt lat="46.60336" lon="5.35872">
        <ele>181.4</ele>
        <time>2022-01-10T14:27:13Z</time>
      </trkpt>
      <trkpt lat="46.60342" lon="5.35911">
        <ele>182.2</ele>
        <time>2022-01-10T14:27:18Z</time>
      </trkpt>
      <trkpt lat="46.60341" lon="5.35966">
        <ele>182.4</ele>
        <time>2022-01-10T14:27:25Z</time>
      </trkpt>
      <trkpt lat="46.60336" lon="5.36016">
        <ele>182.4</ele>
        <time>2022-01-10T14:27:31Z</time>
      </trkpt>
      <trkpt lat="46.60322" lon="5.36079">
        <ele>182</ele>
        <time>2022-01-10T14:27:38Z</time>
      </trkpt>
      <trkpt lat="46.60308" lon="5.36128">
        <ele>181.4</ele>
        <time>2022-01-10T14:27:44Z</time>
      </trkpt>
      <trkpt lat="46.603" lon="5.36156">
        <ele>181</ele>
        <time>2022-01-10T14:27:47Z</time>
      </trkpt>
      <trkpt lat="46.6028" lon="5.36235">
        <ele>180.4</ele>
        <time>2022-01-10T14:27:55Z</time>
      </trkpt>
      <trkpt lat="46.60267" lon="5.36293">
        <ele>180.2</ele>
        <time>2022-01-10T14:28:01Z</time>
      </trkpt>
      <trkpt lat="46.60265" lon="5.36302">
        <ele>180.2</ele>
        <time>2022-01-10T14:28:02Z</time>
      </trkpt>
      <trkpt lat="46.60257" lon="5.36337">
        <ele>180</ele>
        <time>2022-01-10T14:28:06Z</time>
      </trkpt>
      <trkpt lat="46.60252" lon="5.36388">
        <ele>180.6</ele>
        <time>2022-01-10T14:28:12Z</time>
      </trkpt>
      <trkpt lat="46.60254" lon="5.36425">
        <ele>181.4</ele>
        <time>2022-01-10T14:28:17Z</time>
      </trkpt>
      <trkpt lat="46.60257" lon="5.36439">
        <ele>181.6</ele>
        <time>2022-01-10T14:28:19Z</time>
      </trkpt>
      <trkpt lat="46.60259" lon="5.36447">
        <ele>181.8</ele>
        <time>2022-01-10T14:28:20Z</time>
      </trkpt>
      <trkpt lat="46.60266" lon="5.36467">
        <ele>182.4</ele>
        <time>2022-01-10T14:28:23Z</time>
      </trkpt>
      <trkpt lat="46.60269" lon="5.36475">
        <ele>182.4</ele>
        <time>2022-01-10T14:28:24Z</time>
      </trkpt>
      <trkpt lat="46.60271" lon="5.3648">
        <ele>182.6</ele>
        <time>2022-01-10T14:28:25Z</time>
      </trkpt>
      <trkpt lat="46.6028" lon="5.36497">
        <ele>183</ele>
        <time>2022-01-10T14:28:28Z</time>
      </trkpt>
      <trkpt lat="46.60286" lon="5.36507">
        <ele>183.6</ele>
        <time>2022-01-10T14:28:30Z</time>
      </trkpt>
      <trkpt lat="46.60293" lon="5.36517">
        <ele>183.8</ele>
        <time>2022-01-10T14:28:32Z</time>
      </trkpt>
      <trkpt lat="46.60312" lon="5.36538">
        <ele>184.8</ele>
        <time>2022-01-10T14:28:37Z</time>
      </trkpt>
      <trkpt lat="46.6032" lon="5.36547">
        <ele>185.4</ele>
        <time>2022-01-10T14:28:39Z</time>
      </trkpt>
      <trkpt lat="46.60325" lon="5.36551">
        <ele>185.6</ele>
        <time>2022-01-10T14:28:40Z</time>
      </trkpt>
      <trkpt lat="46.60328" lon="5.36554">
        <ele>186</ele>
        <time>2022-01-10T14:28:41Z</time>
      </trkpt>
      <trkpt lat="46.60352" lon="5.36577">
        <ele>187</ele>
        <time>2022-01-10T14:28:47Z</time>
      </trkpt>
      <trkpt lat="46.60359" lon="5.36583">
        <ele>187.2</ele>
        <time>2022-01-10T14:28:49Z</time>
      </trkpt>
      <trkpt lat="46.60375" lon="5.36599">
        <ele>187.4</ele>
        <time>2022-01-10T14:28:53Z</time>
      </trkpt>
      <trkpt lat="46.60382" lon="5.36606">
        <ele>188</ele>
        <time>2022-01-10T14:28:55Z</time>
      </trkpt>
      <trkpt lat="46.60389" lon="5.36614">
        <ele>188</ele>
        <time>2022-01-10T14:28:57Z</time>
      </trkpt>
      <trkpt lat="46.60399" lon="5.36627">
        <ele>188.8</ele>
        <time>2022-01-10T14:29:00Z</time>
      </trkpt>
      <trkpt lat="46.60402" lon="5.36631">
        <ele>188.8</ele>
        <time>2022-01-10T14:29:01Z</time>
      </trkpt>
      <trkpt lat="46.60407" lon="5.36637">
        <ele>189.2</ele>
        <time>2022-01-10T14:29:02Z</time>
      </trkpt>
      <trkpt lat="46.60419" lon="5.36658">
        <ele>190</ele>
        <time>2022-01-10T14:29:06Z</time>
      </trkpt>
      <trkpt lat="46.60422" lon="5.36663">
        <ele>190</ele>
        <time>2022-01-10T14:29:07Z</time>
      </trkpt>
      <trkpt lat="46.60433" lon="5.36686">
        <ele>190.4</ele>
        <time>2022-01-10T14:29:11Z</time>
      </trkpt>
      <trkpt lat="46.60439" lon="5.36707">
        <ele>190.6</ele>
        <time>2022-01-10T14:29:14Z</time>
      </trkpt>
      <trkpt lat="46.6045" lon="5.36764">
        <ele>190.4</ele>
        <time>2022-01-10T14:29:21Z</time>
      </trkpt>
      <trkpt lat="46.60455" lon="5.36837">
        <ele>189</ele>
        <time>2022-01-10T14:29:29Z</time>
      </trkpt>
      <trkpt lat="46.60455" lon="5.36847">
        <ele>188.8</ele>
        <time>2022-01-10T14:29:30Z</time>
      </trkpt>
      <trkpt lat="46.60455" lon="5.36878">
        <ele>187.8</ele>
        <time>2022-01-10T14:29:33Z</time>
      </trkpt>
      <trkpt lat="46.60454" lon="5.36888">
        <ele>187.4</ele>
        <time>2022-01-10T14:29:34Z</time>
      </trkpt>
      <trkpt lat="46.60453" lon="5.36899">
        <ele>187</ele>
        <time>2022-01-10T14:29:35Z</time>
      </trkpt>
      <trkpt lat="46.60449" lon="5.36932">
        <ele>186.2</ele>
        <time>2022-01-10T14:29:38Z</time>
      </trkpt>
      <trkpt lat="46.60446" lon="5.36953">
        <ele>185</ele>
        <time>2022-01-10T14:29:40Z</time>
      </trkpt>
      <trkpt lat="46.60443" lon="5.36978">
        <ele>184.2</ele>
        <time>2022-01-10T14:29:42Z</time>
      </trkpt>
      <trkpt lat="46.6044" lon="5.37">
        <ele>183.8</ele>
        <time>2022-01-10T14:29:44Z</time>
      </trkpt>
      <trkpt lat="46.6043" lon="5.37066">
        <ele>182.8</ele>
        <time>2022-01-10T14:29:50Z</time>
      </trkpt>
      <trkpt lat="46.60424" lon="5.37115">
        <ele>182.6</ele>
        <time>2022-01-10T14:29:55Z</time>
      </trkpt>
      <trkpt lat="46.60418" lon="5.37166">
        <ele>183.2</ele>
        <time>2022-01-10T14:30:01Z</time>
      </trkpt>
      <trkpt lat="46.60414" lon="5.37196">
        <ele>183.8</ele>
        <time>2022-01-10T14:30:05Z</time>
      </trkpt>
      <trkpt lat="46.60412" lon="5.3722">
        <ele>184.6</ele>
        <time>2022-01-10T14:30:08Z</time>
      </trkpt>
      <trkpt lat="46.60411" lon="5.37229">
        <ele>184.6</ele>
        <time>2022-01-10T14:30:09Z</time>
      </trkpt>
      <trkpt lat="46.60407" lon="5.37252">
        <ele>185</ele>
        <time>2022-01-10T14:30:12Z</time>
      </trkpt>
      <trkpt lat="46.60404" lon="5.37267">
        <ele>185.2</ele>
        <time>2022-01-10T14:30:14Z</time>
      </trkpt>
      <trkpt lat="46.6039" lon="5.37301">
        <ele>185.6</ele>
        <time>2022-01-10T14:30:19Z</time>
      </trkpt>
      <trkpt lat="46.60385" lon="5.37308">
        <ele>186</ele>
        <time>2022-01-10T14:30:21Z</time>
      </trkpt>
      <trkpt lat="46.60376" lon="5.37317">
        <ele>186.8</ele>
        <time>2022-01-10T14:30:24Z</time>
      </trkpt>
      <trkpt lat="46.60372" lon="5.3732">
        <ele>187.2</ele>
        <time>2022-01-10T14:30:25Z</time>
      </trkpt>
      <trkpt lat="46.60363" lon="5.37326">
        <ele>188.2</ele>
        <time>2022-01-10T14:30:28Z</time>
      </trkpt>
      <trkpt lat="46.60361" lon="5.37327">
        <ele>188.6</ele>
        <time>2022-01-10T14:30:29Z</time>
      </trkpt>
      <trkpt lat="46.6035" lon="5.37331">
        <ele>189.4</ele>
        <time>2022-01-10T14:30:32Z</time>
      </trkpt>
      <trkpt lat="46.60341" lon="5.37334">
        <ele>190</ele>
        <time>2022-01-10T14:30:34Z</time>
      </trkpt>
      <trkpt lat="46.60336" lon="5.37335">
        <ele>190.6</ele>
        <time>2022-01-10T14:30:35Z</time>
      </trkpt>
      <trkpt lat="46.6032" lon="5.37342">
        <ele>191.6</ele>
        <time>2022-01-10T14:30:39Z</time>
      </trkpt>
      <trkpt lat="46.60316" lon="5.37342">
        <ele>191.8</ele>
        <time>2022-01-10T14:30:40Z</time>
      </trkpt>
      <trkpt lat="46.60294" lon="5.37345">
        <ele>192.8</ele>
        <time>2022-01-10T14:30:45Z</time>
      </trkpt>
      <trkpt lat="46.60289" lon="5.37346">
        <ele>193.2</ele>
        <time>2022-01-10T14:30:46Z</time>
      </trkpt>
      <trkpt lat="46.60283" lon="5.37348">
        <ele>193.4</ele>
        <time>2022-01-10T14:30:47Z</time>
      </trkpt>
      <trkpt lat="46.60275" lon="5.37353">
        <ele>194</ele>
        <time>2022-01-10T14:30:49Z</time>
      </trkpt>
      <trkpt lat="46.60271" lon="5.37358">
        <ele>194.2</ele>
        <time>2022-01-10T14:30:50Z</time>
      </trkpt>
      <trkpt lat="46.60259" lon="5.37379">
        <ele>194.8</ele>
        <time>2022-01-10T14:30:53Z</time>
      </trkpt>
      <trkpt lat="46.60257" lon="5.37385">
        <ele>194.8</ele>
        <time>2022-01-10T14:30:54Z</time>
      </trkpt>
      <trkpt lat="46.60237" lon="5.37439">
        <ele>194.6</ele>
        <time>2022-01-10T14:31:00Z</time>
      </trkpt>
      <trkpt lat="46.6022" lon="5.375">
        <ele>193.4</ele>
        <time>2022-01-10T14:31:05Z</time>
      </trkpt>
      <trkpt lat="46.60217" lon="5.3751">
        <ele>193</ele>
        <time>2022-01-10T14:31:06Z</time>
      </trkpt>
      <trkpt lat="46.60209" lon="5.37549">
        <ele>191.6</ele>
        <time>2022-01-10T14:31:09Z</time>
      </trkpt>
      <trkpt lat="46.602" lon="5.37591">
        <ele>191</ele>
        <time>2022-01-10T14:31:12Z</time>
      </trkpt>
      <trkpt lat="46.60198" lon="5.37602">
        <ele>190.4</ele>
        <time>2022-01-10T14:31:13Z</time>
      </trkpt>
      <trkpt lat="46.60189" lon="5.37654">
        <ele>189.2</ele>
        <time>2022-01-10T14:31:17Z</time>
      </trkpt>
      <trkpt lat="46.60181" lon="5.37692">
        <ele>188</ele>
        <time>2022-01-10T14:31:20Z</time>
      </trkpt>
      <trkpt lat="46.60177" lon="5.37717">
        <ele>186.8</ele>
        <time>2022-01-10T14:31:22Z</time>
      </trkpt>
      <trkpt lat="46.60174" lon="5.3773">
        <ele>186</ele>
        <time>2022-01-10T14:31:23Z</time>
      </trkpt>
      <trkpt lat="46.60172" lon="5.37745">
        <ele>185.8</ele>
        <time>2022-01-10T14:31:24Z</time>
      </trkpt>
      <trkpt lat="46.60161" lon="5.37801">
        <ele>184.4</ele>
        <time>2022-01-10T14:31:29Z</time>
      </trkpt>
      <trkpt lat="46.60148" lon="5.37868">
        <ele>184.2</ele>
        <time>2022-01-10T14:31:36Z</time>
      </trkpt>
      <trkpt lat="46.60145" lon="5.37884">
        <ele>184.2</ele>
        <time>2022-01-10T14:31:38Z</time>
      </trkpt>
      <trkpt lat="46.6014" lon="5.3791">
        <ele>184.2</ele>
        <time>2022-01-10T14:31:41Z</time>
      </trkpt>
      <trkpt lat="46.60126" lon="5.37976">
        <ele>184.8</ele>
        <time>2022-01-10T14:31:49Z</time>
      </trkpt>
      <trkpt lat="46.60119" lon="5.38016">
        <ele>185.6</ele>
        <time>2022-01-10T14:31:54Z</time>
      </trkpt>
      <trkpt lat="46.60114" lon="5.3805">
        <ele>186.2</ele>
        <time>2022-01-10T14:31:58Z</time>
      </trkpt>
      <trkpt lat="46.6011" lon="5.38077">
        <ele>187</ele>
        <time>2022-01-10T14:32:01Z</time>
      </trkpt>
      <trkpt lat="46.60103" lon="5.38132">
        <ele>187.6</ele>
        <time>2022-01-10T14:32:07Z</time>
      </trkpt>
      <trkpt lat="46.60095" lon="5.38215">
        <ele>187</ele>
        <time>2022-01-10T14:32:16Z</time>
      </trkpt>
      <trkpt lat="46.60094" lon="5.38272">
        <ele>186.4</ele>
        <time>2022-01-10T14:32:22Z</time>
      </trkpt>
      <trkpt lat="46.60094" lon="5.38291">
        <ele>186.2</ele>
        <time>2022-01-10T14:32:24Z</time>
      </trkpt>
      <trkpt lat="46.60095" lon="5.3831">
        <ele>186</ele>
        <time>2022-01-10T14:32:26Z</time>
      </trkpt>
      <trkpt lat="46.60096" lon="5.38384">
        <ele>185.6</ele>
        <time>2022-01-10T14:32:34Z</time>
      </trkpt>
      <trkpt lat="46.60095" lon="5.3847">
        <ele>186.6</ele>
        <time>2022-01-10T14:32:44Z</time>
      </trkpt>
      <trkpt lat="46.6009" lon="5.38556">
        <ele>186</ele>
        <time>2022-01-10T14:32:53Z</time>
      </trkpt>
      <trkpt lat="46.6008" lon="5.38616">
        <ele>185.2</ele>
        <time>2022-01-10T14:32:59Z</time>
      </trkpt>
      <trkpt lat="46.60067" lon="5.38675">
        <ele>184.8</ele>
        <time>2022-01-10T14:33:05Z</time>
      </trkpt>
      <trkpt lat="46.6006" lon="5.38704">
        <ele>184.6</ele>
        <time>2022-01-10T14:33:08Z</time>
      </trkpt>
      <trkpt lat="46.60051" lon="5.38744">
        <ele>184.6</ele>
        <time>2022-01-10T14:33:13Z</time>
      </trkpt>
      <trkpt lat="46.60041" lon="5.38782">
        <ele>186</ele>
        <time>2022-01-10T14:33:19Z</time>
      </trkpt>
      <trkpt lat="46.60032" lon="5.38809">
        <ele>187.2</ele>
        <time>2022-01-10T14:33:24Z</time>
      </trkpt>
      <trkpt lat="46.60026" lon="5.38825">
        <ele>188</ele>
        <time>2022-01-10T14:33:27Z</time>
      </trkpt>
      <trkpt lat="46.60024" lon="5.3883">
        <ele>188.2</ele>
        <time>2022-01-10T14:33:28Z</time>
      </trkpt>
      <trkpt lat="46.60022" lon="5.38834">
        <ele>188.8</ele>
        <time>2022-01-10T14:33:29Z</time>
      </trkpt>
      <trkpt lat="46.60016" lon="5.38849">
        <ele>189.4</ele>
        <time>2022-01-10T14:33:32Z</time>
      </trkpt>
      <trkpt lat="46.60011" lon="5.38863">
        <ele>190.6</ele>
        <time>2022-01-10T14:33:35Z</time>
      </trkpt>
      <trkpt lat="46.60005" lon="5.38884">
        <ele>192</ele>
        <time>2022-01-10T14:33:39Z</time>
      </trkpt>
      <trkpt lat="46.60003" lon="5.38889">
        <ele>192.4</ele>
        <time>2022-01-10T14:33:40Z</time>
      </trkpt>
      <trkpt lat="46.59996" lon="5.38906">
        <ele>193.2</ele>
        <time>2022-01-10T14:33:43Z</time>
      </trkpt>
      <trkpt lat="46.59989" lon="5.3893">
        <ele>194.4</ele>
        <time>2022-01-10T14:33:47Z</time>
      </trkpt>
      <trkpt lat="46.59988" lon="5.38936">
        <ele>194.6</ele>
        <time>2022-01-10T14:33:48Z</time>
      </trkpt>
      <trkpt lat="46.59986" lon="5.38949">
        <ele>195.4</ele>
        <time>2022-01-10T14:33:50Z</time>
      </trkpt>
      <trkpt lat="46.59981" lon="5.38981">
        <ele>196.6</ele>
        <time>2022-01-10T14:33:55Z</time>
      </trkpt>
      <trkpt lat="46.5998" lon="5.38987">
        <ele>196.8</ele>
        <time>2022-01-10T14:33:56Z</time>
      </trkpt>
      <trkpt lat="46.59978" lon="5.39014">
        <ele>197.6</ele>
        <time>2022-01-10T14:34:00Z</time>
      </trkpt>
      <trkpt lat="46.59974" lon="5.39042">
        <ele>198</ele>
        <time>2022-01-10T14:34:04Z</time>
      </trkpt>
      <trkpt lat="46.59972" lon="5.39055">
        <ele>198.4</ele>
        <time>2022-01-10T14:34:06Z</time>
      </trkpt>
      <trkpt lat="46.59969" lon="5.39082">
        <ele>199.2</ele>
        <time>2022-01-10T14:34:10Z</time>
      </trkpt>
      <trkpt lat="46.59969" lon="5.39088">
        <ele>199.2</ele>
        <time>2022-01-10T14:34:11Z</time>
      </trkpt>
      <trkpt lat="46.59968" lon="5.39095">
        <ele>199.6</ele>
        <time>2022-01-10T14:34:12Z</time>
      </trkpt>
      <trkpt lat="46.59963" lon="5.39106">
        <ele>200</ele>
        <time>2022-01-10T14:34:14Z</time>
      </trkpt>
      <trkpt lat="46.5996" lon="5.39111">
        <ele>200</ele>
        <time>2022-01-10T14:34:15Z</time>
      </trkpt>
      <trkpt lat="46.59954" lon="5.39122">
        <ele>200.6</ele>
        <time>2022-01-10T14:34:17Z</time>
      </trkpt>
      <trkpt lat="46.59932" lon="5.39164">
        <ele>201.6</ele>
        <time>2022-01-10T14:34:24Z</time>
      </trkpt>
      <trkpt lat="46.59924" lon="5.39176">
        <ele>202</ele>
        <time>2022-01-10T14:34:26Z</time>
      </trkpt>
      <trkpt lat="46.59915" lon="5.39185">
        <ele>202</ele>
        <time>2022-01-10T14:34:28Z</time>
      </trkpt>
      <trkpt lat="46.59882" lon="5.39196">
        <ele>201.8</ele>
        <time>2022-01-10T14:34:34Z</time>
      </trkpt>
      <trkpt lat="46.59842" lon="5.39196">
        <ele>201.8</ele>
        <time>2022-01-10T14:34:41Z</time>
      </trkpt>
      <trkpt lat="46.59818" lon="5.39191">
        <ele>202.2</ele>
        <time>2022-01-10T14:34:45Z</time>
      </trkpt>
      <trkpt lat="46.59806" lon="5.39192">
        <ele>202.4</ele>
        <time>2022-01-10T14:34:47Z</time>
      </trkpt>
      <trkpt lat="46.59764" lon="5.39206">
        <ele>202.8</ele>
        <time>2022-01-10T14:34:54Z</time>
      </trkpt>
      <trkpt lat="46.59758" lon="5.39209">
        <ele>202.8</ele>
        <time>2022-01-10T14:34:55Z</time>
      </trkpt>
      <trkpt lat="46.59746" lon="5.39211">
        <ele>203</ele>
        <time>2022-01-10T14:34:57Z</time>
      </trkpt>
      <trkpt lat="46.59741" lon="5.3921">
        <ele>203.2</ele>
        <time>2022-01-10T14:34:58Z</time>
      </trkpt>
      <trkpt lat="46.59704" lon="5.39197">
        <ele>204</ele>
        <time>2022-01-10T14:35:04Z</time>
      </trkpt>
      <trkpt lat="46.59698" lon="5.39196">
        <ele>204</ele>
        <time>2022-01-10T14:35:05Z</time>
      </trkpt>
      <trkpt lat="46.59652" lon="5.39186">
        <ele>204.2</ele>
        <time>2022-01-10T14:35:12Z</time>
      </trkpt>
      <trkpt lat="46.59615" lon="5.39184">
        <ele>204</ele>
        <time>2022-01-10T14:35:17Z</time>
      </trkpt>
      <trkpt lat="46.59608" lon="5.39187">
        <ele>204</ele>
        <time>2022-01-10T14:35:18Z</time>
      </trkpt>
      <trkpt lat="46.59565" lon="5.39205">
        <ele>203.6</ele>
        <time>2022-01-10T14:35:24Z</time>
      </trkpt>
      <trkpt lat="46.59534" lon="5.39206">
        <ele>203.4</ele>
        <time>2022-01-10T14:35:28Z</time>
      </trkpt>
      <trkpt lat="46.59527" lon="5.39203">
        <ele>203.4</ele>
        <time>2022-01-10T14:35:29Z</time>
      </trkpt>
      <trkpt lat="46.5952" lon="5.39198">
        <ele>203.2</ele>
        <time>2022-01-10T14:35:30Z</time>
      </trkpt>
      <trkpt lat="46.59509" lon="5.39182">
        <ele>203.2</ele>
        <time>2022-01-10T14:35:32Z</time>
      </trkpt>
      <trkpt lat="46.59503" lon="5.39162">
        <ele>203</ele>
        <time>2022-01-10T14:35:34Z</time>
      </trkpt>
      <trkpt lat="46.59501" lon="5.39151">
        <ele>202.8</ele>
        <time>2022-01-10T14:35:35Z</time>
      </trkpt>
      <trkpt lat="46.59491" lon="5.39073">
        <ele>202.6</ele>
        <time>2022-01-10T14:35:42Z</time>
      </trkpt>
      <trkpt lat="46.59487" lon="5.3904">
        <ele>202.4</ele>
        <time>2022-01-10T14:35:45Z</time>
      </trkpt>
      <trkpt lat="46.59475" lon="5.38953">
        <ele>201.8</ele>
        <time>2022-01-10T14:35:53Z</time>
      </trkpt>
      <trkpt lat="46.59472" lon="5.38943">
        <ele>201.8</ele>
        <time>2022-01-10T14:35:54Z</time>
      </trkpt>
      <trkpt lat="46.59455" lon="5.38896">
        <ele>201.8</ele>
        <time>2022-01-10T14:35:59Z</time>
      </trkpt>
      <trkpt lat="46.59451" lon="5.38855">
        <ele>201.8</ele>
        <time>2022-01-10T14:36:03Z</time>
      </trkpt>
      <trkpt lat="46.59443" lon="5.38805">
        <ele>202.4</ele>
        <time>2022-01-10T14:36:08Z</time>
      </trkpt>
      <trkpt lat="46.59436" lon="5.38787">
        <ele>202.4</ele>
        <time>2022-01-10T14:36:10Z</time>
      </trkpt>
      <trkpt lat="46.59426" lon="5.38771">
        <ele>202.6</ele>
        <time>2022-01-10T14:36:12Z</time>
      </trkpt>
      <trkpt lat="46.59383" lon="5.38726">
        <ele>202.2</ele>
        <time>2022-01-10T14:36:19Z</time>
      </trkpt>
      <trkpt lat="46.59338" lon="5.38677">
        <ele>201.8</ele>
        <time>2022-01-10T14:36:26Z</time>
      </trkpt>
      <trkpt lat="46.59319" lon="5.38656">
        <ele>201.6</ele>
        <time>2022-01-10T14:36:29Z</time>
      </trkpt>
      <trkpt lat="46.59274" lon="5.38608">
        <ele>201.4</ele>
        <time>2022-01-10T14:36:36Z</time>
      </trkpt>
      <trkpt lat="46.59262" lon="5.38595">
        <ele>201.4</ele>
        <time>2022-01-10T14:36:38Z</time>
      </trkpt>
      <trkpt lat="46.59222" lon="5.38552">
        <ele>201.6</ele>
        <time>2022-01-10T14:36:45Z</time>
      </trkpt>
      <trkpt lat="46.5918" lon="5.38505">
        <ele>202</ele>
        <time>2022-01-10T14:36:52Z</time>
      </trkpt>
      <trkpt lat="46.59147" lon="5.38455">
        <ele>201.2</ele>
        <time>2022-01-10T14:36:58Z</time>
      </trkpt>
      <trkpt lat="46.59125" lon="5.38419">
        <ele>200.6</ele>
        <time>2022-01-10T14:37:02Z</time>
      </trkpt>
      <trkpt lat="46.59118" lon="5.38411">
        <ele>200.6</ele>
        <time>2022-01-10T14:37:03Z</time>
      </trkpt>
      <trkpt lat="46.59094" lon="5.38388">
        <ele>199.2</ele>
        <time>2022-01-10T14:37:06Z</time>
      </trkpt>
      <trkpt lat="46.59075" lon="5.38373">
        <ele>199</ele>
        <time>2022-01-10T14:37:08Z</time>
      </trkpt>
      <trkpt lat="46.59069" lon="5.38367">
        <ele>198</ele>
        <time>2022-01-10T14:37:09Z</time>
      </trkpt>
      <trkpt lat="46.59034" lon="5.38339">
        <ele>196.4</ele>
        <time>2022-01-10T14:37:13Z</time>
      </trkpt>
      <trkpt lat="46.59" lon="5.3831">
        <ele>195.4</ele>
        <time>2022-01-10T14:37:17Z</time>
      </trkpt>
      <trkpt lat="46.58984" lon="5.38297">
        <ele>194.8</ele>
        <time>2022-01-10T14:37:19Z</time>
      </trkpt>
      <trkpt lat="46.58961" lon="5.38278">
        <ele>194.2</ele>
        <time>2022-01-10T14:37:22Z</time>
      </trkpt>
      <trkpt lat="46.58947" lon="5.38265">
        <ele>194</ele>
        <time>2022-01-10T14:37:24Z</time>
      </trkpt>
      <trkpt lat="46.58916" lon="5.38232">
        <ele>194.4</ele>
        <time>2022-01-10T14:37:29Z</time>
      </trkpt>
      <trkpt lat="46.58889" lon="5.38199">
        <ele>195.2</ele>
        <time>2022-01-10T14:37:34Z</time>
      </trkpt>
      <trkpt lat="46.58882" lon="5.3819">
        <ele>195.4</ele>
        <time>2022-01-10T14:37:35Z</time>
      </trkpt>
      <trkpt lat="46.5885" lon="5.38152">
        <ele>196.2</ele>
        <time>2022-01-10T14:37:41Z</time>
      </trkpt>
      <trkpt lat="46.58829" lon="5.38126">
        <ele>197</ele>
        <time>2022-01-10T14:37:45Z</time>
      </trkpt>
      <trkpt lat="46.58807" lon="5.38101">
        <ele>197.4</ele>
        <time>2022-01-10T14:37:49Z</time>
      </trkpt>
      <trkpt lat="46.58791" lon="5.38082">
        <ele>198</ele>
        <time>2022-01-10T14:37:52Z</time>
      </trkpt>
      <trkpt lat="46.58784" lon="5.38075">
        <ele>198</ele>
        <time>2022-01-10T14:37:53Z</time>
      </trkpt>
      <trkpt lat="46.58772" lon="5.38067">
        <ele>198.2</ele>
        <time>2022-01-10T14:37:55Z</time>
      </trkpt>
      <trkpt lat="46.58758" lon="5.38062">
        <ele>198.4</ele>
        <time>2022-01-10T14:37:57Z</time>
      </trkpt>
      <trkpt lat="46.58749" lon="5.3806">
        <ele>198.4</ele>
        <time>2022-01-10T14:37:58Z</time>
      </trkpt>
      <trkpt lat="46.58705" lon="5.38055">
        <ele>197.8</ele>
        <time>2022-01-10T14:38:04Z</time>
      </trkpt>
      <trkpt lat="46.5868" lon="5.38054">
        <ele>197.2</ele>
        <time>2022-01-10T14:38:07Z</time>
      </trkpt>
      <trkpt lat="46.58626" lon="5.38043">
        <ele>196.6</ele>
        <time>2022-01-10T14:38:14Z</time>
      </trkpt>
      <trkpt lat="46.58612" lon="5.38035">
        <ele>196.6</ele>
        <time>2022-01-10T14:38:16Z</time>
      </trkpt>
      <trkpt lat="46.58598" lon="5.38024">
        <ele>196.4</ele>
        <time>2022-01-10T14:38:18Z</time>
      </trkpt>
      <trkpt lat="46.58584" lon="5.38009">
        <ele>196.4</ele>
        <time>2022-01-10T14:38:20Z</time>
      </trkpt>
      <trkpt lat="46.5857" lon="5.38002">
        <ele>196.2</ele>
        <time>2022-01-10T14:38:22Z</time>
      </trkpt>
      <trkpt lat="46.58562" lon="5.38001">
        <ele>196.2</ele>
        <time>2022-01-10T14:38:23Z</time>
      </trkpt>
      <trkpt lat="46.58554" lon="5.38002">
        <ele>196</ele>
        <time>2022-01-10T14:38:24Z</time>
      </trkpt>
      <trkpt lat="46.58545" lon="5.38006">
        <ele>196</ele>
        <time>2022-01-10T14:38:25Z</time>
      </trkpt>
      <trkpt lat="46.5851" lon="5.38027">
        <ele>195.4</ele>
        <time>2022-01-10T14:38:30Z</time>
      </trkpt>
      <trkpt lat="46.58494" lon="5.38029">
        <ele>195.4</ele>
        <time>2022-01-10T14:38:32Z</time>
      </trkpt>
      <trkpt lat="46.58486" lon="5.38028">
        <ele>195.2</ele>
        <time>2022-01-10T14:38:33Z</time>
      </trkpt>
      <trkpt lat="46.58442" lon="5.38012">
        <ele>195.2</ele>
        <time>2022-01-10T14:38:38Z</time>
      </trkpt>
      <trkpt lat="46.58414" lon="5.38002">
        <ele>194.8</ele>
        <time>2022-01-10T14:38:41Z</time>
      </trkpt>
      <trkpt lat="46.58375" lon="5.37987">
        <ele>193.8</ele>
        <time>2022-01-10T14:38:45Z</time>
      </trkpt>
      <trkpt lat="46.58356" lon="5.3798">
        <ele>192.8</ele>
        <time>2022-01-10T14:38:47Z</time>
      </trkpt>
      <trkpt lat="46.58347" lon="5.37976">
        <ele>192.4</ele>
        <time>2022-01-10T14:38:48Z</time>
      </trkpt>
      <trkpt lat="46.58319" lon="5.37962">
        <ele>191</ele>
        <time>2022-01-10T14:38:51Z</time>
      </trkpt>
      <trkpt lat="46.583" lon="5.37953">
        <ele>190.4</ele>
        <time>2022-01-10T14:38:53Z</time>
      </trkpt>
      <trkpt lat="46.58281" lon="5.37939">
        <ele>190</ele>
        <time>2022-01-10T14:38:55Z</time>
      </trkpt>
      <trkpt lat="46.58255" lon="5.37923">
        <ele>189.2</ele>
        <time>2022-01-10T14:38:58Z</time>
      </trkpt>
      <trkpt lat="46.58237" lon="5.37912">
        <ele>188.6</ele>
        <time>2022-01-10T14:39:00Z</time>
      </trkpt>
      <trkpt lat="46.5821" lon="5.37894">
        <ele>187.6</ele>
        <time>2022-01-10T14:39:03Z</time>
      </trkpt>
      <trkpt lat="46.58182" lon="5.37878">
        <ele>186.6</ele>
        <time>2022-01-10T14:39:06Z</time>
      </trkpt>
      <trkpt lat="46.58162" lon="5.37876">
        <ele>186.2</ele>
        <time>2022-01-10T14:39:08Z</time>
      </trkpt>
      <trkpt lat="46.58152" lon="5.37878">
        <ele>186</ele>
        <time>2022-01-10T14:39:09Z</time>
      </trkpt>
      <trkpt lat="46.58143" lon="5.37883">
        <ele>185.6</ele>
        <time>2022-01-10T14:39:10Z</time>
      </trkpt>
      <trkpt lat="46.58133" lon="5.37891">
        <ele>185.2</ele>
        <time>2022-01-10T14:39:11Z</time>
      </trkpt>
      <trkpt lat="46.58126" lon="5.37896">
        <ele>185</ele>
        <time>2022-01-10T14:39:12Z</time>
      </trkpt>
      <trkpt lat="46.58117" lon="5.37903">
        <ele>184.8</ele>
        <time>2022-01-10T14:39:13Z</time>
      </trkpt>
      <trkpt lat="46.58091" lon="5.37915">
        <ele>184.4</ele>
        <time>2022-01-10T14:39:16Z</time>
      </trkpt>
      <trkpt lat="46.58064" lon="5.37924">
        <ele>184</ele>
        <time>2022-01-10T14:39:19Z</time>
      </trkpt>
      <trkpt lat="46.58029" lon="5.37935">
        <ele>183.8</ele>
        <time>2022-01-10T14:39:23Z</time>
      </trkpt>
      <trkpt lat="46.58008" lon="5.37943">
        <ele>183.6</ele>
        <time>2022-01-10T14:39:26Z</time>
      </trkpt>
      <trkpt lat="46.58002" lon="5.37947">
        <ele>183.4</ele>
        <time>2022-01-10T14:39:27Z</time>
      </trkpt>
      <trkpt lat="46.57967" lon="5.37974">
        <ele>183.4</ele>
        <time>2022-01-10T14:39:32Z</time>
      </trkpt>
      <trkpt lat="46.57938" lon="5.37994">
        <ele>184</ele>
        <time>2022-01-10T14:39:37Z</time>
      </trkpt>
      <trkpt lat="46.57919" lon="5.38015">
        <ele>184.4</ele>
        <time>2022-01-10T14:39:41Z</time>
      </trkpt>
      <trkpt lat="46.57915" lon="5.38021">
        <ele>185</ele>
        <time>2022-01-10T14:39:42Z</time>
      </trkpt>
      <trkpt lat="46.5791" lon="5.38028">
        <ele>185.2</ele>
        <time>2022-01-10T14:39:43Z</time>
      </trkpt>
      <trkpt lat="46.57898" lon="5.38056">
        <ele>186.2</ele>
        <time>2022-01-10T14:39:47Z</time>
      </trkpt>
      <trkpt lat="46.57897" lon="5.38062">
        <ele>186.4</ele>
        <time>2022-01-10T14:39:48Z</time>
      </trkpt>
      <trkpt lat="46.57889" lon="5.38085">
        <ele>187.2</ele>
        <time>2022-01-10T14:39:51Z</time>
      </trkpt>
      <trkpt lat="46.57876" lon="5.38125">
        <ele>188.2</ele>
        <time>2022-01-10T14:39:56Z</time>
      </trkpt>
      <trkpt lat="46.57845" lon="5.38193">
        <ele>188.2</ele>
        <time>2022-01-10T14:40:05Z</time>
      </trkpt>
      <trkpt lat="46.57816" lon="5.38222">
        <ele>188</ele>
        <time>2022-01-10T14:40:11Z</time>
      </trkpt>
      <trkpt lat="46.57782" lon="5.38257">
        <ele>187.8</ele>
        <time>2022-01-10T14:40:18Z</time>
      </trkpt>
      <trkpt lat="46.57757" lon="5.38282">
        <ele>188.4</ele>
        <time>2022-01-10T14:40:23Z</time>
      </trkpt>
      <trkpt lat="46.57746" lon="5.3829">
        <ele>188.4</ele>
        <time>2022-01-10T14:40:25Z</time>
      </trkpt>
      <trkpt lat="46.57711" lon="5.38303">
        <ele>189</ele>
        <time>2022-01-10T14:40:31Z</time>
      </trkpt>
      <trkpt lat="46.57659" lon="5.38314">
        <ele>189</ele>
        <time>2022-01-10T14:40:39Z</time>
      </trkpt>
      <trkpt lat="46.57653" lon="5.38316">
        <ele>188.8</ele>
        <time>2022-01-10T14:40:40Z</time>
      </trkpt>
      <trkpt lat="46.57639" lon="5.38322">
        <ele>188.8</ele>
        <time>2022-01-10T14:40:42Z</time>
      </trkpt>
      <trkpt lat="46.57634" lon="5.38321">
        <ele>188.6</ele>
        <time>2022-01-10T14:40:43Z</time>
      </trkpt>
      <trkpt lat="46.57626" lon="5.38315">
        <ele>188.6</ele>
        <time>2022-01-10T14:40:44Z</time>
      </trkpt>
      <trkpt lat="46.57622" lon="5.38308">
        <ele>188.4</ele>
        <time>2022-01-10T14:40:45Z</time>
      </trkpt>
      <trkpt lat="46.57618" lon="5.38298">
        <ele>188.4</ele>
        <time>2022-01-10T14:40:46Z</time>
      </trkpt>
      <trkpt lat="46.57609" lon="5.38277">
        <ele>188</ele>
        <time>2022-01-10T14:40:48Z</time>
      </trkpt>
      <trkpt lat="46.57603" lon="5.38267">
        <ele>187.6</ele>
        <time>2022-01-10T14:40:49Z</time>
      </trkpt>
      <trkpt lat="46.57597" lon="5.38257">
        <ele>187</ele>
        <time>2022-01-10T14:40:50Z</time>
      </trkpt>
      <trkpt lat="46.57584" lon="5.38238">
        <ele>186.2</ele>
        <time>2022-01-10T14:40:52Z</time>
      </trkpt>
      <trkpt lat="46.57577" lon="5.38229">
        <ele>186</ele>
        <time>2022-01-10T14:40:53Z</time>
      </trkpt>
      <trkpt lat="46.57571" lon="5.38221">
        <ele>185.6</ele>
        <time>2022-01-10T14:40:54Z</time>
      </trkpt>
      <trkpt lat="46.57547" lon="5.38203">
        <ele>184.6</ele>
        <time>2022-01-10T14:40:57Z</time>
      </trkpt>
      <trkpt lat="46.57539" lon="5.38197">
        <ele>184.2</ele>
        <time>2022-01-10T14:40:58Z</time>
      </trkpt>
      <trkpt lat="46.57517" lon="5.3818">
        <ele>183.6</ele>
        <time>2022-01-10T14:41:01Z</time>
      </trkpt>
      <trkpt lat="46.57503" lon="5.38169">
        <ele>183.2</ele>
        <time>2022-01-10T14:41:03Z</time>
      </trkpt>
      <trkpt lat="46.57496" lon="5.38163">
        <ele>183.2</ele>
        <time>2022-01-10T14:41:04Z</time>
      </trkpt>
      <trkpt lat="46.57446" lon="5.38125">
        <ele>183</ele>
        <time>2022-01-10T14:41:11Z</time>
      </trkpt>
      <trkpt lat="46.57439" lon="5.3812">
        <ele>183</ele>
        <time>2022-01-10T14:41:12Z</time>
      </trkpt>
      <trkpt lat="46.57387" lon="5.38076">
        <ele>183.6</ele>
        <time>2022-01-10T14:41:20Z</time>
      </trkpt>
      <trkpt lat="46.57369" lon="5.38045">
        <ele>183.8</ele>
        <time>2022-01-10T14:41:24Z</time>
      </trkpt>
      <trkpt lat="46.57353" lon="5.38009">
        <ele>184.6</ele>
        <time>2022-01-10T14:41:29Z</time>
      </trkpt>
      <trkpt lat="46.57342" lon="5.37989">
        <ele>185.6</ele>
        <time>2022-01-10T14:41:32Z</time>
      </trkpt>
      <trkpt lat="46.57339" lon="5.37982">
        <ele>185.8</ele>
        <time>2022-01-10T14:41:33Z</time>
      </trkpt>
      <trkpt lat="46.57333" lon="5.37968">
        <ele>186.4</ele>
        <time>2022-01-10T14:41:35Z</time>
      </trkpt>
      <trkpt lat="46.57326" lon="5.37955">
        <ele>187</ele>
        <time>2022-01-10T14:41:37Z</time>
      </trkpt>
      <trkpt lat="46.57315" lon="5.37934">
        <ele>187.6</ele>
        <time>2022-01-10T14:41:40Z</time>
      </trkpt>
      <trkpt lat="46.57312" lon="5.37929">
        <ele>188.2</ele>
        <time>2022-01-10T14:41:41Z</time>
      </trkpt>
      <trkpt lat="46.57302" lon="5.37909">
        <ele>189</ele>
        <time>2022-01-10T14:41:44Z</time>
      </trkpt>
      <trkpt lat="46.57291" lon="5.3789">
        <ele>189.4</ele>
        <time>2022-01-10T14:41:47Z</time>
      </trkpt>
      <trkpt lat="46.57284" lon="5.37877">
        <ele>190</ele>
        <time>2022-01-10T14:41:49Z</time>
      </trkpt>
      <trkpt lat="46.57273" lon="5.37851">
        <ele>190.8</ele>
        <time>2022-01-10T14:41:53Z</time>
      </trkpt>
      <trkpt lat="46.57268" lon="5.37841">
        <ele>191.2</ele>
        <time>2022-01-10T14:41:55Z</time>
      </trkpt>
      <trkpt lat="46.57259" lon="5.37823">
        <ele>192</ele>
        <time>2022-01-10T14:41:58Z</time>
      </trkpt>
      <trkpt lat="46.57256" lon="5.37818">
        <ele>192.4</ele>
        <time>2022-01-10T14:41:59Z</time>
      </trkpt>
      <trkpt lat="46.57254" lon="5.37813">
        <ele>192.8</ele>
        <time>2022-01-10T14:42:00Z</time>
      </trkpt>
      <trkpt lat="46.57248" lon="5.378">
        <ele>193.6</ele>
        <time>2022-01-10T14:42:02Z</time>
      </trkpt>
      <trkpt lat="46.57232" lon="5.37766">
        <ele>195</ele>
        <time>2022-01-10T14:42:08Z</time>
      </trkpt>
      <trkpt lat="46.57226" lon="5.37758">
        <ele>195.6</ele>
        <time>2022-01-10T14:42:10Z</time>
      </trkpt>
      <trkpt lat="46.57216" lon="5.37757">
        <ele>195.8</ele>
        <time>2022-01-10T14:42:12Z</time>
      </trkpt>
      <trkpt lat="46.57213" lon="5.37758">
        <ele>196.2</ele>
        <time>2022-01-10T14:42:13Z</time>
      </trkpt>
      <trkpt lat="46.57204" lon="5.37765">
        <ele>196.4</ele>
        <time>2022-01-10T14:42:15Z</time>
      </trkpt>
      <trkpt lat="46.57192" lon="5.3778">
        <ele>197</ele>
        <time>2022-01-10T14:42:18Z</time>
      </trkpt>
      <trkpt lat="46.57162" lon="5.37817">
        <ele>197.2</ele>
        <time>2022-01-10T14:42:24Z</time>
      </trkpt>
      <trkpt lat="46.57133" lon="5.37846">
        <ele>196.8</ele>
        <time>2022-01-10T14:42:29Z</time>
      </trkpt>
      <trkpt lat="46.57112" lon="5.37866">
        <ele>196</ele>
        <time>2022-01-10T14:42:32Z</time>
      </trkpt>
      <trkpt lat="46.57091" lon="5.37884">
        <ele>195.2</ele>
        <time>2022-01-10T14:42:35Z</time>
      </trkpt>
      <trkpt lat="46.57084" lon="5.37891">
        <ele>195</ele>
        <time>2022-01-10T14:42:36Z</time>
      </trkpt>
      <trkpt lat="46.57043" lon="5.37923">
        <ele>194</ele>
        <time>2022-01-10T14:42:42Z</time>
      </trkpt>
      <trkpt lat="46.57032" lon="5.37932">
        <ele>193.8</ele>
        <time>2022-01-10T14:42:44Z</time>
      </trkpt>
      <trkpt lat="46.57003" lon="5.37954">
        <ele>193.8</ele>
        <time>2022-01-10T14:42:49Z</time>
      </trkpt>
      <trkpt lat="46.56962" lon="5.37982">
        <ele>194.4</ele>
        <time>2022-01-10T14:42:56Z</time>
      </trkpt>
      <trkpt lat="46.56932" lon="5.37991">
        <ele>194.8</ele>
        <time>2022-01-10T14:43:01Z</time>
      </trkpt>
      <trkpt lat="46.56926" lon="5.37991">
        <ele>195</ele>
        <time>2022-01-10T14:43:02Z</time>
      </trkpt>
      <trkpt lat="46.5692" lon="5.3799">
        <ele>195.4</ele>
        <time>2022-01-10T14:43:03Z</time>
      </trkpt>
      <trkpt lat="46.56902" lon="5.37985">
        <ele>195.8</ele>
        <time>2022-01-10T14:43:06Z</time>
      </trkpt>
      <trkpt lat="46.5689" lon="5.37983">
        <ele>196.2</ele>
        <time>2022-01-10T14:43:08Z</time>
      </trkpt>
      <trkpt lat="46.56855" lon="5.37975">
        <ele>197</ele>
        <time>2022-01-10T14:43:14Z</time>
      </trkpt>
      <trkpt lat="46.56837" lon="5.37971">
        <ele>197.2</ele>
        <time>2022-01-10T14:43:17Z</time>
      </trkpt>
      <trkpt lat="46.568" lon="5.37961">
        <ele>198</ele>
        <time>2022-01-10T14:43:23Z</time>
      </trkpt>
      <trkpt lat="46.56756" lon="5.3795">
        <ele>198.4</ele>
        <time>2022-01-10T14:43:30Z</time>
      </trkpt>
      <trkpt lat="46.56736" lon="5.37946">
        <ele>198.4</ele>
        <time>2022-01-10T14:43:33Z</time>
      </trkpt>
      <trkpt lat="46.56679" lon="5.37933">
        <ele>199</ele>
        <time>2022-01-10T14:43:42Z</time>
      </trkpt>
      <trkpt lat="46.56673" lon="5.37932">
        <ele>199.2</ele>
        <time>2022-01-10T14:43:43Z</time>
      </trkpt>
      <trkpt lat="46.56661" lon="5.37929">
        <ele>199.4</ele>
        <time>2022-01-10T14:43:45Z</time>
      </trkpt>
      <trkpt lat="46.56616" lon="5.37919">
        <ele>200</ele>
        <time>2022-01-10T14:43:52Z</time>
      </trkpt>
      <trkpt lat="46.56589" lon="5.37916">
        <ele>200.2</ele>
        <time>2022-01-10T14:43:56Z</time>
      </trkpt>
      <trkpt lat="46.56568" lon="5.37919">
        <ele>200.2</ele>
        <time>2022-01-10T14:43:59Z</time>
      </trkpt>
      <trkpt lat="46.56562" lon="5.37922">
        <ele>200.2</ele>
        <time>2022-01-10T14:44:00Z</time>
      </trkpt>
      <trkpt lat="46.56534" lon="5.37937">
        <ele>200.2</ele>
        <time>2022-01-10T14:44:04Z</time>
      </trkpt>
      <trkpt lat="46.56518" lon="5.37946">
        <ele>200</ele>
        <time>2022-01-10T14:44:06Z</time>
      </trkpt>
      <trkpt lat="46.56505" lon="5.37949">
        <ele>200</ele>
        <time>2022-01-10T14:44:08Z</time>
      </trkpt>
      <trkpt lat="46.56467" lon="5.37944">
        <ele>199.6</ele>
        <time>2022-01-10T14:44:13Z</time>
      </trkpt>
      <trkpt lat="46.56414" lon="5.3793">
        <ele>198.8</ele>
        <time>2022-01-10T14:44:20Z</time>
      </trkpt>
      <trkpt lat="46.56398" lon="5.37928">
        <ele>198.6</ele>
        <time>2022-01-10T14:44:22Z</time>
      </trkpt>
      <trkpt lat="46.56382" lon="5.37931">
        <ele>198.4</ele>
        <time>2022-01-10T14:44:24Z</time>
      </trkpt>
      <trkpt lat="46.56374" lon="5.37935">
        <ele>198.2</ele>
        <time>2022-01-10T14:44:25Z</time>
      </trkpt>
      <trkpt lat="46.56334" lon="5.37952">
        <ele>197.4</ele>
        <time>2022-01-10T14:44:30Z</time>
      </trkpt>
      <trkpt lat="46.56325" lon="5.37951">
        <ele>197.2</ele>
        <time>2022-01-10T14:44:31Z</time>
      </trkpt>
      <trkpt lat="46.56293" lon="5.37949">
        <ele>196.8</ele>
        <time>2022-01-10T14:44:35Z</time>
      </trkpt>
      <trkpt lat="46.56262" lon="5.3796">
        <ele>196.4</ele>
        <time>2022-01-10T14:44:39Z</time>
      </trkpt>
      <trkpt lat="46.56226" lon="5.37978">
        <ele>196.4</ele>
        <time>2022-01-10T14:44:44Z</time>
      </trkpt>
      <trkpt lat="46.56213" lon="5.37986">
        <ele>196.4</ele>
        <time>2022-01-10T14:44:46Z</time>
      </trkpt>
      <trkpt lat="46.56202" lon="5.37997">
        <ele>196.4</ele>
        <time>2022-01-10T14:44:48Z</time>
      </trkpt>
      <trkpt lat="46.5618" lon="5.38036">
        <ele>196.6</ele>
        <time>2022-01-10T14:44:53Z</time>
      </trkpt>
      <trkpt lat="46.56151" lon="5.38088">
        <ele>196.8</ele>
        <time>2022-01-10T14:45:00Z</time>
      </trkpt>
      <trkpt lat="46.56135" lon="5.38105">
        <ele>197</ele>
        <time>2022-01-10T14:45:03Z</time>
      </trkpt>
      <trkpt lat="46.56119" lon="5.38118">
        <ele>197</ele>
        <time>2022-01-10T14:45:06Z</time>
      </trkpt>
      <trkpt lat="46.56066" lon="5.38156">
        <ele>197.4</ele>
        <time>2022-01-10T14:45:15Z</time>
      </trkpt>
      <trkpt lat="46.56061" lon="5.3816">
        <ele>197.4</ele>
        <time>2022-01-10T14:45:16Z</time>
      </trkpt>
      <trkpt lat="46.56027" lon="5.38188">
        <ele>198</ele>
        <time>2022-01-10T14:45:22Z</time>
      </trkpt>
      <trkpt lat="46.56016" lon="5.38201">
        <ele>198</ele>
        <time>2022-01-10T14:45:24Z</time>
      </trkpt>
      <trkpt lat="46.56009" lon="5.38218">
        <ele>198.2</ele>
        <time>2022-01-10T14:45:26Z</time>
      </trkpt>
      <trkpt lat="46.56" lon="5.38277">
        <ele>198.2</ele>
        <time>2022-01-10T14:45:32Z</time>
      </trkpt>
      <trkpt lat="46.55998" lon="5.38286">
        <ele>198.4</ele>
        <time>2022-01-10T14:45:33Z</time>
      </trkpt>
      <trkpt lat="46.55989" lon="5.38342">
        <ele>198.6</ele>
        <time>2022-01-10T14:45:40Z</time>
      </trkpt>
      <trkpt lat="46.55984" lon="5.38374">
        <ele>198.6</ele>
        <time>2022-01-10T14:45:44Z</time>
      </trkpt>
      <trkpt lat="46.55983" lon="5.38382">
        <ele>198.8</ele>
        <time>2022-01-10T14:45:45Z</time>
      </trkpt>
      <trkpt lat="46.5598" lon="5.38405">
        <ele>198.8</ele>
        <time>2022-01-10T14:45:48Z</time>
      </trkpt>
      <trkpt lat="46.55979" lon="5.3842">
        <ele>199.2</ele>
        <time>2022-01-10T14:45:50Z</time>
      </trkpt>
      <trkpt lat="46.55978" lon="5.38435">
        <ele>199.6</ele>
        <time>2022-01-10T14:45:52Z</time>
      </trkpt>
      <trkpt lat="46.55977" lon="5.38471">
        <ele>200.2</ele>
        <time>2022-01-10T14:45:57Z</time>
      </trkpt>
      <trkpt lat="46.55977" lon="5.38479">
        <ele>200.2</ele>
        <time>2022-01-10T14:45:58Z</time>
      </trkpt>
      <trkpt lat="46.55977" lon="5.38487">
        <ele>200.6</ele>
        <time>2022-01-10T14:45:59Z</time>
      </trkpt>
      <trkpt lat="46.55981" lon="5.38521">
        <ele>201.4</ele>
        <time>2022-01-10T14:46:03Z</time>
      </trkpt>
      <trkpt lat="46.5599" lon="5.38587">
        <ele>201.4</ele>
        <time>2022-01-10T14:46:10Z</time>
      </trkpt>
      <trkpt lat="46.55999" lon="5.38642">
        <ele>201</ele>
        <time>2022-01-10T14:46:16Z</time>
      </trkpt>
      <trkpt lat="46.56" lon="5.38659">
        <ele>201</ele>
        <time>2022-01-10T14:46:18Z</time>
      </trkpt>
      <trkpt lat="46.56003" lon="5.38722">
        <ele>201</ele>
        <time>2022-01-10T14:46:25Z</time>
      </trkpt>
      <trkpt lat="46.56009" lon="5.38773">
        <ele>201</ele>
        <time>2022-01-10T14:46:30Z</time>
      </trkpt>
      <trkpt lat="46.56009" lon="5.38784">
        <ele>201</ele>
        <time>2022-01-10T14:46:31Z</time>
      </trkpt>
      <trkpt lat="46.56008" lon="5.38808">
        <ele>200.8</ele>
        <time>2022-01-10T14:46:33Z</time>
      </trkpt>
      <trkpt lat="46.56007" lon="5.38821">
        <ele>200.6</ele>
        <time>2022-01-10T14:46:34Z</time>
      </trkpt>
      <trkpt lat="46.56003" lon="5.38846">
        <ele>200.2</ele>
        <time>2022-01-10T14:46:36Z</time>
      </trkpt>
      <trkpt lat="46.55994" lon="5.38882">
        <ele>198.6</ele>
        <time>2022-01-10T14:46:39Z</time>
      </trkpt>
      <trkpt lat="46.55984" lon="5.38915">
        <ele>197.6</ele>
        <time>2022-01-10T14:46:42Z</time>
      </trkpt>
      <trkpt lat="46.55969" lon="5.38957">
        <ele>196.2</ele>
        <time>2022-01-10T14:46:46Z</time>
      </trkpt>
      <trkpt lat="46.55947" lon="5.39024">
        <ele>195.6</ele>
        <time>2022-01-10T14:46:53Z</time>
      </trkpt>
      <trkpt lat="46.55939" lon="5.39073">
        <ele>196.2</ele>
        <time>2022-01-10T14:46:59Z</time>
      </trkpt>
      <trkpt lat="46.55935" lon="5.39118">
        <ele>197.2</ele>
        <time>2022-01-10T14:47:05Z</time>
      </trkpt>
      <trkpt lat="46.55935" lon="5.39127">
        <ele>197.6</ele>
        <time>2022-01-10T14:47:06Z</time>
      </trkpt>
      <trkpt lat="46.55934" lon="5.39151">
        <ele>198.2</ele>
        <time>2022-01-10T14:47:09Z</time>
      </trkpt>
      <trkpt lat="46.55934" lon="5.39175">
        <ele>199.4</ele>
        <time>2022-01-10T14:47:12Z</time>
      </trkpt>
      <trkpt lat="46.55934" lon="5.39191">
        <ele>200</ele>
        <time>2022-01-10T14:47:14Z</time>
      </trkpt>
      <trkpt lat="46.55933" lon="5.39223">
        <ele>200.4</ele>
        <time>2022-01-10T14:47:18Z</time>
      </trkpt>
      <trkpt lat="46.55929" lon="5.39269">
        <ele>201</ele>
        <time>2022-01-10T14:47:24Z</time>
      </trkpt>
      <trkpt lat="46.55925" lon="5.39299">
        <ele>201.4</ele>
        <time>2022-01-10T14:47:28Z</time>
      </trkpt>
      <trkpt lat="46.55918" lon="5.39359">
        <ele>201.8</ele>
        <time>2022-01-10T14:47:36Z</time>
      </trkpt>
      <trkpt lat="46.55912" lon="5.39402">
        <ele>202.4</ele>
        <time>2022-01-10T14:47:42Z</time>
      </trkpt>
      <trkpt lat="46.55909" lon="5.39432">
        <ele>203</ele>
        <time>2022-01-10T14:47:46Z</time>
      </trkpt>
      <trkpt lat="46.55903" lon="5.39486">
        <ele>203.6</ele>
        <time>2022-01-10T14:47:53Z</time>
      </trkpt>
      <trkpt lat="46.55901" lon="5.39501">
        <ele>203.6</ele>
        <time>2022-01-10T14:47:55Z</time>
      </trkpt>
      <trkpt lat="46.55894" lon="5.39564">
        <ele>204.4</ele>
        <time>2022-01-10T14:48:03Z</time>
      </trkpt>
      <trkpt lat="46.55892" lon="5.39574">
        <ele>204.6</ele>
        <time>2022-01-10T14:48:04Z</time>
      </trkpt>
      <trkpt lat="46.5588" lon="5.3965">
        <ele>205.4</ele>
        <time>2022-01-10T14:48:14Z</time>
      </trkpt>
      <trkpt lat="46.55872" lon="5.3968">
        <ele>205.6</ele>
        <time>2022-01-10T14:48:18Z</time>
      </trkpt>
      <trkpt lat="46.55857" lon="5.39738">
        <ele>206.2</ele>
        <time>2022-01-10T14:48:26Z</time>
      </trkpt>
      <trkpt lat="46.55851" lon="5.39759">
        <ele>206.6</ele>
        <time>2022-01-10T14:48:29Z</time>
      </trkpt>
      <trkpt lat="46.5584" lon="5.39801">
        <ele>207.4</ele>
        <time>2022-01-10T14:48:35Z</time>
      </trkpt>
      <trkpt lat="46.55835" lon="5.39822">
        <ele>207.8</ele>
        <time>2022-01-10T14:48:38Z</time>
      </trkpt>
      <trkpt lat="46.55825" lon="5.39862">
        <ele>208</ele>
        <time>2022-01-10T14:48:43Z</time>
      </trkpt>
      <trkpt lat="46.55813" lon="5.39904">
        <ele>207.8</ele>
        <time>2022-01-10T14:48:48Z</time>
      </trkpt>
      <trkpt lat="46.55809" lon="5.3991">
        <ele>207.6</ele>
        <time>2022-01-10T14:48:49Z</time>
      </trkpt>
      <trkpt lat="46.55805" lon="5.39914">
        <ele>207.6</ele>
        <time>2022-01-10T14:48:50Z</time>
      </trkpt>
      <trkpt lat="46.55801" lon="5.39914">
        <ele>207.6</ele>
        <time>2022-01-10T14:48:51Z</time>
      </trkpt>
      <trkpt lat="46.55796" lon="5.39911">
        <ele>207.6</ele>
        <time>2022-01-10T14:48:52Z</time>
      </trkpt>
      <trkpt lat="46.55779" lon="5.39899">
        <ele>207.4</ele>
        <time>2022-01-10T14:48:55Z</time>
      </trkpt>
      <trkpt lat="46.5573" lon="5.39856">
        <ele>207.8</ele>
        <time>2022-01-10T14:49:04Z</time>
      </trkpt>
      <trkpt lat="46.55707" lon="5.39832">
        <ele>209</ele>
        <time>2022-01-10T14:49:09Z</time>
      </trkpt>
      <trkpt lat="46.55703" lon="5.39828">
        <ele>209.4</ele>
        <time>2022-01-10T14:49:10Z</time>
      </trkpt>
      <trkpt lat="46.55694" lon="5.39819">
        <ele>210.2</ele>
        <time>2022-01-10T14:49:12Z</time>
      </trkpt>
      <trkpt lat="46.5567" lon="5.39799">
        <ele>211.2</ele>
        <time>2022-01-10T14:49:17Z</time>
      </trkpt>
      <trkpt lat="46.55659" lon="5.39791">
        <ele>211.4</ele>
        <time>2022-01-10T14:49:19Z</time>
      </trkpt>
      <trkpt lat="46.55619" lon="5.39764">
        <ele>211.8</ele>
        <time>2022-01-10T14:49:25Z</time>
      </trkpt>
      <trkpt lat="46.55567" lon="5.39724">
        <ele>210.2</ele>
        <time>2022-01-10T14:49:32Z</time>
      </trkpt>
      <trkpt lat="46.55528" lon="5.3969">
        <ele>209.6</ele>
        <time>2022-01-10T14:49:38Z</time>
      </trkpt>
      <trkpt lat="46.55502" lon="5.39671">
        <ele>210</ele>
        <time>2022-01-10T14:49:42Z</time>
      </trkpt>
      <trkpt lat="46.5549" lon="5.3966">
        <ele>210.2</ele>
        <time>2022-01-10T14:49:44Z</time>
      </trkpt>
      <trkpt lat="46.55439" lon="5.39619">
        <ele>210.2</ele>
        <time>2022-01-10T14:49:52Z</time>
      </trkpt>
      <trkpt lat="46.55433" lon="5.39614">
        <ele>210.4</ele>
        <time>2022-01-10T14:49:53Z</time>
      </trkpt>
      <trkpt lat="46.55407" lon="5.3959">
        <ele>211.2</ele>
        <time>2022-01-10T14:49:58Z</time>
      </trkpt>
      <trkpt lat="46.55396" lon="5.3958">
        <ele>212</ele>
        <time>2022-01-10T14:50:00Z</time>
      </trkpt>
      <trkpt lat="46.55385" lon="5.3957">
        <ele>212.4</ele>
        <time>2022-01-10T14:50:02Z</time>
      </trkpt>
      <trkpt lat="46.55355" lon="5.39546">
        <ele>213.8</ele>
        <time>2022-01-10T14:50:07Z</time>
      </trkpt>
      <trkpt lat="46.55324" lon="5.39522">
        <ele>214</ele>
        <time>2022-01-10T14:50:12Z</time>
      </trkpt>
      <trkpt lat="46.55274" lon="5.39484">
        <ele>214.2</ele>
        <time>2022-01-10T14:50:20Z</time>
      </trkpt>
      <trkpt lat="46.55254" lon="5.39468">
        <ele>214.2</ele>
        <time>2022-01-10T14:50:23Z</time>
      </trkpt>
      <trkpt lat="46.55242" lon="5.39456">
        <ele>214.2</ele>
        <time>2022-01-10T14:50:25Z</time>
      </trkpt>
      <trkpt lat="46.55225" lon="5.39434">
        <ele>214</ele>
        <time>2022-01-10T14:50:28Z</time>
      </trkpt>
      <trkpt lat="46.55211" lon="5.39426">
        <ele>213.8</ele>
        <time>2022-01-10T14:50:30Z</time>
      </trkpt>
      <trkpt lat="46.55204" lon="5.39425">
        <ele>213.8</ele>
        <time>2022-01-10T14:50:31Z</time>
      </trkpt>
      <trkpt lat="46.55152" lon="5.39417">
        <ele>213.8</ele>
        <time>2022-01-10T14:50:38Z</time>
      </trkpt>
      <trkpt lat="46.55105" lon="5.39396">
        <ele>214.2</ele>
        <time>2022-01-10T14:50:45Z</time>
      </trkpt>
      <trkpt lat="46.55051" lon="5.39368">
        <ele>214.2</ele>
        <time>2022-01-10T14:50:52Z</time>
      </trkpt>
      <trkpt lat="46.54999" lon="5.39334">
        <ele>212.8</ele>
        <time>2022-01-10T14:50:58Z</time>
      </trkpt>
      <trkpt lat="46.54989" lon="5.39329">
        <ele>212.6</ele>
        <time>2022-01-10T14:50:59Z</time>
      </trkpt>
      <trkpt lat="46.54968" lon="5.3932">
        <ele>211.4</ele>
        <time>2022-01-10T14:51:01Z</time>
      </trkpt>
      <trkpt lat="46.54949" lon="5.39312">
        <ele>210</ele>
        <time>2022-01-10T14:51:03Z</time>
      </trkpt>
      <trkpt lat="46.5494" lon="5.39308">
        <ele>209.6</ele>
        <time>2022-01-10T14:51:04Z</time>
      </trkpt>
      <trkpt lat="46.54906" lon="5.39299">
        <ele>209.2</ele>
        <time>2022-01-10T14:51:08Z</time>
      </trkpt>
      <trkpt lat="46.5486" lon="5.39281">
        <ele>211</ele>
        <time>2022-01-10T14:51:14Z</time>
      </trkpt>
      <trkpt lat="46.54831" lon="5.39269">
        <ele>212.4</ele>
        <time>2022-01-10T14:51:18Z</time>
      </trkpt>
      <trkpt lat="46.54809" lon="5.3926">
        <ele>213.6</ele>
        <time>2022-01-10T14:51:21Z</time>
      </trkpt>
      <trkpt lat="46.54795" lon="5.39254">
        <ele>214.2</ele>
        <time>2022-01-10T14:51:23Z</time>
      </trkpt>
      <trkpt lat="46.54779" lon="5.39245">
        <ele>215</ele>
        <time>2022-01-10T14:51:25Z</time>
      </trkpt>
      <trkpt lat="46.54743" lon="5.39227">
        <ele>216.2</ele>
        <time>2022-01-10T14:51:30Z</time>
      </trkpt>
      <trkpt lat="46.54729" lon="5.39219">
        <ele>216.6</ele>
        <time>2022-01-10T14:51:32Z</time>
      </trkpt>
      <trkpt lat="46.54715" lon="5.39212">
        <ele>217.2</ele>
        <time>2022-01-10T14:51:34Z</time>
      </trkpt>
      <trkpt lat="46.54687" lon="5.39197">
        <ele>218</ele>
        <time>2022-01-10T14:51:38Z</time>
      </trkpt>
      <trkpt lat="46.54665" lon="5.39187">
        <ele>218.6</ele>
        <time>2022-01-10T14:51:41Z</time>
      </trkpt>
      <trkpt lat="46.54612" lon="5.39164">
        <ele>219</ele>
        <time>2022-01-10T14:51:48Z</time>
      </trkpt>
      <trkpt lat="46.54555" lon="5.39135">
        <ele>218.8</ele>
        <time>2022-01-10T14:51:56Z</time>
      </trkpt>
      <trkpt lat="46.54542" lon="5.39127">
        <ele>218.8</ele>
        <time>2022-01-10T14:51:58Z</time>
      </trkpt>
      <trkpt lat="46.54515" lon="5.39112">
        <ele>219.6</ele>
        <time>2022-01-10T14:52:03Z</time>
      </trkpt>
      <trkpt lat="46.54506" lon="5.39115">
        <ele>220</ele>
        <time>2022-01-10T14:52:05Z</time>
      </trkpt>
      <trkpt lat="46.54503" lon="5.39119">
        <ele>220.4</ele>
        <time>2022-01-10T14:52:06Z</time>
      </trkpt>
      <trkpt lat="46.54501" lon="5.39125">
        <ele>220.6</ele>
        <time>2022-01-10T14:52:07Z</time>
      </trkpt>
      <trkpt lat="46.54498" lon="5.39137">
        <ele>221.4</ele>
        <time>2022-01-10T14:52:09Z</time>
      </trkpt>
      <trkpt lat="46.54495" lon="5.39142">
        <ele>222</ele>
        <time>2022-01-10T14:52:10Z</time>
      </trkpt>
      <trkpt lat="46.54491" lon="5.39146">
        <ele>222.4</ele>
        <time>2022-01-10T14:52:11Z</time>
      </trkpt>
      <trkpt lat="46.5448" lon="5.39146">
        <ele>222.6</ele>
        <time>2022-01-10T14:52:13Z</time>
      </trkpt>
      <trkpt lat="46.54449" lon="5.39131">
        <ele>222.6</ele>
        <time>2022-01-10T14:52:17Z</time>
      </trkpt>
      <trkpt lat="46.54412" lon="5.39122">
        <ele>220.8</ele>
        <time>2022-01-10T14:52:21Z</time>
      </trkpt>
      <trkpt lat="46.54402" lon="5.39119">
        <ele>220.2</ele>
        <time>2022-01-10T14:52:22Z</time>
      </trkpt>
      <trkpt lat="46.54382" lon="5.39111">
        <ele>219.2</ele>
        <time>2022-01-10T14:52:24Z</time>
      </trkpt>
      <trkpt lat="46.54362" lon="5.39104">
        <ele>218</ele>
        <time>2022-01-10T14:52:26Z</time>
      </trkpt>
      <trkpt lat="46.54333" lon="5.39092">
        <ele>217</ele>
        <time>2022-01-10T14:52:29Z</time>
      </trkpt>
      <trkpt lat="46.54287" lon="5.39068">
        <ele>216</ele>
        <time>2022-01-10T14:52:34Z</time>
      </trkpt>
      <trkpt lat="46.54253" lon="5.3905">
        <ele>215.6</ele>
        <time>2022-01-10T14:52:38Z</time>
      </trkpt>
      <trkpt lat="46.54196" lon="5.39021">
        <ele>215.8</ele>
        <time>2022-01-10T14:52:45Z</time>
      </trkpt>
      <trkpt lat="46.54188" lon="5.39017">
        <ele>215.8</ele>
        <time>2022-01-10T14:52:46Z</time>
      </trkpt>
      <trkpt lat="46.54134" lon="5.38997">
        <ele>216.4</ele>
        <time>2022-01-10T14:52:53Z</time>
      </trkpt>
      <trkpt lat="46.54081" lon="5.38976">
        <ele>216.8</ele>
        <time>2022-01-10T14:53:00Z</time>
      </trkpt>
      <trkpt lat="46.54066" lon="5.38969">
        <ele>217</ele>
        <time>2022-01-10T14:53:02Z</time>
      </trkpt>
      <trkpt lat="46.54012" lon="5.3895">
        <ele>217.2</ele>
        <time>2022-01-10T14:53:09Z</time>
      </trkpt>
      <trkpt lat="46.53957" lon="5.38939">
        <ele>217.8</ele>
        <time>2022-01-10T14:53:16Z</time>
      </trkpt>
      <trkpt lat="46.5394" lon="5.38937">
        <ele>217.8</ele>
        <time>2022-01-10T14:53:18Z</time>
      </trkpt>
      <trkpt lat="46.53917" lon="5.38935">
        <ele>218</ele>
        <time>2022-01-10T14:53:21Z</time>
      </trkpt>
      <trkpt lat="46.53856" lon="5.38931">
        <ele>218.8</ele>
        <time>2022-01-10T14:53:29Z</time>
      </trkpt>
      <trkpt lat="46.53835" lon="5.38923">
        <ele>219</ele>
        <time>2022-01-10T14:53:32Z</time>
      </trkpt>
      <trkpt lat="46.53819" lon="5.38917">
        <ele>219.2</ele>
        <time>2022-01-10T14:53:34Z</time>
      </trkpt>
      <trkpt lat="46.53772" lon="5.38901">
        <ele>219.4</ele>
        <time>2022-01-10T14:53:40Z</time>
      </trkpt>
      <trkpt lat="46.53718" lon="5.3888">
        <ele>219.6</ele>
        <time>2022-01-10T14:53:47Z</time>
      </trkpt>
      <trkpt lat="46.53709" lon="5.38877">
        <ele>219.6</ele>
        <time>2022-01-10T14:53:48Z</time>
      </trkpt>
      <trkpt lat="46.53656" lon="5.38854">
        <ele>219.8</ele>
        <time>2022-01-10T14:53:55Z</time>
      </trkpt>
      <trkpt lat="46.53605" lon="5.38826">
        <ele>220</ele>
        <time>2022-01-10T14:54:02Z</time>
      </trkpt>
      <trkpt lat="46.53598" lon="5.38822">
        <ele>220.2</ele>
        <time>2022-01-10T14:54:03Z</time>
      </trkpt>
      <trkpt lat="46.53563" lon="5.388">
        <ele>220.4</ele>
        <time>2022-01-10T14:54:08Z</time>
      </trkpt>
      <trkpt lat="46.53557" lon="5.38794">
        <ele>220.4</ele>
        <time>2022-01-10T14:54:09Z</time>
      </trkpt>
      <trkpt lat="46.53552" lon="5.38786">
        <ele>220.4</ele>
        <time>2022-01-10T14:54:10Z</time>
      </trkpt>
      <trkpt lat="46.53536" lon="5.38759">
        <ele>220.4</ele>
        <time>2022-01-10T14:54:13Z</time>
      </trkpt>
      <trkpt lat="46.53528" lon="5.3875">
        <ele>220.2</ele>
        <time>2022-01-10T14:54:14Z</time>
      </trkpt>
      <trkpt lat="46.53514" lon="5.38744">
        <ele>219.8</ele>
        <time>2022-01-10T14:54:16Z</time>
      </trkpt>
      <trkpt lat="46.535" lon="5.38746">
        <ele>219.4</ele>
        <time>2022-01-10T14:54:18Z</time>
      </trkpt>
      <trkpt lat="46.53494" lon="5.38744">
        <ele>219.2</ele>
        <time>2022-01-10T14:54:19Z</time>
      </trkpt>
      <trkpt lat="46.53489" lon="5.38739">
        <ele>219.2</ele>
        <time>2022-01-10T14:54:20Z</time>
      </trkpt>
      <trkpt lat="46.53484" lon="5.38733">
        <ele>219</ele>
        <time>2022-01-10T14:54:21Z</time>
      </trkpt>
      <trkpt lat="46.53478" lon="5.38726">
        <ele>219</ele>
        <time>2022-01-10T14:54:22Z</time>
      </trkpt>
      <trkpt lat="46.53463" lon="5.38716">
        <ele>218.6</ele>
        <time>2022-01-10T14:54:24Z</time>
      </trkpt>
      <trkpt lat="46.53448" lon="5.3871">
        <ele>218.6</ele>
        <time>2022-01-10T14:54:26Z</time>
      </trkpt>
      <trkpt lat="46.53393" lon="5.38701">
        <ele>218.4</ele>
        <time>2022-01-10T14:54:33Z</time>
      </trkpt>
      <trkpt lat="46.53338" lon="5.38698">
        <ele>218.4</ele>
        <time>2022-01-10T14:54:40Z</time>
      </trkpt>
      <trkpt lat="46.53298" lon="5.38686">
        <ele>217.8</ele>
        <time>2022-01-10T14:54:45Z</time>
      </trkpt>
      <trkpt lat="46.53273" lon="5.38676">
        <ele>217.6</ele>
        <time>2022-01-10T14:54:48Z</time>
      </trkpt>
      <trkpt lat="46.53239" lon="5.38663">
        <ele>216.8</ele>
        <time>2022-01-10T14:54:52Z</time>
      </trkpt>
      <trkpt lat="46.53215" lon="5.38651">
        <ele>216</ele>
        <time>2022-01-10T14:54:55Z</time>
      </trkpt>
      <trkpt lat="46.532" lon="5.38638">
        <ele>215.6</ele>
        <time>2022-01-10T14:54:57Z</time>
      </trkpt>
      <trkpt lat="46.53186" lon="5.38621">
        <ele>215.4</ele>
        <time>2022-01-10T14:54:59Z</time>
      </trkpt>
      <trkpt lat="46.53171" lon="5.38606">
        <ele>214.8</ele>
        <time>2022-01-10T14:55:01Z</time>
      </trkpt>
      <trkpt lat="46.53163" lon="5.386">
        <ele>214.4</ele>
        <time>2022-01-10T14:55:02Z</time>
      </trkpt>
      <trkpt lat="46.53154" lon="5.38595">
        <ele>214.4</ele>
        <time>2022-01-10T14:55:03Z</time>
      </trkpt>
      <trkpt lat="46.53133" lon="5.38582">
        <ele>213.4</ele>
        <time>2022-01-10T14:55:06Z</time>
      </trkpt>
      <trkpt lat="46.53127" lon="5.38579">
        <ele>213.2</ele>
        <time>2022-01-10T14:55:07Z</time>
      </trkpt>
      <trkpt lat="46.53113" lon="5.38579">
        <ele>212</ele>
        <time>2022-01-10T14:55:09Z</time>
      </trkpt>
      <trkpt lat="46.53105" lon="5.38582">
        <ele>211.6</ele>
        <time>2022-01-10T14:55:10Z</time>
      </trkpt>
      <trkpt lat="46.53089" lon="5.38587">
        <ele>210.8</ele>
        <time>2022-01-10T14:55:12Z</time>
      </trkpt>
      <trkpt lat="46.53055" lon="5.38596">
        <ele>209.6</ele>
        <time>2022-01-10T14:55:16Z</time>
      </trkpt>
      <trkpt lat="46.53012" lon="5.38607">
        <ele>208.6</ele>
        <time>2022-01-10T14:55:21Z</time>
      </trkpt>
      <trkpt lat="46.53003" lon="5.38608">
        <ele>208.4</ele>
        <time>2022-01-10T14:55:22Z</time>
      </trkpt>
      <trkpt lat="46.52957" lon="5.38601">
        <ele>207.4</ele>
        <time>2022-01-10T14:55:27Z</time>
      </trkpt>
      <trkpt lat="46.52932" lon="5.38604">
        <ele>206.6</ele>
        <time>2022-01-10T14:55:30Z</time>
      </trkpt>
      <trkpt lat="46.52921" lon="5.38603">
        <ele>206</ele>
        <time>2022-01-10T14:55:31Z</time>
      </trkpt>
      <trkpt lat="46.52913" lon="5.38605">
        <ele>205.6</ele>
        <time>2022-01-10T14:55:32Z</time>
      </trkpt>
      <trkpt lat="46.52898" lon="5.38609">
        <ele>204.6</ele>
        <time>2022-01-10T14:55:34Z</time>
      </trkpt>
      <trkpt lat="46.5288" lon="5.38607">
        <ele>203</ele>
        <time>2022-01-10T14:55:36Z</time>
      </trkpt>
      <trkpt lat="46.52861" lon="5.38604">
        <ele>202.4</ele>
        <time>2022-01-10T14:55:38Z</time>
      </trkpt>
      <trkpt lat="46.52841" lon="5.38599">
        <ele>202</ele>
        <time>2022-01-10T14:55:40Z</time>
      </trkpt>
      <trkpt lat="46.52823" lon="5.38594">
        <ele>201</ele>
        <time>2022-01-10T14:55:42Z</time>
      </trkpt>
      <trkpt lat="46.52816" lon="5.3859">
        <ele>200.8</ele>
        <time>2022-01-10T14:55:43Z</time>
      </trkpt>
      <trkpt lat="46.52809" lon="5.38584">
        <ele>200.4</ele>
        <time>2022-01-10T14:55:44Z</time>
      </trkpt>
      <trkpt lat="46.52795" lon="5.38565">
        <ele>200</ele>
        <time>2022-01-10T14:55:46Z</time>
      </trkpt>
      <trkpt lat="46.5279" lon="5.38556">
        <ele>199.6</ele>
        <time>2022-01-10T14:55:47Z</time>
      </trkpt>
      <trkpt lat="46.52782" lon="5.38537">
        <ele>199.4</ele>
        <time>2022-01-10T14:55:49Z</time>
      </trkpt>
      <trkpt lat="46.52773" lon="5.38528">
        <ele>199.2</ele>
        <time>2022-01-10T14:55:51Z</time>
      </trkpt>
      <trkpt lat="46.52758" lon="5.38527">
        <ele>199</ele>
        <time>2022-01-10T14:55:53Z</time>
      </trkpt>
      <trkpt lat="46.5275" lon="5.38528">
        <ele>199</ele>
        <time>2022-01-10T14:55:54Z</time>
      </trkpt>
      <trkpt lat="46.52735" lon="5.38531">
        <ele>199</ele>
        <time>2022-01-10T14:55:56Z</time>
      </trkpt>
      <trkpt lat="46.52721" lon="5.38527">
        <ele>199.2</ele>
        <time>2022-01-10T14:55:58Z</time>
      </trkpt>
      <trkpt lat="46.52699" lon="5.38516">
        <ele>199.4</ele>
        <time>2022-01-10T14:56:01Z</time>
      </trkpt>
      <trkpt lat="46.52684" lon="5.38512">
        <ele>199.8</ele>
        <time>2022-01-10T14:56:03Z</time>
      </trkpt>
      <trkpt lat="46.52648" lon="5.38506">
        <ele>200.6</ele>
        <time>2022-01-10T14:56:08Z</time>
      </trkpt>
      <trkpt lat="46.5262" lon="5.38502">
        <ele>201.2</ele>
        <time>2022-01-10T14:56:12Z</time>
      </trkpt>
      <trkpt lat="46.52574" lon="5.38491">
        <ele>201.6</ele>
        <time>2022-01-10T14:56:19Z</time>
      </trkpt>
      <trkpt lat="46.52568" lon="5.38489">
        <ele>201.4</ele>
        <time>2022-01-10T14:56:20Z</time>
      </trkpt>
      <trkpt lat="46.52545" lon="5.38473">
        <ele>201.8</ele>
        <time>2022-01-10T14:56:24Z</time>
      </trkpt>
      <trkpt lat="46.52536" lon="5.38461">
        <ele>202</ele>
        <time>2022-01-10T14:56:26Z</time>
      </trkpt>
      <trkpt lat="46.52529" lon="5.38444">
        <ele>202.2</ele>
        <time>2022-01-10T14:56:28Z</time>
      </trkpt>
      <trkpt lat="46.52526" lon="5.38428">
        <ele>202.6</ele>
        <time>2022-01-10T14:56:30Z</time>
      </trkpt>
      <trkpt lat="46.52525" lon="5.38409">
        <ele>202.8</ele>
        <time>2022-01-10T14:56:32Z</time>
      </trkpt>
      <trkpt lat="46.52526" lon="5.38389">
        <ele>203</ele>
        <time>2022-01-10T14:56:34Z</time>
      </trkpt>
      <trkpt lat="46.52525" lon="5.38357">
        <ele>203.2</ele>
        <time>2022-01-10T14:56:37Z</time>
      </trkpt>
      <trkpt lat="46.52517" lon="5.38288">
        <ele>202.8</ele>
        <time>2022-01-10T14:56:43Z</time>
      </trkpt>
      <trkpt lat="46.52516" lon="5.38263">
        <ele>202.4</ele>
        <time>2022-01-10T14:56:45Z</time>
      </trkpt>
      <trkpt lat="46.52519" lon="5.38235">
        <ele>202</ele>
        <time>2022-01-10T14:56:47Z</time>
      </trkpt>
      <trkpt lat="46.52524" lon="5.38212">
        <ele>201.4</ele>
        <time>2022-01-10T14:56:49Z</time>
      </trkpt>
      <trkpt lat="46.52533" lon="5.38175">
        <ele>200.2</ele>
        <time>2022-01-10T14:56:52Z</time>
      </trkpt>
      <trkpt lat="46.52545" lon="5.38126">
        <ele>199</ele>
        <time>2022-01-10T14:56:56Z</time>
      </trkpt>
      <trkpt lat="46.52547" lon="5.38101">
        <ele>198.4</ele>
        <time>2022-01-10T14:56:58Z</time>
      </trkpt>
      <trkpt lat="46.52548" lon="5.38088">
        <ele>198.2</ele>
        <time>2022-01-10T14:56:59Z</time>
      </trkpt>
      <trkpt lat="46.52547" lon="5.38076">
        <ele>198</ele>
        <time>2022-01-10T14:57:00Z</time>
      </trkpt>
      <trkpt lat="46.52544" lon="5.38039">
        <ele>197.4</ele>
        <time>2022-01-10T14:57:03Z</time>
      </trkpt>
      <trkpt lat="46.52534" lon="5.37992">
        <ele>197</ele>
        <time>2022-01-10T14:57:07Z</time>
      </trkpt>
      <trkpt lat="46.52531" lon="5.37981">
        <ele>196.8</ele>
        <time>2022-01-10T14:57:08Z</time>
      </trkpt>
      <trkpt lat="46.52523" lon="5.37946">
        <ele>196.6</ele>
        <time>2022-01-10T14:57:11Z</time>
      </trkpt>
      <trkpt lat="46.52522" lon="5.37923">
        <ele>196.4</ele>
        <time>2022-01-10T14:57:13Z</time>
      </trkpt>
      <trkpt lat="46.52525" lon="5.37875">
        <ele>195.8</ele>
        <time>2022-01-10T14:57:17Z</time>
      </trkpt>
      <trkpt lat="46.52528" lon="5.37842">
        <ele>195.4</ele>
        <time>2022-01-10T14:57:20Z</time>
      </trkpt>
      <trkpt lat="46.5253" lon="5.37799">
        <ele>194.8</ele>
        <time>2022-01-10T14:57:24Z</time>
      </trkpt>
      <trkpt lat="46.52531" lon="5.37768">
        <ele>194.6</ele>
        <time>2022-01-10T14:57:27Z</time>
      </trkpt>
      <trkpt lat="46.52533" lon="5.37739">
        <ele>194.2</ele>
        <time>2022-01-10T14:57:31Z</time>
      </trkpt>
      <trkpt lat="46.52533" lon="5.37729">
        <ele>193.8</ele>
        <time>2022-01-10T14:57:35Z</time>
      </trkpt>
      <trkpt lat="46.52535" lon="5.37703">
        <ele>193.4</ele>
        <time>2022-01-10T14:57:41Z</time>
      </trkpt>
      <trkpt lat="46.52538" lon="5.37662">
        <ele>193.4</ele>
        <time>2022-01-10T14:57:46Z</time>
      </trkpt>
      <trkpt lat="46.52543" lon="5.37604">
        <ele>193.4</ele>
        <time>2022-01-10T14:57:52Z</time>
      </trkpt>
      <trkpt lat="46.52551" lon="5.37525">
        <ele>193.2</ele>
        <time>2022-01-10T14:58:00Z</time>
      </trkpt>
      <trkpt lat="46.52558" lon="5.37445">
        <ele>193.4</ele>
        <time>2022-01-10T14:58:08Z</time>
      </trkpt>
      <trkpt lat="46.52563" lon="5.37376">
        <ele>193.4</ele>
        <time>2022-01-10T14:58:15Z</time>
      </trkpt>
      <trkpt lat="46.52565" lon="5.37296">
        <ele>192.6</ele>
        <time>2022-01-10T14:58:23Z</time>
      </trkpt>
      <trkpt lat="46.52564" lon="5.37287">
        <ele>192.6</ele>
        <time>2022-01-10T14:58:24Z</time>
      </trkpt>
      <trkpt lat="46.52563" lon="5.37277">
        <ele>192.6</ele>
        <time>2022-01-10T14:58:25Z</time>
      </trkpt>
      <trkpt lat="46.52557" lon="5.37248">
        <ele>192.2</ele>
        <time>2022-01-10T14:58:28Z</time>
      </trkpt>
      <trkpt lat="46.52551" lon="5.37228">
        <ele>192</ele>
        <time>2022-01-10T14:58:30Z</time>
      </trkpt>
      <trkpt lat="46.52543" lon="5.37212">
        <ele>192</ele>
        <time>2022-01-10T14:58:32Z</time>
      </trkpt>
      <trkpt lat="46.52538" lon="5.37204">
        <ele>192</ele>
        <time>2022-01-10T14:58:33Z</time>
      </trkpt>
      <trkpt lat="46.52516" lon="5.37176">
        <ele>192</ele>
        <time>2022-01-10T14:58:37Z</time>
      </trkpt>
      <trkpt lat="46.52482" lon="5.37135">
        <ele>191.6</ele>
        <time>2022-01-10T14:58:43Z</time>
      </trkpt>
      <trkpt lat="46.52471" lon="5.37119">
        <ele>191.4</ele>
        <time>2022-01-10T14:58:45Z</time>
      </trkpt>
      <trkpt lat="46.52451" lon="5.37075">
        <ele>191.2</ele>
        <time>2022-01-10T14:58:50Z</time>
      </trkpt>
      <trkpt lat="46.52448" lon="5.37066">
        <ele>191.2</ele>
        <time>2022-01-10T14:58:51Z</time>
      </trkpt>
      <trkpt lat="46.52437" lon="5.37022">
        <ele>191</ele>
        <time>2022-01-10T14:58:56Z</time>
      </trkpt>
      <trkpt lat="46.52427" lon="5.37014">
        <ele>190.8</ele>
        <time>2022-01-10T14:58:58Z</time>
      </trkpt>
      <trkpt lat="46.52422" lon="5.37017">
        <ele>190.8</ele>
        <time>2022-01-10T14:58:59Z</time>
      </trkpt>
      <trkpt lat="46.52402" lon="5.37053">
        <ele>190.6</ele>
        <time>2022-01-10T14:59:04Z</time>
      </trkpt>
      <trkpt lat="46.52359" lon="5.37105">
        <ele>190.6</ele>
        <time>2022-01-10T14:59:12Z</time>
      </trkpt>
      <trkpt lat="46.52319" lon="5.37147">
        <ele>192</ele>
        <time>2022-01-10T14:59:20Z</time>
      </trkpt>
      <trkpt lat="46.52309" lon="5.37157">
        <ele>192.6</ele>
        <time>2022-01-10T14:59:22Z</time>
      </trkpt>
      <trkpt lat="46.52298" lon="5.3717">
        <ele>193.6</ele>
        <time>2022-01-10T14:59:25Z</time>
      </trkpt>
      <trkpt lat="46.52293" lon="5.37175">
        <ele>193.8</ele>
        <time>2022-01-10T14:59:26Z</time>
      </trkpt>
      <trkpt lat="46.52278" lon="5.37191">
        <ele>195</ele>
        <time>2022-01-10T14:59:30Z</time>
      </trkpt>
      <trkpt lat="46.5227" lon="5.372">
        <ele>195</ele>
        <time>2022-01-10T14:59:32Z</time>
      </trkpt>
      <trkpt lat="46.52258" lon="5.37211">
        <ele>195.8</ele>
        <time>2022-01-10T14:59:35Z</time>
      </trkpt>
      <trkpt lat="46.52239" lon="5.37231">
        <ele>196.6</ele>
        <time>2022-01-10T14:59:40Z</time>
      </trkpt>
      <trkpt lat="46.52236" lon="5.37234">
        <ele>197</ele>
        <time>2022-01-10T14:59:41Z</time>
      </trkpt>
      <trkpt lat="46.52231" lon="5.37237">
        <ele>197.2</ele>
        <time>2022-01-10T14:59:42Z</time>
      </trkpt>
      <trkpt lat="46.52214" lon="5.37252">
        <ele>198.2</ele>
        <time>2022-01-10T14:59:46Z</time>
      </trkpt>
      <trkpt lat="46.5221" lon="5.37255">
        <ele>198.4</ele>
        <time>2022-01-10T14:59:47Z</time>
      </trkpt>
      <trkpt lat="46.52188" lon="5.37272">
        <ele>199.4</ele>
        <time>2022-01-10T14:59:52Z</time>
      </trkpt>
      <trkpt lat="46.52181" lon="5.37278">
        <ele>199.6</ele>
        <time>2022-01-10T14:59:54Z</time>
      </trkpt>
      <trkpt lat="46.52156" lon="5.37296">
        <ele>200.6</ele>
        <time>2022-01-10T15:00:00Z</time>
      </trkpt>
      <trkpt lat="46.52152" lon="5.37299">
        <ele>201</ele>
        <time>2022-01-10T15:00:01Z</time>
      </trkpt>
      <trkpt lat="46.52144" lon="5.37305">
        <ele>201.6</ele>
        <time>2022-01-10T15:00:03Z</time>
      </trkpt>
      <trkpt lat="46.52123" lon="5.3732">
        <ele>202.6</ele>
        <time>2022-01-10T15:00:08Z</time>
      </trkpt>
      <trkpt lat="46.52111" lon="5.37328">
        <ele>203.8</ele>
        <time>2022-01-10T15:00:11Z</time>
      </trkpt>
      <trkpt lat="46.52102" lon="5.37332">
        <ele>204.6</ele>
        <time>2022-01-10T15:00:13Z</time>
      </trkpt>
      <trkpt lat="46.52095" lon="5.37337">
        <ele>205</ele>
        <time>2022-01-10T15:00:15Z</time>
      </trkpt>
      <trkpt lat="46.52088" lon="5.37345">
        <ele>205.4</ele>
        <time>2022-01-10T15:00:17Z</time>
      </trkpt>
      <trkpt lat="46.52083" lon="5.37352">
        <ele>205.8</ele>
        <time>2022-01-10T15:00:19Z</time>
      </trkpt>
      <trkpt lat="46.52081" lon="5.37358">
        <ele>206.2</ele>
        <time>2022-01-10T15:00:20Z</time>
      </trkpt>
      <trkpt lat="46.52075" lon="5.37383">
        <ele>207.6</ele>
        <time>2022-01-10T15:00:24Z</time>
      </trkpt>
      <trkpt lat="46.52072" lon="5.37397">
        <ele>208.2</ele>
        <time>2022-01-10T15:00:26Z</time>
      </trkpt>
      <trkpt lat="46.52069" lon="5.37411">
        <ele>208.6</ele>
        <time>2022-01-10T15:00:28Z</time>
      </trkpt>
      <trkpt lat="46.5206" lon="5.37452">
        <ele>209.2</ele>
        <time>2022-01-10T15:00:34Z</time>
      </trkpt>
      <trkpt lat="46.52048" lon="5.37509">
        <ele>209.2</ele>
        <time>2022-01-10T15:00:41Z</time>
      </trkpt>
      <trkpt lat="46.52031" lon="5.37584">
        <ele>209</ele>
        <time>2022-01-10T15:00:50Z</time>
      </trkpt>
      <trkpt lat="46.52023" lon="5.37615">
        <ele>209</ele>
        <time>2022-01-10T15:00:54Z</time>
      </trkpt>
      <trkpt lat="46.52017" lon="5.37627">
        <ele>209</ele>
        <time>2022-01-10T15:00:56Z</time>
      </trkpt>
      <trkpt lat="46.52007" lon="5.37631">
        <ele>209</ele>
        <time>2022-01-10T15:00:58Z</time>
      </trkpt>
      <trkpt lat="46.52" lon="5.37632">
        <ele>209</ele>
        <time>2022-01-10T15:00:59Z</time>
      </trkpt>
      <trkpt lat="46.51962" lon="5.37638">
        <ele>209.4</ele>
        <time>2022-01-10T15:01:05Z</time>
      </trkpt>
      <trkpt lat="46.51915" lon="5.37646">
        <ele>209.4</ele>
        <time>2022-01-10T15:01:12Z</time>
      </trkpt>
      <trkpt lat="46.51876" lon="5.37648">
        <ele>209.4</ele>
        <time>2022-01-10T15:01:18Z</time>
      </trkpt>
      <trkpt lat="46.5185" lon="5.37649">
        <ele>209.6</ele>
        <time>2022-01-10T15:01:22Z</time>
      </trkpt>
      <trkpt lat="46.51814" lon="5.37651">
        <ele>209.8</ele>
        <time>2022-01-10T15:01:27Z</time>
      </trkpt>
      <trkpt lat="46.51772" lon="5.37647">
        <ele>209.6</ele>
        <time>2022-01-10T15:01:32Z</time>
      </trkpt>
      <trkpt lat="46.51739" lon="5.37637">
        <ele>208.6</ele>
        <time>2022-01-10T15:01:36Z</time>
      </trkpt>
      <trkpt lat="46.51729" lon="5.37634">
        <ele>208.4</ele>
        <time>2022-01-10T15:01:37Z</time>
      </trkpt>
      <trkpt lat="46.51711" lon="5.37631">
        <ele>208</ele>
        <time>2022-01-10T15:01:39Z</time>
      </trkpt>
      <trkpt lat="46.51694" lon="5.37633">
        <ele>207.4</ele>
        <time>2022-01-10T15:01:41Z</time>
      </trkpt>
      <trkpt lat="46.51677" lon="5.37643">
        <ele>206.8</ele>
        <time>2022-01-10T15:01:43Z</time>
      </trkpt>
      <trkpt lat="46.51667" lon="5.3765">
        <ele>206.8</ele>
        <time>2022-01-10T15:01:44Z</time>
      </trkpt>
      <trkpt lat="46.51645" lon="5.37662">
        <ele>206.4</ele>
        <time>2022-01-10T15:01:47Z</time>
      </trkpt>
      <trkpt lat="46.51628" lon="5.3767">
        <ele>206.2</ele>
        <time>2022-01-10T15:01:49Z</time>
      </trkpt>
      <trkpt lat="46.5159" lon="5.3768">
        <ele>206.2</ele>
        <time>2022-01-10T15:01:54Z</time>
      </trkpt>
      <trkpt lat="46.51542" lon="5.37687">
        <ele>207.4</ele>
        <time>2022-01-10T15:02:01Z</time>
      </trkpt>
      <trkpt lat="46.51498" lon="5.37698">
        <ele>208.6</ele>
        <time>2022-01-10T15:02:08Z</time>
      </trkpt>
      <trkpt lat="46.51448" lon="5.37709">
        <ele>209.2</ele>
        <time>2022-01-10T15:02:16Z</time>
      </trkpt>
      <trkpt lat="46.51418" lon="5.37718">
        <ele>209.8</ele>
        <time>2022-01-10T15:02:21Z</time>
      </trkpt>
      <trkpt lat="46.51388" lon="5.37728">
        <ele>210.4</ele>
        <time>2022-01-10T15:02:26Z</time>
      </trkpt>
      <trkpt lat="46.51371" lon="5.37736">
        <ele>210.8</ele>
        <time>2022-01-10T15:02:29Z</time>
      </trkpt>
      <trkpt lat="46.51338" lon="5.37753">
        <ele>211.6</ele>
        <time>2022-01-10T15:02:35Z</time>
      </trkpt>
      <trkpt lat="46.51327" lon="5.37759">
        <ele>211.8</ele>
        <time>2022-01-10T15:02:37Z</time>
      </trkpt>
      <trkpt lat="46.51296" lon="5.37775">
        <ele>212.8</ele>
        <time>2022-01-10T15:02:43Z</time>
      </trkpt>
      <trkpt lat="46.51291" lon="5.37777">
        <ele>213</ele>
        <time>2022-01-10T15:02:44Z</time>
      </trkpt>
      <trkpt lat="46.51253" lon="5.37797">
        <ele>214</ele>
        <time>2022-01-10T15:02:51Z</time>
      </trkpt>
      <trkpt lat="46.51247" lon="5.37799">
        <ele>214.2</ele>
        <time>2022-01-10T15:02:52Z</time>
      </trkpt>
      <trkpt lat="46.51211" lon="5.37805">
        <ele>214.6</ele>
        <time>2022-01-10T15:02:58Z</time>
      </trkpt>
      <trkpt lat="46.51182" lon="5.3781">
        <ele>215.2</ele>
        <time>2022-01-10T15:03:03Z</time>
      </trkpt>
      <trkpt lat="46.51177" lon="5.37811">
        <ele>215.4</ele>
        <time>2022-01-10T15:03:04Z</time>
      </trkpt>
      <trkpt lat="46.51172" lon="5.37814">
        <ele>215.6</ele>
        <time>2022-01-10T15:03:05Z</time>
      </trkpt>
      <trkpt lat="46.51157" lon="5.37823">
        <ele>216.2</ele>
        <time>2022-01-10T15:03:08Z</time>
      </trkpt>
      <trkpt lat="46.51132" lon="5.37843">
        <ele>217.4</ele>
        <time>2022-01-10T15:03:13Z</time>
      </trkpt>
      <trkpt lat="46.51095" lon="5.37863">
        <ele>218.4</ele>
        <time>2022-01-10T15:03:20Z</time>
      </trkpt>
      <trkpt lat="46.51089" lon="5.37865">
        <ele>218.4</ele>
        <time>2022-01-10T15:03:21Z</time>
      </trkpt>
      <trkpt lat="46.51053" lon="5.37871">
        <ele>219.8</ele>
        <time>2022-01-10T15:03:27Z</time>
      </trkpt>
      <trkpt lat="46.51047" lon="5.37871">
        <ele>219.8</ele>
        <time>2022-01-10T15:03:28Z</time>
      </trkpt>
      <trkpt lat="46.51017" lon="5.37876">
        <ele>220.8</ele>
        <time>2022-01-10T15:03:33Z</time>
      </trkpt>
      <trkpt lat="46.51005" lon="5.37878">
        <ele>221.2</ele>
        <time>2022-01-10T15:03:35Z</time>
      </trkpt>
      <trkpt lat="46.50986" lon="5.37882">
        <ele>222.2</ele>
        <time>2022-01-10T15:03:38Z</time>
      </trkpt>
      <trkpt lat="46.50956" lon="5.37888">
        <ele>223</ele>
        <time>2022-01-10T15:03:43Z</time>
      </trkpt>
      <trkpt lat="46.5095" lon="5.3789">
        <ele>223.4</ele>
        <time>2022-01-10T15:03:44Z</time>
      </trkpt>
      <trkpt lat="46.50897" lon="5.37902">
        <ele>223.6</ele>
        <time>2022-01-10T15:03:52Z</time>
      </trkpt>
      <trkpt lat="46.5084" lon="5.37899">
        <ele>223.4</ele>
        <time>2022-01-10T15:04:00Z</time>
      </trkpt>
      <trkpt lat="46.50826" lon="5.37896">
        <ele>223.2</ele>
        <time>2022-01-10T15:04:02Z</time>
      </trkpt>
      <trkpt lat="46.50812" lon="5.37889">
        <ele>223.2</ele>
        <time>2022-01-10T15:04:04Z</time>
      </trkpt>
      <trkpt lat="46.5079" lon="5.37864">
        <ele>223.2</ele>
        <time>2022-01-10T15:04:08Z</time>
      </trkpt>
      <trkpt lat="46.50761" lon="5.37814">
        <ele>223.4</ele>
        <time>2022-01-10T15:04:14Z</time>
      </trkpt>
      <trkpt lat="46.50748" lon="5.37763">
        <ele>223.4</ele>
        <time>2022-01-10T15:04:19Z</time>
      </trkpt>
      <trkpt lat="46.50742" lon="5.37701">
        <ele>222.8</ele>
        <time>2022-01-10T15:04:25Z</time>
      </trkpt>
      <trkpt lat="46.50739" lon="5.37656">
        <ele>222</ele>
        <time>2022-01-10T15:04:29Z</time>
      </trkpt>
      <trkpt lat="46.50737" lon="5.37631">
        <ele>221.6</ele>
        <time>2022-01-10T15:04:31Z</time>
      </trkpt>
      <trkpt lat="46.50729" lon="5.37605">
        <ele>220.8</ele>
        <time>2022-01-10T15:04:33Z</time>
      </trkpt>
      <trkpt lat="46.50724" lon="5.37594">
        <ele>220.2</ele>
        <time>2022-01-10T15:04:34Z</time>
      </trkpt>
      <trkpt lat="46.50718" lon="5.37587">
        <ele>219.6</ele>
        <time>2022-01-10T15:04:35Z</time>
      </trkpt>
      <trkpt lat="46.50706" lon="5.37572">
        <ele>218.4</ele>
        <time>2022-01-10T15:04:37Z</time>
      </trkpt>
      <trkpt lat="46.50703" lon="5.37567">
        <ele>218</ele>
        <time>2022-01-10T15:04:38Z</time>
      </trkpt>
      <trkpt lat="46.50699" lon="5.37564">
        <ele>217</ele>
        <time>2022-01-10T15:04:39Z</time>
      </trkpt>
      <trkpt lat="46.50689" lon="5.37564">
        <ele>216.2</ele>
        <time>2022-01-10T15:04:41Z</time>
      </trkpt>
      <trkpt lat="46.50684" lon="5.37567">
        <ele>216</ele>
        <time>2022-01-10T15:04:42Z</time>
      </trkpt>
      <trkpt lat="46.50679" lon="5.37573">
        <ele>216</ele>
        <time>2022-01-10T15:04:43Z</time>
      </trkpt>
      <trkpt lat="46.50675" lon="5.37578">
        <ele>216</ele>
        <time>2022-01-10T15:04:44Z</time>
      </trkpt>
      <trkpt lat="46.50637" lon="5.37638">
        <ele>216.8</ele>
        <time>2022-01-10T15:04:53Z</time>
      </trkpt>
      <trkpt lat="46.50619" lon="5.37666">
        <ele>217.2</ele>
        <time>2022-01-10T15:04:57Z</time>
      </trkpt>
      <trkpt lat="46.50597" lon="5.377">
        <ele>217.6</ele>
        <time>2022-01-10T15:05:02Z</time>
      </trkpt>
      <trkpt lat="46.50581" lon="5.37724">
        <ele>218.4</ele>
        <time>2022-01-10T15:05:06Z</time>
      </trkpt>
      <trkpt lat="46.50562" lon="5.37753">
        <ele>219.2</ele>
        <time>2022-01-10T15:05:11Z</time>
      </trkpt>
      <trkpt lat="46.50559" lon="5.37759">
        <ele>219.4</ele>
        <time>2022-01-10T15:05:12Z</time>
      </trkpt>
      <trkpt lat="46.50544" lon="5.3778">
        <ele>220.6</ele>
        <time>2022-01-10T15:05:16Z</time>
      </trkpt>
      <trkpt lat="46.50533" lon="5.37796">
        <ele>221</ele>
        <time>2022-01-10T15:05:19Z</time>
      </trkpt>
      <trkpt lat="46.50523" lon="5.37811">
        <ele>221.8</ele>
        <time>2022-01-10T15:05:22Z</time>
      </trkpt>
      <trkpt lat="46.5051" lon="5.37832">
        <ele>223</ele>
        <time>2022-01-10T15:05:26Z</time>
      </trkpt>
      <trkpt lat="46.50506" lon="5.37837">
        <ele>223.2</ele>
        <time>2022-01-10T15:05:27Z</time>
      </trkpt>
      <trkpt lat="46.50496" lon="5.37852">
        <ele>224.2</ele>
        <time>2022-01-10T15:05:30Z</time>
      </trkpt>
      <trkpt lat="46.5048" lon="5.37877">
        <ele>225.2</ele>
        <time>2022-01-10T15:05:35Z</time>
      </trkpt>
      <trkpt lat="46.50476" lon="5.37882">
        <ele>225.2</ele>
        <time>2022-01-10T15:05:36Z</time>
      </trkpt>
      <trkpt lat="46.50456" lon="5.37914">
        <ele>226.2</ele>
        <time>2022-01-10T15:05:42Z</time>
      </trkpt>
      <trkpt lat="46.50446" lon="5.37929">
        <ele>226.6</ele>
        <time>2022-01-10T15:05:45Z</time>
      </trkpt>
      <trkpt lat="46.50436" lon="5.37941">
        <ele>227</ele>
        <time>2022-01-10T15:05:48Z</time>
      </trkpt>
      <trkpt lat="46.50426" lon="5.37955">
        <ele>227.6</ele>
        <time>2022-01-10T15:05:51Z</time>
      </trkpt>
      <trkpt lat="46.50414" lon="5.37974">
        <ele>229.2</ele>
        <time>2022-01-10T15:05:55Z</time>
      </trkpt>
      <trkpt lat="46.50408" lon="5.37983">
        <ele>229.6</ele>
        <time>2022-01-10T15:05:57Z</time>
      </trkpt>
      <trkpt lat="46.50405" lon="5.37987">
        <ele>229.6</ele>
        <time>2022-01-10T15:05:58Z</time>
      </trkpt>
      <trkpt lat="46.50398" lon="5.37998">
        <ele>230.2</ele>
        <time>2022-01-10T15:06:00Z</time>
      </trkpt>
      <trkpt lat="46.50395" lon="5.38002">
        <ele>230.4</ele>
        <time>2022-01-10T15:06:01Z</time>
      </trkpt>
      <trkpt lat="46.50392" lon="5.38007">
        <ele>230.4</ele>
        <time>2022-01-10T15:06:02Z</time>
      </trkpt>
      <trkpt lat="46.50386" lon="5.38016">
        <ele>230.8</ele>
        <time>2022-01-10T15:06:04Z</time>
      </trkpt>
      <trkpt lat="46.50377" lon="5.38023">
        <ele>231</ele>
        <time>2022-01-10T15:06:06Z</time>
      </trkpt>
      <trkpt lat="46.50374" lon="5.38024">
        <ele>231.4</ele>
        <time>2022-01-10T15:06:07Z</time>
      </trkpt>
      <trkpt lat="46.5037" lon="5.38023">
        <ele>231.6</ele>
        <time>2022-01-10T15:06:08Z</time>
      </trkpt>
      <trkpt lat="46.50362" lon="5.38013">
        <ele>231.8</ele>
        <time>2022-01-10T15:06:10Z</time>
      </trkpt>
      <trkpt lat="46.50359" lon="5.38006">
        <ele>232.2</ele>
        <time>2022-01-10T15:06:11Z</time>
      </trkpt>
      <trkpt lat="46.50359" lon="5.37994">
        <ele>232.6</ele>
        <time>2022-01-10T15:06:13Z</time>
      </trkpt>
      <trkpt lat="46.50359" lon="5.37987">
        <ele>232.8</ele>
        <time>2022-01-10T15:06:14Z</time>
      </trkpt>
      <trkpt lat="46.50359" lon="5.37967">
        <ele>233.4</ele>
        <time>2022-01-10T15:06:17Z</time>
      </trkpt>
      <trkpt lat="46.50359" lon="5.3796">
        <ele>233.6</ele>
        <time>2022-01-10T15:06:18Z</time>
      </trkpt>
      <trkpt lat="46.50358" lon="5.37937">
        <ele>234.2</ele>
        <time>2022-01-10T15:06:21Z</time>
      </trkpt>
      <trkpt lat="46.50357" lon="5.37931">
        <ele>234.4</ele>
        <time>2022-01-10T15:06:22Z</time>
      </trkpt>
      <trkpt lat="46.50356" lon="5.37923">
        <ele>234.4</ele>
        <time>2022-01-10T15:06:23Z</time>
      </trkpt>
      <trkpt lat="46.50353" lon="5.37914">
        <ele>234.4</ele>
        <time>2022-01-10T15:06:24Z</time>
      </trkpt>
      <trkpt lat="46.50348" lon="5.379">
        <ele>234.6</ele>
        <time>2022-01-10T15:06:26Z</time>
      </trkpt>
      <trkpt lat="46.5034" lon="5.37884">
        <ele>234.6</ele>
        <time>2022-01-10T15:06:28Z</time>
      </trkpt>
      <trkpt lat="46.50334" lon="5.37876">
        <ele>234.6</ele>
        <time>2022-01-10T15:06:29Z</time>
      </trkpt>
      <trkpt lat="46.50289" lon="5.37831">
        <ele>234</ele>
        <time>2022-01-10T15:06:37Z</time>
      </trkpt>
      <trkpt lat="46.50282" lon="5.37824">
        <ele>234</ele>
        <time>2022-01-10T15:06:38Z</time>
      </trkpt>
      <trkpt lat="46.50241" lon="5.37785">
        <ele>233.8</ele>
        <time>2022-01-10T15:06:45Z</time>
      </trkpt>
      <trkpt lat="46.50204" lon="5.37758">
        <ele>233.6</ele>
        <time>2022-01-10T15:06:50Z</time>
      </trkpt>
      <trkpt lat="46.50195" lon="5.37753">
        <ele>233.6</ele>
        <time>2022-01-10T15:06:51Z</time>
      </trkpt>
      <trkpt lat="46.50178" lon="5.37748">
        <ele>233.2</ele>
        <time>2022-01-10T15:06:53Z</time>
      </trkpt>
      <trkpt lat="46.50163" lon="5.37744">
        <ele>233.2</ele>
        <time>2022-01-10T15:06:55Z</time>
      </trkpt>
      <trkpt lat="46.50118" lon="5.37734">
        <ele>233.4</ele>
        <time>2022-01-10T15:07:01Z</time>
      </trkpt>
      <trkpt lat="46.50092" lon="5.37726">
        <ele>234.4</ele>
        <time>2022-01-10T15:07:05Z</time>
      </trkpt>
      <trkpt lat="46.50073" lon="5.3772">
        <ele>235</ele>
        <time>2022-01-10T15:07:08Z</time>
      </trkpt>
      <trkpt lat="46.50047" lon="5.37707">
        <ele>235.4</ele>
        <time>2022-01-10T15:07:12Z</time>
      </trkpt>
      <trkpt lat="46.50017" lon="5.37693">
        <ele>235.8</ele>
        <time>2022-01-10T15:07:16Z</time>
      </trkpt>
      <trkpt lat="46.49964" lon="5.37668">
        <ele>235.2</ele>
        <time>2022-01-10T15:07:23Z</time>
      </trkpt>
      <trkpt lat="46.49906" lon="5.37647">
        <ele>234.6</ele>
        <time>2022-01-10T15:07:30Z</time>
      </trkpt>
      <trkpt lat="46.49892" lon="5.37642">
        <ele>234.4</ele>
        <time>2022-01-10T15:07:32Z</time>
      </trkpt>
      <trkpt lat="46.49834" lon="5.37619">
        <ele>233.6</ele>
        <time>2022-01-10T15:07:39Z</time>
      </trkpt>
      <trkpt lat="46.4982" lon="5.37613">
        <ele>233.4</ele>
        <time>2022-01-10T15:07:41Z</time>
      </trkpt>
      <trkpt lat="46.49797" lon="5.37599">
        <ele>233.4</ele>
        <time>2022-01-10T15:07:44Z</time>
      </trkpt>
      <trkpt lat="46.49767" lon="5.3758">
        <ele>233.2</ele>
        <time>2022-01-10T15:07:48Z</time>
      </trkpt>
      <trkpt lat="46.49709" lon="5.37544">
        <ele>232.8</ele>
        <time>2022-01-10T15:07:56Z</time>
      </trkpt>
      <trkpt lat="46.49694" lon="5.37536">
        <ele>232.8</ele>
        <time>2022-01-10T15:07:58Z</time>
      </trkpt>
      <trkpt lat="46.49653" lon="5.37518">
        <ele>232.4</ele>
        <time>2022-01-10T15:08:04Z</time>
      </trkpt>
      <trkpt lat="46.49646" lon="5.37515">
        <ele>232.2</ele>
        <time>2022-01-10T15:08:05Z</time>
      </trkpt>
      <trkpt lat="46.49637" lon="5.37511">
        <ele>232.2</ele>
        <time>2022-01-10T15:08:07Z</time>
      </trkpt>
      <trkpt lat="46.49632" lon="5.37507">
        <ele>232.2</ele>
        <time>2022-01-10T15:08:08Z</time>
      </trkpt>
      <trkpt lat="46.49628" lon="5.37504">
        <ele>232.2</ele>
        <time>2022-01-10T15:08:09Z</time>
      </trkpt>
      <trkpt lat="46.49616" lon="5.37504">
        <ele>232</ele>
        <time>2022-01-10T15:08:11Z</time>
      </trkpt>
      <trkpt lat="46.49607" lon="5.3751">
        <ele>232.2</ele>
        <time>2022-01-10T15:08:13Z</time>
      </trkpt>
      <trkpt lat="46.49597" lon="5.37519">
        <ele>232.2</ele>
        <time>2022-01-10T15:08:15Z</time>
      </trkpt>
      <trkpt lat="46.49559" lon="5.3755">
        <ele>233.6</ele>
        <time>2022-01-10T15:08:23Z</time>
      </trkpt>
      <trkpt lat="46.49543" lon="5.37562">
        <ele>234.4</ele>
        <time>2022-01-10T15:08:26Z</time>
      </trkpt>
      <trkpt lat="46.49539" lon="5.37566">
        <ele>234.6</ele>
        <time>2022-01-10T15:08:27Z</time>
      </trkpt>
      <trkpt lat="46.49533" lon="5.3757">
        <ele>235.2</ele>
        <time>2022-01-10T15:08:28Z</time>
      </trkpt>
      <trkpt lat="46.49525" lon="5.37578">
        <ele>235.8</ele>
        <time>2022-01-10T15:08:30Z</time>
      </trkpt>
      <trkpt lat="46.49498" lon="5.37598">
        <ele>237</ele>
        <time>2022-01-10T15:08:35Z</time>
      </trkpt>
      <trkpt lat="46.49488" lon="5.37606">
        <ele>237.6</ele>
        <time>2022-01-10T15:08:37Z</time>
      </trkpt>
      <trkpt lat="46.49475" lon="5.37616">
        <ele>238</ele>
        <time>2022-01-10T15:08:40Z</time>
      </trkpt>
      <trkpt lat="46.49453" lon="5.37633">
        <ele>238.6</ele>
        <time>2022-01-10T15:08:46Z</time>
      </trkpt>
      <trkpt lat="46.49439" lon="5.37645">
        <ele>239.2</ele>
        <time>2022-01-10T15:08:49Z</time>
      </trkpt>
      <trkpt lat="46.49424" lon="5.37661">
        <ele>240.2</ele>
        <time>2022-01-10T15:08:53Z</time>
      </trkpt>
      <trkpt lat="46.49421" lon="5.37664">
        <ele>240.4</ele>
        <time>2022-01-10T15:08:54Z</time>
      </trkpt>
      <trkpt lat="46.49404" lon="5.37689">
        <ele>241.8</ele>
        <time>2022-01-10T15:08:59Z</time>
      </trkpt>
      <trkpt lat="46.49401" lon="5.37694">
        <ele>242</ele>
        <time>2022-01-10T15:09:00Z</time>
      </trkpt>
      <trkpt lat="46.49398" lon="5.37699">
        <ele>242.4</ele>
        <time>2022-01-10T15:09:01Z</time>
      </trkpt>
      <trkpt lat="46.49393" lon="5.37711">
        <ele>243</ele>
        <time>2022-01-10T15:09:03Z</time>
      </trkpt>
      <trkpt lat="46.49387" lon="5.37729">
        <ele>244.2</ele>
        <time>2022-01-10T15:09:06Z</time>
      </trkpt>
      <trkpt lat="46.49378" lon="5.37753">
        <ele>245.4</ele>
        <time>2022-01-10T15:09:10Z</time>
      </trkpt>
      <trkpt lat="46.49365" lon="5.37785">
        <ele>246.4</ele>
        <time>2022-01-10T15:09:15Z</time>
      </trkpt>
      <trkpt lat="46.49363" lon="5.37792">
        <ele>246.6</ele>
        <time>2022-01-10T15:09:16Z</time>
      </trkpt>
      <trkpt lat="46.49346" lon="5.37842">
        <ele>247.2</ele>
        <time>2022-01-10T15:09:23Z</time>
      </trkpt>
      <trkpt lat="46.49332" lon="5.37886">
        <ele>247.2</ele>
        <time>2022-01-10T15:09:28Z</time>
      </trkpt>
      <trkpt lat="46.49319" lon="5.37951">
        <ele>246.8</ele>
        <time>2022-01-10T15:09:34Z</time>
      </trkpt>
      <trkpt lat="46.49303" lon="5.38028">
        <ele>245.6</ele>
        <time>2022-01-10T15:09:42Z</time>
      </trkpt>
      <trkpt lat="46.4929" lon="5.38099">
        <ele>246.4</ele>
        <time>2022-01-10T15:09:50Z</time>
      </trkpt>
      <trkpt lat="46.49281" lon="5.38154">
        <ele>247</ele>
        <time>2022-01-10T15:09:57Z</time>
      </trkpt>
      <trkpt lat="46.49276" lon="5.38175">
        <ele>247.6</ele>
        <time>2022-01-10T15:10:00Z</time>
      </trkpt>
      <trkpt lat="46.4927" lon="5.38213">
        <ele>248</ele>
        <time>2022-01-10T15:10:05Z</time>
      </trkpt>
      <trkpt lat="46.49266" lon="5.38229">
        <ele>248.6</ele>
        <time>2022-01-10T15:10:07Z</time>
      </trkpt>
      <trkpt lat="46.4926" lon="5.38264">
        <ele>249.6</ele>
        <time>2022-01-10T15:10:12Z</time>
      </trkpt>
      <trkpt lat="46.49256" lon="5.38286">
        <ele>249.8</ele>
        <time>2022-01-10T15:10:15Z</time>
      </trkpt>
      <trkpt lat="46.49248" lon="5.38314">
        <ele>250.6</ele>
        <time>2022-01-10T15:10:19Z</time>
      </trkpt>
      <trkpt lat="46.49245" lon="5.38322">
        <ele>250.6</ele>
        <time>2022-01-10T15:10:20Z</time>
      </trkpt>
      <trkpt lat="46.49241" lon="5.38325">
        <ele>250.8</ele>
        <time>2022-01-10T15:10:21Z</time>
      </trkpt>
      <trkpt lat="46.49235" lon="5.38329">
        <ele>251</ele>
        <time>2022-01-10T15:10:22Z</time>
      </trkpt>
      <trkpt lat="46.49231" lon="5.38329">
        <ele>251</ele>
        <time>2022-01-10T15:10:23Z</time>
      </trkpt>
      <trkpt lat="46.49209" lon="5.38317">
        <ele>251.2</ele>
        <time>2022-01-10T15:10:27Z</time>
      </trkpt>
      <trkpt lat="46.49172" lon="5.38301">
        <ele>251.4</ele>
        <time>2022-01-10T15:10:33Z</time>
      </trkpt>
      <trkpt lat="46.49121" lon="5.38286">
        <ele>250</ele>
        <time>2022-01-10T15:10:40Z</time>
      </trkpt>
      <trkpt lat="46.49114" lon="5.38285">
        <ele>249.8</ele>
        <time>2022-01-10T15:10:41Z</time>
      </trkpt>
      <trkpt lat="46.49101" lon="5.3828">
        <ele>249.4</ele>
        <time>2022-01-10T15:10:43Z</time>
      </trkpt>
      <trkpt lat="46.49096" lon="5.38276">
        <ele>249.2</ele>
        <time>2022-01-10T15:10:44Z</time>
      </trkpt>
      <trkpt lat="46.49091" lon="5.3827">
        <ele>248.8</ele>
        <time>2022-01-10T15:10:45Z</time>
      </trkpt>
      <trkpt lat="46.49084" lon="5.38253">
        <ele>248.6</ele>
        <time>2022-01-10T15:10:47Z</time>
      </trkpt>
      <trkpt lat="46.49068" lon="5.38198">
        <ele>247.6</ele>
        <time>2022-01-10T15:10:52Z</time>
      </trkpt>
      <trkpt lat="46.49049" lon="5.38139">
        <ele>246.4</ele>
        <time>2022-01-10T15:10:57Z</time>
      </trkpt>
      <trkpt lat="46.49045" lon="5.38127">
        <ele>246.2</ele>
        <time>2022-01-10T15:10:58Z</time>
      </trkpt>
      <trkpt lat="46.49035" lon="5.38091">
        <ele>244.8</ele>
        <time>2022-01-10T15:11:01Z</time>
      </trkpt>
      <trkpt lat="46.49019" lon="5.38036">
        <ele>243.6</ele>
        <time>2022-01-10T15:11:05Z</time>
      </trkpt>
      <trkpt lat="46.49012" lon="5.3801">
        <ele>243</ele>
        <time>2022-01-10T15:11:07Z</time>
      </trkpt>
      <trkpt lat="46.49004" lon="5.37984">
        <ele>242</ele>
        <time>2022-01-10T15:11:09Z</time>
      </trkpt>
      <trkpt lat="46.48997" lon="5.37959">
        <ele>241</ele>
        <time>2022-01-10T15:11:11Z</time>
      </trkpt>
      <trkpt lat="46.48986" lon="5.37921">
        <ele>240.2</ele>
        <time>2022-01-10T15:11:14Z</time>
      </trkpt>
      <trkpt lat="46.48978" lon="5.37896">
        <ele>239.6</ele>
        <time>2022-01-10T15:11:16Z</time>
      </trkpt>
      <trkpt lat="46.48963" lon="5.37849">
        <ele>238.4</ele>
        <time>2022-01-10T15:11:20Z</time>
      </trkpt>
      <trkpt lat="46.48959" lon="5.37837">
        <ele>237.8</ele>
        <time>2022-01-10T15:11:21Z</time>
      </trkpt>
      <trkpt lat="46.48953" lon="5.37814">
        <ele>237.2</ele>
        <time>2022-01-10T15:11:23Z</time>
      </trkpt>
      <trkpt lat="46.48939" lon="5.37769">
        <ele>236.8</ele>
        <time>2022-01-10T15:11:27Z</time>
      </trkpt>
      <trkpt lat="46.48916" lon="5.37694">
        <ele>236.6</ele>
        <time>2022-01-10T15:11:34Z</time>
      </trkpt>
      <trkpt lat="46.48913" lon="5.37684">
        <ele>236.6</ele>
        <time>2022-01-10T15:11:35Z</time>
      </trkpt>
      <trkpt lat="46.48899" lon="5.37642">
        <ele>236.8</ele>
        <time>2022-01-10T15:11:40Z</time>
      </trkpt>
      <trkpt lat="46.48896" lon="5.37636">
        <ele>236.8</ele>
        <time>2022-01-10T15:11:41Z</time>
      </trkpt>
      <trkpt lat="46.48891" lon="5.37631">
        <ele>236.8</ele>
        <time>2022-01-10T15:11:42Z</time>
      </trkpt>
      <trkpt lat="46.48884" lon="5.37627">
        <ele>237</ele>
        <time>2022-01-10T15:11:43Z</time>
      </trkpt>
      <trkpt lat="46.48878" lon="5.37627">
        <ele>237</ele>
        <time>2022-01-10T15:11:44Z</time>
      </trkpt>
      <trkpt lat="46.48868" lon="5.37628">
        <ele>237.2</ele>
        <time>2022-01-10T15:11:46Z</time>
      </trkpt>
      <trkpt lat="46.48864" lon="5.37626">
        <ele>237.2</ele>
        <time>2022-01-10T15:11:47Z</time>
      </trkpt>
      <trkpt lat="46.48859" lon="5.37617">
        <ele>237.4</ele>
        <time>2022-01-10T15:11:49Z</time>
      </trkpt>
      <trkpt lat="46.48858" lon="5.3761">
        <ele>237.8</ele>
        <time>2022-01-10T15:11:50Z</time>
      </trkpt>
      <trkpt lat="46.48853" lon="5.37585">
        <ele>238.2</ele>
        <time>2022-01-10T15:11:53Z</time>
      </trkpt>
      <trkpt lat="46.48848" lon="5.37571">
        <ele>238.8</ele>
        <time>2022-01-10T15:11:55Z</time>
      </trkpt>
      <trkpt lat="46.48845" lon="5.37563">
        <ele>239</ele>
        <time>2022-01-10T15:11:56Z</time>
      </trkpt>
      <trkpt lat="46.48835" lon="5.3754">
        <ele>239.6</ele>
        <time>2022-01-10T15:11:59Z</time>
      </trkpt>
      <trkpt lat="46.48831" lon="5.37534">
        <ele>239.8</ele>
        <time>2022-01-10T15:12:00Z</time>
      </trkpt>
      <trkpt lat="46.48808" lon="5.37496">
        <ele>240.6</ele>
        <time>2022-01-10T15:12:06Z</time>
      </trkpt>
      <trkpt lat="46.48805" lon="5.37491">
        <ele>240.8</ele>
        <time>2022-01-10T15:12:07Z</time>
      </trkpt>
      <trkpt lat="46.48792" lon="5.37472">
        <ele>241.4</ele>
        <time>2022-01-10T15:12:10Z</time>
      </trkpt>
      <trkpt lat="46.48783" lon="5.37459">
        <ele>241.6</ele>
        <time>2022-01-10T15:12:12Z</time>
      </trkpt>
      <trkpt lat="46.48773" lon="5.37444">
        <ele>241.6</ele>
        <time>2022-01-10T15:12:14Z</time>
      </trkpt>
      <trkpt lat="46.48753" lon="5.37412">
        <ele>241.6</ele>
        <time>2022-01-10T15:12:18Z</time>
      </trkpt>
      <trkpt lat="46.48716" lon="5.37357">
        <ele>240.6</ele>
        <time>2022-01-10T15:12:25Z</time>
      </trkpt>
      <trkpt lat="46.48687" lon="5.37316">
        <ele>239.6</ele>
        <time>2022-01-10T15:12:30Z</time>
      </trkpt>
      <trkpt lat="46.4867" lon="5.37293">
        <ele>239.4</ele>
        <time>2022-01-10T15:12:33Z</time>
      </trkpt>
      <trkpt lat="46.4864" lon="5.37254">
        <ele>239.4</ele>
        <time>2022-01-10T15:12:39Z</time>
      </trkpt>
    </trkseg>
  </trk>
</gpx>